<?xml version="1.0" encoding="UTF-8" standalone="no" ?>
<gpx xmlns="http://www.topografix.com/GPX/1/1" xmlns:xsi="http://www.w3.org/2001/XMLSchema-instance" xsi:schemaLocation="http://www.topografix.com/GPX/1/1 http://www.topografix.com/GPX/1/1/gpx.xsd" version="1.1" creator="VisuGPX - https://www.visugpx.com">
  <metadata>
    <name>vtt44.com - sortie Nivillac</name>
    <desc><![CDATA[vtt44.com - sortie Nivillac]]></desc>
  </metadata>
  <trk>
    <name><![CDATA[2014-09-21 10:49:55]]></name>
    <trkseg>
      <trkpt lat="47.53517" lon="-2.28256">
        <ele>33.3</ele>
        <time>2014-09-21T05:54:49Z</time>
      </trkpt>
      <trkpt lat="47.5351" lon="-2.28254">
        <ele>32.34</ele>
        <time>2014-09-21T05:55:11Z</time>
      </trkpt>
      <trkpt lat="47.53503" lon="-2.28261">
        <ele>31.86</ele>
        <time>2014-09-21T05:55:16Z</time>
      </trkpt>
      <trkpt lat="47.53504" lon="-2.28279">
        <ele>30.9</ele>
        <time>2014-09-21T05:55:21Z</time>
      </trkpt>
      <trkpt lat="47.53506" lon="-2.28292">
        <ele>30.42</ele>
        <time>2014-09-21T05:55:24Z</time>
      </trkpt>
      <trkpt lat="47.53508" lon="-2.28306">
        <ele>29.94</ele>
        <time>2014-09-21T05:55:27Z</time>
      </trkpt>
      <trkpt lat="47.5351" lon="-2.28319">
        <ele>29.46</ele>
        <time>2014-09-21T05:55:30Z</time>
      </trkpt>
      <trkpt lat="47.53512" lon="-2.28333">
        <ele>29.46</ele>
        <time>2014-09-21T05:55:33Z</time>
      </trkpt>
      <trkpt lat="47.53512" lon="-2.2835">
        <ele>29.46</ele>
        <time>2014-09-21T05:55:37Z</time>
      </trkpt>
      <trkpt lat="47.53511" lon="-2.28364">
        <ele>29.94</ele>
        <time>2014-09-21T05:55:40Z</time>
      </trkpt>
      <trkpt lat="47.53506" lon="-2.28376">
        <ele>29.94</ele>
        <time>2014-09-21T05:55:43Z</time>
      </trkpt>
      <trkpt lat="47.53496" lon="-2.28375">
        <ele>29.94</ele>
        <time>2014-09-21T05:55:46Z</time>
      </trkpt>
      <trkpt lat="47.53486" lon="-2.28373">
        <ele>29.94</ele>
        <time>2014-09-21T05:55:49Z</time>
      </trkpt>
      <trkpt lat="47.53476" lon="-2.2837">
        <ele>29.46</ele>
        <time>2014-09-21T05:55:52Z</time>
      </trkpt>
      <trkpt lat="47.53467" lon="-2.28368">
        <ele>28.98</ele>
        <time>2014-09-21T05:55:55Z</time>
      </trkpt>
      <trkpt lat="47.53457" lon="-2.28373">
        <ele>28.5</ele>
        <time>2014-09-21T05:55:59Z</time>
      </trkpt>
      <trkpt lat="47.53453" lon="-2.28387">
        <ele>27.53</ele>
        <time>2014-09-21T05:56:02Z</time>
      </trkpt>
      <trkpt lat="47.53453" lon="-2.28404">
        <ele>27.05</ele>
        <time>2014-09-21T05:56:05Z</time>
      </trkpt>
      <trkpt lat="47.53454" lon="-2.28419">
        <ele>27.05</ele>
        <time>2014-09-21T05:56:08Z</time>
      </trkpt>
      <trkpt lat="47.53456" lon="-2.28434">
        <ele>27.53</ele>
        <time>2014-09-21T05:56:11Z</time>
      </trkpt>
      <trkpt lat="47.53458" lon="-2.2845">
        <ele>27.05</ele>
        <time>2014-09-21T05:56:14Z</time>
      </trkpt>
      <trkpt lat="47.5346" lon="-2.28467">
        <ele>26.57</ele>
        <time>2014-09-21T05:56:17Z</time>
      </trkpt>
      <trkpt lat="47.53463" lon="-2.28485">
        <ele>26.09</ele>
        <time>2014-09-21T05:56:20Z</time>
      </trkpt>
      <trkpt lat="47.53467" lon="-2.28503">
        <ele>25.61</ele>
        <time>2014-09-21T05:56:23Z</time>
      </trkpt>
      <trkpt lat="47.53475" lon="-2.28518">
        <ele>25.61</ele>
        <time>2014-09-21T05:56:26Z</time>
      </trkpt>
      <trkpt lat="47.53482" lon="-2.2853">
        <ele>25.61</ele>
        <time>2014-09-21T05:56:29Z</time>
      </trkpt>
      <trkpt lat="47.53482" lon="-2.28545">
        <ele>24.65</ele>
        <time>2014-09-21T05:56:33Z</time>
      </trkpt>
      <trkpt lat="47.53473" lon="-2.28556">
        <ele>23.69</ele>
        <time>2014-09-21T05:56:36Z</time>
      </trkpt>
      <trkpt lat="47.53465" lon="-2.28561">
        <ele>23.21</ele>
        <time>2014-09-21T05:56:38Z</time>
      </trkpt>
      <trkpt lat="47.53456" lon="-2.28567">
        <ele>22.73</ele>
        <time>2014-09-21T05:56:40Z</time>
      </trkpt>
      <trkpt lat="47.53447" lon="-2.28573">
        <ele>22.73</ele>
        <time>2014-09-21T05:56:42Z</time>
      </trkpt>
      <trkpt lat="47.53438" lon="-2.28578">
        <ele>22.25</ele>
        <time>2014-09-21T05:56:44Z</time>
      </trkpt>
      <trkpt lat="47.53429" lon="-2.28584">
        <ele>22.25</ele>
        <time>2014-09-21T05:56:46Z</time>
      </trkpt>
      <trkpt lat="47.53421" lon="-2.28589">
        <ele>21.77</ele>
        <time>2014-09-21T05:56:48Z</time>
      </trkpt>
      <trkpt lat="47.53411" lon="-2.28597">
        <ele>20.81</ele>
        <time>2014-09-21T05:56:51Z</time>
      </trkpt>
      <trkpt lat="47.53401" lon="-2.28607">
        <ele>20.81</ele>
        <time>2014-09-21T05:56:54Z</time>
      </trkpt>
      <trkpt lat="47.53392" lon="-2.28616">
        <ele>20.32</ele>
        <time>2014-09-21T05:56:57Z</time>
      </trkpt>
      <trkpt lat="47.53383" lon="-2.28628">
        <ele>19.84</ele>
        <time>2014-09-21T05:57:00Z</time>
      </trkpt>
      <trkpt lat="47.53374" lon="-2.28632">
        <ele>18.88</ele>
        <time>2014-09-21T05:57:03Z</time>
      </trkpt>
      <trkpt lat="47.53362" lon="-2.28629">
        <ele>16.48</ele>
        <time>2014-09-21T05:57:05Z</time>
      </trkpt>
      <trkpt lat="47.5335" lon="-2.2863">
        <ele>15.52</ele>
        <time>2014-09-21T05:57:07Z</time>
      </trkpt>
      <trkpt lat="47.53338" lon="-2.28629">
        <ele>14.08</ele>
        <time>2014-09-21T05:57:09Z</time>
      </trkpt>
      <trkpt lat="47.53327" lon="-2.28626">
        <ele>13.12</ele>
        <time>2014-09-21T05:57:11Z</time>
      </trkpt>
      <trkpt lat="47.53316" lon="-2.2862">
        <ele>12.15</ele>
        <time>2014-09-21T05:57:13Z</time>
      </trkpt>
      <trkpt lat="47.53306" lon="-2.28613">
        <ele>12.15</ele>
        <time>2014-09-21T05:57:15Z</time>
      </trkpt>
      <trkpt lat="47.53297" lon="-2.28606">
        <ele>12.15</ele>
        <time>2014-09-21T05:57:17Z</time>
      </trkpt>
      <trkpt lat="47.5329" lon="-2.28597">
        <ele>12.63</ele>
        <time>2014-09-21T05:57:19Z</time>
      </trkpt>
      <trkpt lat="47.53283" lon="-2.28587">
        <ele>12.63</ele>
        <time>2014-09-21T05:57:21Z</time>
      </trkpt>
      <trkpt lat="47.53276" lon="-2.28571">
        <ele>12.15</ele>
        <time>2014-09-21T05:57:24Z</time>
      </trkpt>
      <trkpt lat="47.53272" lon="-2.28556">
        <ele>11.67</ele>
        <time>2014-09-21T05:57:27Z</time>
      </trkpt>
      <trkpt lat="47.53272" lon="-2.28541">
        <ele>11.19</ele>
        <time>2014-09-21T05:57:30Z</time>
      </trkpt>
      <trkpt lat="47.53274" lon="-2.28527">
        <ele>11.19</ele>
        <time>2014-09-21T05:57:33Z</time>
      </trkpt>
      <trkpt lat="47.53273" lon="-2.2851">
        <ele>12.15</ele>
        <time>2014-09-21T05:57:37Z</time>
      </trkpt>
      <trkpt lat="47.53273" lon="-2.28496">
        <ele>13.12</ele>
        <time>2014-09-21T05:57:40Z</time>
      </trkpt>
      <trkpt lat="47.53271" lon="-2.28479">
        <ele>14.08</ele>
        <time>2014-09-21T05:57:44Z</time>
      </trkpt>
      <trkpt lat="47.53268" lon="-2.28463">
        <ele>15.52</ele>
        <time>2014-09-21T05:57:48Z</time>
      </trkpt>
      <trkpt lat="47.53261" lon="-2.28452">
        <ele>16</ele>
        <time>2014-09-21T05:57:52Z</time>
      </trkpt>
      <trkpt lat="47.5325" lon="-2.28452">
        <ele>16</ele>
        <time>2014-09-21T05:57:56Z</time>
      </trkpt>
      <trkpt lat="47.53239" lon="-2.28457">
        <ele>16.48</ele>
        <time>2014-09-21T05:58:00Z</time>
      </trkpt>
      <trkpt lat="47.53227" lon="-2.28458">
        <ele>16.48</ele>
        <time>2014-09-21T05:58:04Z</time>
      </trkpt>
      <trkpt lat="47.5322" lon="-2.28472">
        <ele>16</ele>
        <time>2014-09-21T05:58:08Z</time>
      </trkpt>
      <trkpt lat="47.53217" lon="-2.28489">
        <ele>15.04</ele>
        <time>2014-09-21T05:58:11Z</time>
      </trkpt>
      <trkpt lat="47.53215" lon="-2.28506">
        <ele>15.04</ele>
        <time>2014-09-21T05:58:14Z</time>
      </trkpt>
      <trkpt lat="47.53211" lon="-2.28524">
        <ele>14.56</ele>
        <time>2014-09-21T05:58:17Z</time>
      </trkpt>
      <trkpt lat="47.53208" lon="-2.28544">
        <ele>13.12</ele>
        <time>2014-09-21T05:58:20Z</time>
      </trkpt>
      <trkpt lat="47.53208" lon="-2.28561">
        <ele>11.67</ele>
        <time>2014-09-21T05:58:22Z</time>
      </trkpt>
      <trkpt lat="47.53208" lon="-2.28581">
        <ele>9.75</ele>
        <time>2014-09-21T05:58:24Z</time>
      </trkpt>
      <trkpt lat="47.53208" lon="-2.286">
        <ele>8.79</ele>
        <time>2014-09-21T05:58:26Z</time>
      </trkpt>
      <trkpt lat="47.53204" lon="-2.28616">
        <ele>6.87</ele>
        <time>2014-09-21T05:58:29Z</time>
      </trkpt>
      <trkpt lat="47.53194" lon="-2.28612">
        <ele>5.91</ele>
        <time>2014-09-21T05:58:32Z</time>
      </trkpt>
      <trkpt lat="47.53184" lon="-2.28606">
        <ele>5.91</ele>
        <time>2014-09-21T05:58:35Z</time>
      </trkpt>
      <trkpt lat="47.53173" lon="-2.28601">
        <ele>5.91</ele>
        <time>2014-09-21T05:58:38Z</time>
      </trkpt>
      <trkpt lat="47.53161" lon="-2.28595">
        <ele>5.42</ele>
        <time>2014-09-21T05:58:41Z</time>
      </trkpt>
      <trkpt lat="47.53149" lon="-2.2859">
        <ele>5.42</ele>
        <time>2014-09-21T05:58:44Z</time>
      </trkpt>
      <trkpt lat="47.53139" lon="-2.28584">
        <ele>5.91</ele>
        <time>2014-09-21T05:58:47Z</time>
      </trkpt>
      <trkpt lat="47.53132" lon="-2.28576">
        <ele>6.87</ele>
        <time>2014-09-21T05:58:52Z</time>
      </trkpt>
      <trkpt lat="47.5312" lon="-2.28578">
        <ele>7.35</ele>
        <time>2014-09-21T05:58:56Z</time>
      </trkpt>
      <trkpt lat="47.53111" lon="-2.28585">
        <ele>8.79</ele>
        <time>2014-09-21T05:58:59Z</time>
      </trkpt>
      <trkpt lat="47.531" lon="-2.28591">
        <ele>8.79</ele>
        <time>2014-09-21T05:59:02Z</time>
      </trkpt>
      <trkpt lat="47.53089" lon="-2.28598">
        <ele>9.27</ele>
        <time>2014-09-21T05:59:05Z</time>
      </trkpt>
      <trkpt lat="47.53078" lon="-2.28605">
        <ele>10.23</ele>
        <time>2014-09-21T05:59:08Z</time>
      </trkpt>
      <trkpt lat="47.53069" lon="-2.2861">
        <ele>10.71</ele>
        <time>2014-09-21T05:59:11Z</time>
      </trkpt>
      <trkpt lat="47.53059" lon="-2.28616">
        <ele>11.67</ele>
        <time>2014-09-21T05:59:14Z</time>
      </trkpt>
      <trkpt lat="47.5305" lon="-2.28624">
        <ele>12.63</ele>
        <time>2014-09-21T05:59:17Z</time>
      </trkpt>
      <trkpt lat="47.53043" lon="-2.28632">
        <ele>13.6</ele>
        <time>2014-09-21T05:59:20Z</time>
      </trkpt>
      <trkpt lat="47.53036" lon="-2.28641">
        <ele>14.56</ele>
        <time>2014-09-21T05:59:23Z</time>
      </trkpt>
      <trkpt lat="47.53027" lon="-2.2865">
        <ele>15.04</ele>
        <time>2014-09-21T05:59:26Z</time>
      </trkpt>
      <trkpt lat="47.53019" lon="-2.2866">
        <ele>15.04</ele>
        <time>2014-09-21T05:59:29Z</time>
      </trkpt>
      <trkpt lat="47.5301" lon="-2.2867">
        <ele>15.04</ele>
        <time>2014-09-21T05:59:32Z</time>
      </trkpt>
      <trkpt lat="47.53006" lon="-2.28685">
        <ele>15.04</ele>
        <time>2014-09-21T05:59:35Z</time>
      </trkpt>
      <trkpt lat="47.53012" lon="-2.28702">
        <ele>14.56</ele>
        <time>2014-09-21T05:59:38Z</time>
      </trkpt>
      <trkpt lat="47.53017" lon="-2.28714">
        <ele>14.08</ele>
        <time>2014-09-21T05:59:40Z</time>
      </trkpt>
      <trkpt lat="47.53021" lon="-2.28727">
        <ele>13.12</ele>
        <time>2014-09-21T05:59:42Z</time>
      </trkpt>
      <trkpt lat="47.53026" lon="-2.2874">
        <ele>13.12</ele>
        <time>2014-09-21T05:59:44Z</time>
      </trkpt>
      <trkpt lat="47.53031" lon="-2.28752">
        <ele>12.63</ele>
        <time>2014-09-21T05:59:46Z</time>
      </trkpt>
      <trkpt lat="47.53036" lon="-2.28763">
        <ele>12.15</ele>
        <time>2014-09-21T05:59:48Z</time>
      </trkpt>
      <trkpt lat="47.53042" lon="-2.28775">
        <ele>12.15</ele>
        <time>2014-09-21T05:59:50Z</time>
      </trkpt>
      <trkpt lat="47.53048" lon="-2.28787">
        <ele>12.15</ele>
        <time>2014-09-21T05:59:52Z</time>
      </trkpt>
      <trkpt lat="47.53054" lon="-2.28798">
        <ele>12.15</ele>
        <time>2014-09-21T05:59:54Z</time>
      </trkpt>
      <trkpt lat="47.5306" lon="-2.28808">
        <ele>11.67</ele>
        <time>2014-09-21T05:59:56Z</time>
      </trkpt>
      <trkpt lat="47.53066" lon="-2.28819">
        <ele>11.19</ele>
        <time>2014-09-21T05:59:58Z</time>
      </trkpt>
      <trkpt lat="47.53073" lon="-2.28828">
        <ele>11.19</ele>
        <time>2014-09-21T06:00:00Z</time>
      </trkpt>
      <trkpt lat="47.53083" lon="-2.28842">
        <ele>10.23</ele>
        <time>2014-09-21T06:00:03Z</time>
      </trkpt>
      <trkpt lat="47.53089" lon="-2.28853">
        <ele>10.23</ele>
        <time>2014-09-21T06:00:05Z</time>
      </trkpt>
      <trkpt lat="47.53098" lon="-2.28866">
        <ele>10.23</ele>
        <time>2014-09-21T06:00:08Z</time>
      </trkpt>
      <trkpt lat="47.53105" lon="-2.28875">
        <ele>9.75</ele>
        <time>2014-09-21T06:00:11Z</time>
      </trkpt>
      <trkpt lat="47.53112" lon="-2.28886">
        <ele>9.27</ele>
        <time>2014-09-21T06:00:14Z</time>
      </trkpt>
      <trkpt lat="47.53109" lon="-2.28901">
        <ele>8.31</ele>
        <time>2014-09-21T06:00:17Z</time>
      </trkpt>
      <trkpt lat="47.53109" lon="-2.28915">
        <ele>8.31</ele>
        <time>2014-09-21T06:00:20Z</time>
      </trkpt>
      <trkpt lat="47.53115" lon="-2.2893">
        <ele>8.79</ele>
        <time>2014-09-21T06:00:23Z</time>
      </trkpt>
      <trkpt lat="47.53121" lon="-2.28943">
        <ele>9.27</ele>
        <time>2014-09-21T06:00:26Z</time>
      </trkpt>
      <trkpt lat="47.53128" lon="-2.28956">
        <ele>9.75</ele>
        <time>2014-09-21T06:00:29Z</time>
      </trkpt>
      <trkpt lat="47.53135" lon="-2.2897">
        <ele>9.75</ele>
        <time>2014-09-21T06:00:32Z</time>
      </trkpt>
      <trkpt lat="47.5314" lon="-2.28988">
        <ele>9.27</ele>
        <time>2014-09-21T06:00:35Z</time>
      </trkpt>
      <trkpt lat="47.53144" lon="-2.29006">
        <ele>9.27</ele>
        <time>2014-09-21T06:00:38Z</time>
      </trkpt>
      <trkpt lat="47.5315" lon="-2.29025">
        <ele>9.27</ele>
        <time>2014-09-21T06:00:41Z</time>
      </trkpt>
      <trkpt lat="47.53153" lon="-2.29038">
        <ele>9.27</ele>
        <time>2014-09-21T06:00:43Z</time>
      </trkpt>
      <trkpt lat="47.53157" lon="-2.29051">
        <ele>9.75</ele>
        <time>2014-09-21T06:00:45Z</time>
      </trkpt>
      <trkpt lat="47.53161" lon="-2.29064">
        <ele>10.23</ele>
        <time>2014-09-21T06:00:47Z</time>
      </trkpt>
      <trkpt lat="47.53164" lon="-2.29076">
        <ele>10.71</ele>
        <time>2014-09-21T06:00:49Z</time>
      </trkpt>
      <trkpt lat="47.5317" lon="-2.29095">
        <ele>11.19</ele>
        <time>2014-09-21T06:00:52Z</time>
      </trkpt>
      <trkpt lat="47.53174" lon="-2.29107">
        <ele>11.67</ele>
        <time>2014-09-21T06:00:54Z</time>
      </trkpt>
      <trkpt lat="47.53178" lon="-2.29125">
        <ele>11.67</ele>
        <time>2014-09-21T06:00:57Z</time>
      </trkpt>
      <trkpt lat="47.53182" lon="-2.29137">
        <ele>11.67</ele>
        <time>2014-09-21T06:00:59Z</time>
      </trkpt>
      <trkpt lat="47.53186" lon="-2.29151">
        <ele>10.71</ele>
        <time>2014-09-21T06:01:01Z</time>
      </trkpt>
      <trkpt lat="47.53189" lon="-2.29166">
        <ele>9.27</ele>
        <time>2014-09-21T06:01:03Z</time>
      </trkpt>
      <trkpt lat="47.53194" lon="-2.29177">
        <ele>7.35</ele>
        <time>2014-09-21T06:01:05Z</time>
      </trkpt>
      <trkpt lat="47.53202" lon="-2.29181">
        <ele>6.39</ele>
        <time>2014-09-21T06:01:07Z</time>
      </trkpt>
      <trkpt lat="47.53214" lon="-2.29172">
        <ele>3.98</ele>
        <time>2014-09-21T06:01:10Z</time>
      </trkpt>
      <trkpt lat="47.53222" lon="-2.29157">
        <ele>2.54</ele>
        <time>2014-09-21T06:01:13Z</time>
      </trkpt>
      <trkpt lat="47.5323" lon="-2.29142">
        <ele>2.06</ele>
        <time>2014-09-21T06:01:16Z</time>
      </trkpt>
      <trkpt lat="47.53234" lon="-2.29124">
        <ele>1.58</ele>
        <time>2014-09-21T06:01:20Z</time>
      </trkpt>
      <trkpt lat="47.53238" lon="-2.29109">
        <ele>1.58</ele>
        <time>2014-09-21T06:01:23Z</time>
      </trkpt>
      <trkpt lat="47.53243" lon="-2.29093">
        <ele>2.06</ele>
        <time>2014-09-21T06:01:26Z</time>
      </trkpt>
      <trkpt lat="47.53249" lon="-2.29076">
        <ele>2.06</ele>
        <time>2014-09-21T06:01:29Z</time>
      </trkpt>
      <trkpt lat="47.53258" lon="-2.29064">
        <ele>3.5</ele>
        <time>2014-09-21T06:01:32Z</time>
      </trkpt>
      <trkpt lat="47.5327" lon="-2.29058">
        <ele>4.94</ele>
        <time>2014-09-21T06:01:35Z</time>
      </trkpt>
      <trkpt lat="47.5328" lon="-2.29055">
        <ele>4.94</ele>
        <time>2014-09-21T06:01:37Z</time>
      </trkpt>
      <trkpt lat="47.53294" lon="-2.29049">
        <ele>5.42</ele>
        <time>2014-09-21T06:01:40Z</time>
      </trkpt>
      <trkpt lat="47.53303" lon="-2.29043">
        <ele>5.91</ele>
        <time>2014-09-21T06:01:42Z</time>
      </trkpt>
      <trkpt lat="47.53311" lon="-2.29036">
        <ele>5.91</ele>
        <time>2014-09-21T06:01:44Z</time>
      </trkpt>
      <trkpt lat="47.5332" lon="-2.2903">
        <ele>6.39</ele>
        <time>2014-09-21T06:01:46Z</time>
      </trkpt>
      <trkpt lat="47.53328" lon="-2.29027">
        <ele>7.35</ele>
        <time>2014-09-21T06:01:48Z</time>
      </trkpt>
      <trkpt lat="47.53335" lon="-2.29037">
        <ele>7.83</ele>
        <time>2014-09-21T06:01:51Z</time>
      </trkpt>
      <trkpt lat="47.53343" lon="-2.2905">
        <ele>8.79</ele>
        <time>2014-09-21T06:01:55Z</time>
      </trkpt>
      <trkpt lat="47.53352" lon="-2.29061">
        <ele>9.27</ele>
        <time>2014-09-21T06:01:58Z</time>
      </trkpt>
      <trkpt lat="47.53362" lon="-2.29073">
        <ele>9.27</ele>
        <time>2014-09-21T06:02:01Z</time>
      </trkpt>
      <trkpt lat="47.5337" lon="-2.29088">
        <ele>9.27</ele>
        <time>2014-09-21T06:02:04Z</time>
      </trkpt>
      <trkpt lat="47.53374" lon="-2.29105">
        <ele>9.75</ele>
        <time>2014-09-21T06:02:07Z</time>
      </trkpt>
      <trkpt lat="47.53377" lon="-2.29123">
        <ele>9.75</ele>
        <time>2014-09-21T06:02:10Z</time>
      </trkpt>
      <trkpt lat="47.53382" lon="-2.29141">
        <ele>10.23</ele>
        <time>2014-09-21T06:02:13Z</time>
      </trkpt>
      <trkpt lat="47.53385" lon="-2.29158">
        <ele>10.71</ele>
        <time>2014-09-21T06:02:16Z</time>
      </trkpt>
      <trkpt lat="47.53389" lon="-2.29177">
        <ele>11.19</ele>
        <time>2014-09-21T06:02:19Z</time>
      </trkpt>
      <trkpt lat="47.53392" lon="-2.29195">
        <ele>11.67</ele>
        <time>2014-09-21T06:02:22Z</time>
      </trkpt>
      <trkpt lat="47.53396" lon="-2.29213">
        <ele>11.67</ele>
        <time>2014-09-21T06:02:25Z</time>
      </trkpt>
      <trkpt lat="47.534" lon="-2.29233">
        <ele>12.63</ele>
        <time>2014-09-21T06:02:28Z</time>
      </trkpt>
      <trkpt lat="47.53403" lon="-2.29246">
        <ele>13.12</ele>
        <time>2014-09-21T06:02:30Z</time>
      </trkpt>
      <trkpt lat="47.53407" lon="-2.29266">
        <ele>13.6</ele>
        <time>2014-09-21T06:02:33Z</time>
      </trkpt>
      <trkpt lat="47.53412" lon="-2.29284">
        <ele>13.6</ele>
        <time>2014-09-21T06:02:36Z</time>
      </trkpt>
      <trkpt lat="47.53414" lon="-2.29299">
        <ele>14.08</ele>
        <time>2014-09-21T06:02:39Z</time>
      </trkpt>
      <trkpt lat="47.53416" lon="-2.29314">
        <ele>12.63</ele>
        <time>2014-09-21T06:02:54Z</time>
      </trkpt>
      <trkpt lat="47.53408" lon="-2.2932">
        <ele>12.15</ele>
        <time>2014-09-21T06:02:59Z</time>
      </trkpt>
      <trkpt lat="47.53398" lon="-2.29328">
        <ele>12.15</ele>
        <time>2014-09-21T06:03:03Z</time>
      </trkpt>
      <trkpt lat="47.53389" lon="-2.29337">
        <ele>12.63</ele>
        <time>2014-09-21T06:03:07Z</time>
      </trkpt>
      <trkpt lat="47.53381" lon="-2.29345">
        <ele>13.12</ele>
        <time>2014-09-21T06:03:10Z</time>
      </trkpt>
      <trkpt lat="47.53374" lon="-2.29354">
        <ele>13.12</ele>
        <time>2014-09-21T06:03:13Z</time>
      </trkpt>
      <trkpt lat="47.53368" lon="-2.29365">
        <ele>13.12</ele>
        <time>2014-09-21T06:03:16Z</time>
      </trkpt>
      <trkpt lat="47.53363" lon="-2.29379">
        <ele>13.12</ele>
        <time>2014-09-21T06:03:19Z</time>
      </trkpt>
      <trkpt lat="47.5336" lon="-2.29397">
        <ele>12.15</ele>
        <time>2014-09-21T06:03:22Z</time>
      </trkpt>
      <trkpt lat="47.53357" lon="-2.2941">
        <ele>11.67</ele>
        <time>2014-09-21T06:03:24Z</time>
      </trkpt>
      <trkpt lat="47.53353" lon="-2.29425">
        <ele>10.71</ele>
        <time>2014-09-21T06:03:26Z</time>
      </trkpt>
      <trkpt lat="47.53347" lon="-2.29439">
        <ele>9.75</ele>
        <time>2014-09-21T06:03:28Z</time>
      </trkpt>
      <trkpt lat="47.53338" lon="-2.29453">
        <ele>8.79</ele>
        <time>2014-09-21T06:03:30Z</time>
      </trkpt>
      <trkpt lat="47.53326" lon="-2.29463">
        <ele>7.83</ele>
        <time>2014-09-21T06:03:32Z</time>
      </trkpt>
      <trkpt lat="47.53314" lon="-2.29471">
        <ele>6.87</ele>
        <time>2014-09-21T06:03:34Z</time>
      </trkpt>
      <trkpt lat="47.53302" lon="-2.29478">
        <ele>6.39</ele>
        <time>2014-09-21T06:03:36Z</time>
      </trkpt>
      <trkpt lat="47.53291" lon="-2.2948">
        <ele>6.39</ele>
        <time>2014-09-21T06:03:38Z</time>
      </trkpt>
      <trkpt lat="47.53282" lon="-2.29473">
        <ele>5.91</ele>
        <time>2014-09-21T06:03:40Z</time>
      </trkpt>
      <trkpt lat="47.53276" lon="-2.29457">
        <ele>5.42</ele>
        <time>2014-09-21T06:03:42Z</time>
      </trkpt>
      <trkpt lat="47.5327" lon="-2.29441">
        <ele>4.94</ele>
        <time>2014-09-21T06:03:44Z</time>
      </trkpt>
      <trkpt lat="47.53264" lon="-2.29426">
        <ele>4.94</ele>
        <time>2014-09-21T06:03:46Z</time>
      </trkpt>
      <trkpt lat="47.53259" lon="-2.29411">
        <ele>4.94</ele>
        <time>2014-09-21T06:03:48Z</time>
      </trkpt>
      <trkpt lat="47.53254" lon="-2.29397">
        <ele>4.94</ele>
        <time>2014-09-21T06:03:50Z</time>
      </trkpt>
      <trkpt lat="47.53249" lon="-2.29385">
        <ele>4.94</ele>
        <time>2014-09-21T06:03:52Z</time>
      </trkpt>
      <trkpt lat="47.53242" lon="-2.29376">
        <ele>5.42</ele>
        <time>2014-09-21T06:03:55Z</time>
      </trkpt>
      <trkpt lat="47.53236" lon="-2.29384">
        <ele>6.87</ele>
        <time>2014-09-21T06:03:59Z</time>
      </trkpt>
      <trkpt lat="47.53234" lon="-2.294">
        <ele>7.35</ele>
        <time>2014-09-21T06:04:04Z</time>
      </trkpt>
      <trkpt lat="47.53235" lon="-2.29416">
        <ele>7.83</ele>
        <time>2014-09-21T06:04:09Z</time>
      </trkpt>
      <trkpt lat="47.53237" lon="-2.29434">
        <ele>9.27</ele>
        <time>2014-09-21T06:04:15Z</time>
      </trkpt>
      <trkpt lat="47.53237" lon="-2.29452">
        <ele>10.23</ele>
        <time>2014-09-21T06:04:20Z</time>
      </trkpt>
      <trkpt lat="47.53236" lon="-2.29469">
        <ele>11.19</ele>
        <time>2014-09-21T06:04:25Z</time>
      </trkpt>
      <trkpt lat="47.53234" lon="-2.29485">
        <ele>11.67</ele>
        <time>2014-09-21T06:04:31Z</time>
      </trkpt>
      <trkpt lat="47.53232" lon="-2.295">
        <ele>13.12</ele>
        <time>2014-09-21T06:04:36Z</time>
      </trkpt>
      <trkpt lat="47.5323" lon="-2.29514">
        <ele>15.04</ele>
        <time>2014-09-21T06:04:41Z</time>
      </trkpt>
      <trkpt lat="47.53229" lon="-2.29531">
        <ele>17.44</ele>
        <time>2014-09-21T06:04:47Z</time>
      </trkpt>
      <trkpt lat="47.53229" lon="-2.29548">
        <ele>19.84</ele>
        <time>2014-09-21T06:04:53Z</time>
      </trkpt>
      <trkpt lat="47.53228" lon="-2.29563">
        <ele>22.25</ele>
        <time>2014-09-21T06:04:58Z</time>
      </trkpt>
      <trkpt lat="47.53227" lon="-2.29581">
        <ele>25.61</ele>
        <time>2014-09-21T06:05:04Z</time>
      </trkpt>
      <trkpt lat="47.53224" lon="-2.29595">
        <ele>27.53</ele>
        <time>2014-09-21T06:05:09Z</time>
      </trkpt>
      <trkpt lat="47.53222" lon="-2.2961">
        <ele>29.94</ele>
        <time>2014-09-21T06:05:14Z</time>
      </trkpt>
      <trkpt lat="47.53222" lon="-2.29626">
        <ele>30.42</ele>
        <time>2014-09-21T06:05:19Z</time>
      </trkpt>
      <trkpt lat="47.53221" lon="-2.29642">
        <ele>31.86</ele>
        <time>2014-09-21T06:05:24Z</time>
      </trkpt>
      <trkpt lat="47.53221" lon="-2.29658">
        <ele>33.3</ele>
        <time>2014-09-21T06:05:29Z</time>
      </trkpt>
      <trkpt lat="47.53222" lon="-2.29672">
        <ele>34.26</ele>
        <time>2014-09-21T06:05:34Z</time>
      </trkpt>
      <trkpt lat="47.53227" lon="-2.29681">
        <ele>34.74</ele>
        <time>2014-09-21T06:05:41Z</time>
      </trkpt>
      <trkpt lat="47.53235" lon="-2.29695">
        <ele>33.3</ele>
        <time>2014-09-21T06:05:45Z</time>
      </trkpt>
      <trkpt lat="47.53246" lon="-2.297">
        <ele>32.34</ele>
        <time>2014-09-21T06:05:48Z</time>
      </trkpt>
      <trkpt lat="47.53257" lon="-2.29701">
        <ele>31.86</ele>
        <time>2014-09-21T06:05:50Z</time>
      </trkpt>
      <trkpt lat="47.53269" lon="-2.29701">
        <ele>31.86</ele>
        <time>2014-09-21T06:05:52Z</time>
      </trkpt>
      <trkpt lat="47.5328" lon="-2.297">
        <ele>31.38</ele>
        <time>2014-09-21T06:05:54Z</time>
      </trkpt>
      <trkpt lat="47.53291" lon="-2.29702">
        <ele>30.9</ele>
        <time>2014-09-21T06:05:57Z</time>
      </trkpt>
      <trkpt lat="47.53301" lon="-2.29707">
        <ele>29.46</ele>
        <time>2014-09-21T06:06:00Z</time>
      </trkpt>
      <trkpt lat="47.53313" lon="-2.29713">
        <ele>27.53</ele>
        <time>2014-09-21T06:06:03Z</time>
      </trkpt>
      <trkpt lat="47.53324" lon="-2.29719">
        <ele>26.09</ele>
        <time>2014-09-21T06:06:05Z</time>
      </trkpt>
      <trkpt lat="47.53339" lon="-2.29726">
        <ele>23.69</ele>
        <time>2014-09-21T06:06:08Z</time>
      </trkpt>
      <trkpt lat="47.5335" lon="-2.2973">
        <ele>21.29</ele>
        <time>2014-09-21T06:06:10Z</time>
      </trkpt>
      <trkpt lat="47.53366" lon="-2.29737">
        <ele>16.48</ele>
        <time>2014-09-21T06:06:13Z</time>
      </trkpt>
      <trkpt lat="47.53375" lon="-2.29749">
        <ele>12.63</ele>
        <time>2014-09-21T06:06:15Z</time>
      </trkpt>
      <trkpt lat="47.53382" lon="-2.29766">
        <ele>9.75</ele>
        <time>2014-09-21T06:06:18Z</time>
      </trkpt>
      <trkpt lat="47.53387" lon="-2.29782">
        <ele>8.31</ele>
        <time>2014-09-21T06:06:21Z</time>
      </trkpt>
      <trkpt lat="47.53392" lon="-2.29799">
        <ele>8.31</ele>
        <time>2014-09-21T06:06:25Z</time>
      </trkpt>
      <trkpt lat="47.53395" lon="-2.29813">
        <ele>8.31</ele>
        <time>2014-09-21T06:06:29Z</time>
      </trkpt>
      <trkpt lat="47.53397" lon="-2.29831">
        <ele>7.83</ele>
        <time>2014-09-21T06:06:34Z</time>
      </trkpt>
      <trkpt lat="47.53396" lon="-2.29849">
        <ele>7.35</ele>
        <time>2014-09-21T06:06:39Z</time>
      </trkpt>
      <trkpt lat="47.53397" lon="-2.29863">
        <ele>6.39</ele>
        <time>2014-09-21T06:06:43Z</time>
      </trkpt>
      <trkpt lat="47.53404" lon="-2.29875">
        <ele>5.42</ele>
        <time>2014-09-21T06:06:48Z</time>
      </trkpt>
      <trkpt lat="47.53413" lon="-2.29867">
        <ele>5.42</ele>
        <time>2014-09-21T06:06:52Z</time>
      </trkpt>
      <trkpt lat="47.5342" lon="-2.29858">
        <ele>4.94</ele>
        <time>2014-09-21T06:06:55Z</time>
      </trkpt>
      <trkpt lat="47.53426" lon="-2.29842">
        <ele>4.94</ele>
        <time>2014-09-21T06:06:58Z</time>
      </trkpt>
      <trkpt lat="47.5343" lon="-2.29828">
        <ele>4.46</ele>
        <time>2014-09-21T06:07:01Z</time>
      </trkpt>
      <trkpt lat="47.5344" lon="-2.2983">
        <ele>3.98</ele>
        <time>2014-09-21T06:07:05Z</time>
      </trkpt>
      <trkpt lat="47.53447" lon="-2.29839">
        <ele>3.98</ele>
        <time>2014-09-21T06:07:08Z</time>
      </trkpt>
      <trkpt lat="47.53453" lon="-2.2985">
        <ele>3.98</ele>
        <time>2014-09-21T06:07:11Z</time>
      </trkpt>
      <trkpt lat="47.5345" lon="-2.29865">
        <ele>3.5</ele>
        <time>2014-09-21T06:07:15Z</time>
      </trkpt>
      <trkpt lat="47.53443" lon="-2.29879">
        <ele>3.5</ele>
        <time>2014-09-21T06:07:19Z</time>
      </trkpt>
      <trkpt lat="47.53438" lon="-2.29894">
        <ele>3.5</ele>
        <time>2014-09-21T06:07:22Z</time>
      </trkpt>
      <trkpt lat="47.53437" lon="-2.29908">
        <ele>3.5</ele>
        <time>2014-09-21T06:07:25Z</time>
      </trkpt>
      <trkpt lat="47.53438" lon="-2.29924">
        <ele>3.5</ele>
        <time>2014-09-21T06:07:28Z</time>
      </trkpt>
      <trkpt lat="47.53441" lon="-2.29938">
        <ele>3.02</ele>
        <time>2014-09-21T06:07:31Z</time>
      </trkpt>
      <trkpt lat="47.53446" lon="-2.29953">
        <ele>3.02</ele>
        <time>2014-09-21T06:07:35Z</time>
      </trkpt>
      <trkpt lat="47.53451" lon="-2.29964">
        <ele>3.5</ele>
        <time>2014-09-21T06:07:38Z</time>
      </trkpt>
      <trkpt lat="47.53453" lon="-2.29976">
        <ele>4.46</ele>
        <time>2014-09-21T06:07:41Z</time>
      </trkpt>
      <trkpt lat="47.53454" lon="-2.29995">
        <ele>3.5</ele>
        <time>2014-09-21T06:07:45Z</time>
      </trkpt>
      <trkpt lat="47.53463" lon="-2.30009">
        <ele>2.54</ele>
        <time>2014-09-21T06:07:48Z</time>
      </trkpt>
      <trkpt lat="47.53474" lon="-2.30015">
        <ele>2.54</ele>
        <time>2014-09-21T06:07:51Z</time>
      </trkpt>
      <trkpt lat="47.53484" lon="-2.3002">
        <ele>2.54</ele>
        <time>2014-09-21T06:07:54Z</time>
      </trkpt>
      <trkpt lat="47.53495" lon="-2.30024">
        <ele>2.54</ele>
        <time>2014-09-21T06:07:58Z</time>
      </trkpt>
      <trkpt lat="47.53504" lon="-2.30023">
        <ele>2.06</ele>
        <time>2014-09-21T06:08:01Z</time>
      </trkpt>
      <trkpt lat="47.53514" lon="-2.30014">
        <ele>2.06</ele>
        <time>2014-09-21T06:08:04Z</time>
      </trkpt>
      <trkpt lat="47.53524" lon="-2.30003">
        <ele>2.06</ele>
        <time>2014-09-21T06:08:07Z</time>
      </trkpt>
      <trkpt lat="47.53535" lon="-2.29995">
        <ele>2.54</ele>
        <time>2014-09-21T06:08:10Z</time>
      </trkpt>
      <trkpt lat="47.53547" lon="-2.2999">
        <ele>3.02</ele>
        <time>2014-09-21T06:08:13Z</time>
      </trkpt>
      <trkpt lat="47.53559" lon="-2.29984">
        <ele>3.98</ele>
        <time>2014-09-21T06:08:16Z</time>
      </trkpt>
      <trkpt lat="47.5357" lon="-2.29975">
        <ele>4.46</ele>
        <time>2014-09-21T06:08:19Z</time>
      </trkpt>
      <trkpt lat="47.53579" lon="-2.29963">
        <ele>5.42</ele>
        <time>2014-09-21T06:08:22Z</time>
      </trkpt>
      <trkpt lat="47.53585" lon="-2.29954">
        <ele>6.39</ele>
        <time>2014-09-21T06:08:25Z</time>
      </trkpt>
      <trkpt lat="47.53593" lon="-2.29946">
        <ele>6.39</ele>
        <time>2014-09-21T06:08:28Z</time>
      </trkpt>
      <trkpt lat="47.53605" lon="-2.29928">
        <ele>6.39</ele>
        <time>2014-09-21T06:08:31Z</time>
      </trkpt>
      <trkpt lat="47.5361" lon="-2.29913">
        <ele>6.39</ele>
        <time>2014-09-21T06:08:33Z</time>
      </trkpt>
      <trkpt lat="47.53612" lon="-2.29898">
        <ele>6.39</ele>
        <time>2014-09-21T06:08:35Z</time>
      </trkpt>
      <trkpt lat="47.53613" lon="-2.29883">
        <ele>6.39</ele>
        <time>2014-09-21T06:08:37Z</time>
      </trkpt>
      <trkpt lat="47.53613" lon="-2.29869">
        <ele>5.91</ele>
        <time>2014-09-21T06:08:39Z</time>
      </trkpt>
      <trkpt lat="47.53611" lon="-2.29849">
        <ele>4.94</ele>
        <time>2014-09-21T06:08:42Z</time>
      </trkpt>
      <trkpt lat="47.53608" lon="-2.29836">
        <ele>4.46</ele>
        <time>2014-09-21T06:08:44Z</time>
      </trkpt>
      <trkpt lat="47.53606" lon="-2.29816">
        <ele>3.5</ele>
        <time>2014-09-21T06:08:47Z</time>
      </trkpt>
      <trkpt lat="47.53606" lon="-2.29797">
        <ele>3.02</ele>
        <time>2014-09-21T06:08:50Z</time>
      </trkpt>
      <trkpt lat="47.53607" lon="-2.29778">
        <ele>3.02</ele>
        <time>2014-09-21T06:08:53Z</time>
      </trkpt>
      <trkpt lat="47.53609" lon="-2.29758">
        <ele>2.54</ele>
        <time>2014-09-21T06:08:56Z</time>
      </trkpt>
      <trkpt lat="47.53611" lon="-2.29739">
        <ele>2.54</ele>
        <time>2014-09-21T06:08:59Z</time>
      </trkpt>
      <trkpt lat="47.53615" lon="-2.2972">
        <ele>2.54</ele>
        <time>2014-09-21T06:09:02Z</time>
      </trkpt>
      <trkpt lat="47.5362" lon="-2.29702">
        <ele>2.06</ele>
        <time>2014-09-21T06:09:05Z</time>
      </trkpt>
      <trkpt lat="47.53626" lon="-2.29685">
        <ele>2.06</ele>
        <time>2014-09-21T06:09:08Z</time>
      </trkpt>
      <trkpt lat="47.53633" lon="-2.29669">
        <ele>2.54</ele>
        <time>2014-09-21T06:09:11Z</time>
      </trkpt>
      <trkpt lat="47.53641" lon="-2.29654">
        <ele>3.5</ele>
        <time>2014-09-21T06:09:14Z</time>
      </trkpt>
      <trkpt lat="47.53649" lon="-2.29639">
        <ele>3.98</ele>
        <time>2014-09-21T06:09:17Z</time>
      </trkpt>
      <trkpt lat="47.53655" lon="-2.29629">
        <ele>4.46</ele>
        <time>2014-09-21T06:09:19Z</time>
      </trkpt>
      <trkpt lat="47.53664" lon="-2.29616">
        <ele>4.94</ele>
        <time>2014-09-21T06:09:22Z</time>
      </trkpt>
      <trkpt lat="47.53672" lon="-2.29603">
        <ele>4.94</ele>
        <time>2014-09-21T06:09:25Z</time>
      </trkpt>
      <trkpt lat="47.53681" lon="-2.29589">
        <ele>5.42</ele>
        <time>2014-09-21T06:09:28Z</time>
      </trkpt>
      <trkpt lat="47.5369" lon="-2.29574">
        <ele>5.42</ele>
        <time>2014-09-21T06:09:31Z</time>
      </trkpt>
      <trkpt lat="47.53699" lon="-2.2956">
        <ele>5.91</ele>
        <time>2014-09-21T06:09:34Z</time>
      </trkpt>
      <trkpt lat="47.53708" lon="-2.29547">
        <ele>5.91</ele>
        <time>2014-09-21T06:09:37Z</time>
      </trkpt>
      <trkpt lat="47.53715" lon="-2.29533">
        <ele>6.87</ele>
        <time>2014-09-21T06:09:40Z</time>
      </trkpt>
      <trkpt lat="47.53722" lon="-2.29521">
        <ele>7.35</ele>
        <time>2014-09-21T06:09:43Z</time>
      </trkpt>
      <trkpt lat="47.53727" lon="-2.29507">
        <ele>7.83</ele>
        <time>2014-09-21T06:09:46Z</time>
      </trkpt>
      <trkpt lat="47.53732" lon="-2.29494">
        <ele>8.79</ele>
        <time>2014-09-21T06:09:50Z</time>
      </trkpt>
      <trkpt lat="47.53741" lon="-2.29489">
        <ele>9.27</ele>
        <time>2014-09-21T06:09:53Z</time>
      </trkpt>
      <trkpt lat="47.53752" lon="-2.29483">
        <ele>9.27</ele>
        <time>2014-09-21T06:09:56Z</time>
      </trkpt>
      <trkpt lat="47.53762" lon="-2.29479">
        <ele>8.31</ele>
        <time>2014-09-21T06:09:59Z</time>
      </trkpt>
      <trkpt lat="47.53774" lon="-2.29476">
        <ele>7.35</ele>
        <time>2014-09-21T06:10:02Z</time>
      </trkpt>
      <trkpt lat="47.53784" lon="-2.29476">
        <ele>6.87</ele>
        <time>2014-09-21T06:10:04Z</time>
      </trkpt>
      <trkpt lat="47.53796" lon="-2.29475">
        <ele>6.87</ele>
        <time>2014-09-21T06:10:07Z</time>
      </trkpt>
      <trkpt lat="47.53802" lon="-2.2949">
        <ele>8.31</ele>
        <time>2014-09-21T06:10:12Z</time>
      </trkpt>
      <trkpt lat="47.53808" lon="-2.29507">
        <ele>10.23</ele>
        <time>2014-09-21T06:10:17Z</time>
      </trkpt>
      <trkpt lat="47.53813" lon="-2.29522">
        <ele>14.08</ele>
        <time>2014-09-21T06:10:22Z</time>
      </trkpt>
      <trkpt lat="47.53816" lon="-2.29537">
        <ele>17.44</ele>
        <time>2014-09-21T06:10:27Z</time>
      </trkpt>
      <trkpt lat="47.53818" lon="-2.29555">
        <ele>19.36</ele>
        <time>2014-09-21T06:10:32Z</time>
      </trkpt>
      <trkpt lat="47.53821" lon="-2.29572">
        <ele>20.32</ele>
        <time>2014-09-21T06:10:36Z</time>
      </trkpt>
      <trkpt lat="47.53827" lon="-2.29589">
        <ele>22.25</ele>
        <time>2014-09-21T06:10:40Z</time>
      </trkpt>
      <trkpt lat="47.53835" lon="-2.29603">
        <ele>23.21</ele>
        <time>2014-09-21T06:10:44Z</time>
      </trkpt>
      <trkpt lat="47.53839" lon="-2.29618">
        <ele>24.17</ele>
        <time>2014-09-21T06:10:47Z</time>
      </trkpt>
      <trkpt lat="47.5384" lon="-2.29633">
        <ele>25.13</ele>
        <time>2014-09-21T06:10:50Z</time>
      </trkpt>
      <trkpt lat="47.53836" lon="-2.29645">
        <ele>25.13</ele>
        <time>2014-09-21T06:10:53Z</time>
      </trkpt>
      <trkpt lat="47.53825" lon="-2.2965">
        <ele>23.69</ele>
        <time>2014-09-21T06:10:56Z</time>
      </trkpt>
      <trkpt lat="47.53816" lon="-2.29654">
        <ele>22.73</ele>
        <time>2014-09-21T06:10:58Z</time>
      </trkpt>
      <trkpt lat="47.53803" lon="-2.29661">
        <ele>22.73</ele>
        <time>2014-09-21T06:11:01Z</time>
      </trkpt>
      <trkpt lat="47.53793" lon="-2.29663">
        <ele>22.73</ele>
        <time>2014-09-21T06:11:03Z</time>
      </trkpt>
      <trkpt lat="47.53783" lon="-2.29664">
        <ele>22.25</ele>
        <time>2014-09-21T06:11:05Z</time>
      </trkpt>
      <trkpt lat="47.53773" lon="-2.29669">
        <ele>21.77</ele>
        <time>2014-09-21T06:11:07Z</time>
      </trkpt>
      <trkpt lat="47.5377" lon="-2.29681">
        <ele>21.29</ele>
        <time>2014-09-21T06:11:09Z</time>
      </trkpt>
      <trkpt lat="47.53774" lon="-2.29698">
        <ele>21.29</ele>
        <time>2014-09-21T06:11:12Z</time>
      </trkpt>
      <trkpt lat="47.53778" lon="-2.29715">
        <ele>20.81</ele>
        <time>2014-09-21T06:11:15Z</time>
      </trkpt>
      <trkpt lat="47.53783" lon="-2.29731">
        <ele>20.81</ele>
        <time>2014-09-21T06:11:18Z</time>
      </trkpt>
      <trkpt lat="47.53787" lon="-2.29748">
        <ele>20.81</ele>
        <time>2014-09-21T06:11:21Z</time>
      </trkpt>
      <trkpt lat="47.53791" lon="-2.2976">
        <ele>20.32</ele>
        <time>2014-09-21T06:11:23Z</time>
      </trkpt>
      <trkpt lat="47.53794" lon="-2.29774">
        <ele>20.32</ele>
        <time>2014-09-21T06:11:25Z</time>
      </trkpt>
      <trkpt lat="47.538" lon="-2.29793">
        <ele>19.84</ele>
        <time>2014-09-21T06:11:28Z</time>
      </trkpt>
      <trkpt lat="47.53804" lon="-2.29809">
        <ele>18.88</ele>
        <time>2014-09-21T06:11:31Z</time>
      </trkpt>
      <trkpt lat="47.53809" lon="-2.29825">
        <ele>18.4</ele>
        <time>2014-09-21T06:11:34Z</time>
      </trkpt>
      <trkpt lat="47.53814" lon="-2.29842">
        <ele>17.92</ele>
        <time>2014-09-21T06:11:37Z</time>
      </trkpt>
      <trkpt lat="47.53819" lon="-2.29859">
        <ele>17.92</ele>
        <time>2014-09-21T06:11:40Z</time>
      </trkpt>
      <trkpt lat="47.53824" lon="-2.29877">
        <ele>17.44</ele>
        <time>2014-09-21T06:11:43Z</time>
      </trkpt>
      <trkpt lat="47.53828" lon="-2.2989">
        <ele>16.96</ele>
        <time>2014-09-21T06:11:45Z</time>
      </trkpt>
      <trkpt lat="47.53831" lon="-2.29903">
        <ele>16.48</ele>
        <time>2014-09-21T06:11:47Z</time>
      </trkpt>
      <trkpt lat="47.53834" lon="-2.29917">
        <ele>16</ele>
        <time>2014-09-21T06:11:49Z</time>
      </trkpt>
      <trkpt lat="47.53837" lon="-2.2993">
        <ele>15.52</ele>
        <time>2014-09-21T06:11:51Z</time>
      </trkpt>
      <trkpt lat="47.5384" lon="-2.29945">
        <ele>14.56</ele>
        <time>2014-09-21T06:11:53Z</time>
      </trkpt>
      <trkpt lat="47.53844" lon="-2.29959">
        <ele>14.08</ele>
        <time>2014-09-21T06:11:55Z</time>
      </trkpt>
      <trkpt lat="47.53847" lon="-2.29974">
        <ele>13.6</ele>
        <time>2014-09-21T06:11:57Z</time>
      </trkpt>
      <trkpt lat="47.5385" lon="-2.29988">
        <ele>12.63</ele>
        <time>2014-09-21T06:11:59Z</time>
      </trkpt>
      <trkpt lat="47.53856" lon="-2.29998">
        <ele>12.15</ele>
        <time>2014-09-21T06:12:01Z</time>
      </trkpt>
      <trkpt lat="47.53864" lon="-2.3">
        <ele>12.15</ele>
        <time>2014-09-21T06:12:03Z</time>
      </trkpt>
      <trkpt lat="47.53873" lon="-2.29994">
        <ele>12.15</ele>
        <time>2014-09-21T06:12:05Z</time>
      </trkpt>
      <trkpt lat="47.53883" lon="-2.29986">
        <ele>12.15</ele>
        <time>2014-09-21T06:12:07Z</time>
      </trkpt>
      <trkpt lat="47.53892" lon="-2.29979">
        <ele>12.15</ele>
        <time>2014-09-21T06:12:09Z</time>
      </trkpt>
      <trkpt lat="47.53901" lon="-2.29972">
        <ele>12.63</ele>
        <time>2014-09-21T06:12:11Z</time>
      </trkpt>
      <trkpt lat="47.5391" lon="-2.29966">
        <ele>13.6</ele>
        <time>2014-09-21T06:12:13Z</time>
      </trkpt>
      <trkpt lat="47.53919" lon="-2.2996">
        <ele>14.08</ele>
        <time>2014-09-21T06:12:15Z</time>
      </trkpt>
      <trkpt lat="47.53927" lon="-2.29954">
        <ele>15.04</ele>
        <time>2014-09-21T06:12:17Z</time>
      </trkpt>
      <trkpt lat="47.53935" lon="-2.29947">
        <ele>15.52</ele>
        <time>2014-09-21T06:12:19Z</time>
      </trkpt>
      <trkpt lat="47.53943" lon="-2.29941">
        <ele>16</ele>
        <time>2014-09-21T06:12:21Z</time>
      </trkpt>
      <trkpt lat="47.53955" lon="-2.29932">
        <ele>16.96</ele>
        <time>2014-09-21T06:12:24Z</time>
      </trkpt>
      <trkpt lat="47.53966" lon="-2.29924">
        <ele>17.44</ele>
        <time>2014-09-21T06:12:27Z</time>
      </trkpt>
      <trkpt lat="47.53978" lon="-2.29917">
        <ele>17.92</ele>
        <time>2014-09-21T06:12:30Z</time>
      </trkpt>
      <trkpt lat="47.53987" lon="-2.29921">
        <ele>17.92</ele>
        <time>2014-09-21T06:12:33Z</time>
      </trkpt>
      <trkpt lat="47.53991" lon="-2.29939">
        <ele>16.96</ele>
        <time>2014-09-21T06:12:36Z</time>
      </trkpt>
      <trkpt lat="47.53993" lon="-2.29954">
        <ele>16</ele>
        <time>2014-09-21T06:12:38Z</time>
      </trkpt>
      <trkpt lat="47.53996" lon="-2.29969">
        <ele>15.52</ele>
        <time>2014-09-21T06:12:40Z</time>
      </trkpt>
      <trkpt lat="47.53998" lon="-2.29984">
        <ele>15.04</ele>
        <time>2014-09-21T06:12:42Z</time>
      </trkpt>
      <trkpt lat="47.54001" lon="-2.29998">
        <ele>15.04</ele>
        <time>2014-09-21T06:12:44Z</time>
      </trkpt>
      <trkpt lat="47.54004" lon="-2.30011">
        <ele>15.04</ele>
        <time>2014-09-21T06:12:46Z</time>
      </trkpt>
      <trkpt lat="47.54006" lon="-2.30024">
        <ele>15.04</ele>
        <time>2014-09-21T06:12:48Z</time>
      </trkpt>
      <trkpt lat="47.54009" lon="-2.30038">
        <ele>15.04</ele>
        <time>2014-09-21T06:12:50Z</time>
      </trkpt>
      <trkpt lat="47.54011" lon="-2.30052">
        <ele>14.56</ele>
        <time>2014-09-21T06:12:52Z</time>
      </trkpt>
      <trkpt lat="47.54014" lon="-2.30066">
        <ele>14.56</ele>
        <time>2014-09-21T06:12:54Z</time>
      </trkpt>
      <trkpt lat="47.54016" lon="-2.30081">
        <ele>15.04</ele>
        <time>2014-09-21T06:12:56Z</time>
      </trkpt>
      <trkpt lat="47.54019" lon="-2.30095">
        <ele>14.56</ele>
        <time>2014-09-21T06:12:58Z</time>
      </trkpt>
      <trkpt lat="47.54021" lon="-2.30109">
        <ele>14.08</ele>
        <time>2014-09-21T06:13:00Z</time>
      </trkpt>
      <trkpt lat="47.54024" lon="-2.30123">
        <ele>14.08</ele>
        <time>2014-09-21T06:13:02Z</time>
      </trkpt>
      <trkpt lat="47.54026" lon="-2.30136">
        <ele>13.6</ele>
        <time>2014-09-21T06:13:04Z</time>
      </trkpt>
      <trkpt lat="47.54029" lon="-2.30149">
        <ele>13.6</ele>
        <time>2014-09-21T06:13:06Z</time>
      </trkpt>
      <trkpt lat="47.54031" lon="-2.30163">
        <ele>13.6</ele>
        <time>2014-09-21T06:13:08Z</time>
      </trkpt>
      <trkpt lat="47.54034" lon="-2.30177">
        <ele>13.12</ele>
        <time>2014-09-21T06:13:10Z</time>
      </trkpt>
      <trkpt lat="47.54036" lon="-2.3019">
        <ele>12.63</ele>
        <time>2014-09-21T06:13:12Z</time>
      </trkpt>
      <trkpt lat="47.5404" lon="-2.30209">
        <ele>12.63</ele>
        <time>2014-09-21T06:13:15Z</time>
      </trkpt>
      <trkpt lat="47.54044" lon="-2.30226">
        <ele>12.15</ele>
        <time>2014-09-21T06:13:18Z</time>
      </trkpt>
      <trkpt lat="47.54052" lon="-2.30238">
        <ele>12.63</ele>
        <time>2014-09-21T06:13:21Z</time>
      </trkpt>
      <trkpt lat="47.54063" lon="-2.3024">
        <ele>13.6</ele>
        <time>2014-09-21T06:13:24Z</time>
      </trkpt>
      <trkpt lat="47.54075" lon="-2.30235">
        <ele>14.08</ele>
        <time>2014-09-21T06:13:27Z</time>
      </trkpt>
      <trkpt lat="47.54087" lon="-2.3023">
        <ele>15.04</ele>
        <time>2014-09-21T06:13:30Z</time>
      </trkpt>
      <trkpt lat="47.54099" lon="-2.30225">
        <ele>16</ele>
        <time>2014-09-21T06:13:33Z</time>
      </trkpt>
      <trkpt lat="47.5411" lon="-2.3022">
        <ele>16.96</ele>
        <time>2014-09-21T06:13:36Z</time>
      </trkpt>
      <trkpt lat="47.54124" lon="-2.30216">
        <ele>17.92</ele>
        <time>2014-09-21T06:13:39Z</time>
      </trkpt>
      <trkpt lat="47.54135" lon="-2.30211">
        <ele>19.36</ele>
        <time>2014-09-21T06:13:42Z</time>
      </trkpt>
      <trkpt lat="47.54147" lon="-2.30206">
        <ele>20.81</ele>
        <time>2014-09-21T06:13:45Z</time>
      </trkpt>
      <trkpt lat="47.5416" lon="-2.30202">
        <ele>21.77</ele>
        <time>2014-09-21T06:13:48Z</time>
      </trkpt>
      <trkpt lat="47.5417" lon="-2.302">
        <ele>22.25</ele>
        <time>2014-09-21T06:13:50Z</time>
      </trkpt>
      <trkpt lat="47.5418" lon="-2.302">
        <ele>22.73</ele>
        <time>2014-09-21T06:13:52Z</time>
      </trkpt>
      <trkpt lat="47.5419" lon="-2.302">
        <ele>22.73</ele>
        <time>2014-09-21T06:13:54Z</time>
      </trkpt>
      <trkpt lat="47.542" lon="-2.302">
        <ele>22.73</ele>
        <time>2014-09-21T06:13:56Z</time>
      </trkpt>
      <trkpt lat="47.5421" lon="-2.30199">
        <ele>22.25</ele>
        <time>2014-09-21T06:13:58Z</time>
      </trkpt>
      <trkpt lat="47.5422" lon="-2.30199">
        <ele>22.25</ele>
        <time>2014-09-21T06:14:00Z</time>
      </trkpt>
      <trkpt lat="47.5423" lon="-2.30199">
        <ele>21.77</ele>
        <time>2014-09-21T06:14:02Z</time>
      </trkpt>
      <trkpt lat="47.54241" lon="-2.30199">
        <ele>21.29</ele>
        <time>2014-09-21T06:14:04Z</time>
      </trkpt>
      <trkpt lat="47.54253" lon="-2.30199">
        <ele>20.32</ele>
        <time>2014-09-21T06:14:06Z</time>
      </trkpt>
      <trkpt lat="47.54265" lon="-2.30199">
        <ele>19.84</ele>
        <time>2014-09-21T06:14:08Z</time>
      </trkpt>
      <trkpt lat="47.54277" lon="-2.30198">
        <ele>19.36</ele>
        <time>2014-09-21T06:14:10Z</time>
      </trkpt>
      <trkpt lat="47.54289" lon="-2.30199">
        <ele>19.36</ele>
        <time>2014-09-21T06:14:12Z</time>
      </trkpt>
      <trkpt lat="47.543" lon="-2.30198">
        <ele>18.88</ele>
        <time>2014-09-21T06:14:14Z</time>
      </trkpt>
      <trkpt lat="47.5431" lon="-2.30198">
        <ele>19.36</ele>
        <time>2014-09-21T06:14:16Z</time>
      </trkpt>
      <trkpt lat="47.5432" lon="-2.30198">
        <ele>20.32</ele>
        <time>2014-09-21T06:14:18Z</time>
      </trkpt>
      <trkpt lat="47.54329" lon="-2.30197">
        <ele>20.81</ele>
        <time>2014-09-21T06:14:20Z</time>
      </trkpt>
      <trkpt lat="47.54339" lon="-2.30197">
        <ele>20.81</ele>
        <time>2014-09-21T06:14:22Z</time>
      </trkpt>
      <trkpt lat="47.54352" lon="-2.30198">
        <ele>20.32</ele>
        <time>2014-09-21T06:14:25Z</time>
      </trkpt>
      <trkpt lat="47.54366" lon="-2.30198">
        <ele>20.32</ele>
        <time>2014-09-21T06:14:28Z</time>
      </trkpt>
      <trkpt lat="47.54375" lon="-2.30199">
        <ele>19.36</ele>
        <time>2014-09-21T06:14:30Z</time>
      </trkpt>
      <trkpt lat="47.54386" lon="-2.30198">
        <ele>18.88</ele>
        <time>2014-09-21T06:14:32Z</time>
      </trkpt>
      <trkpt lat="47.54397" lon="-2.30198">
        <ele>17.44</ele>
        <time>2014-09-21T06:14:34Z</time>
      </trkpt>
      <trkpt lat="47.5441" lon="-2.30198">
        <ele>16.48</ele>
        <time>2014-09-21T06:14:36Z</time>
      </trkpt>
      <trkpt lat="47.54423" lon="-2.30198">
        <ele>15.52</ele>
        <time>2014-09-21T06:14:38Z</time>
      </trkpt>
      <trkpt lat="47.54437" lon="-2.30198">
        <ele>14.56</ele>
        <time>2014-09-21T06:14:40Z</time>
      </trkpt>
      <trkpt lat="47.54452" lon="-2.30198">
        <ele>13.6</ele>
        <time>2014-09-21T06:14:42Z</time>
      </trkpt>
      <trkpt lat="47.54467" lon="-2.30198">
        <ele>13.6</ele>
        <time>2014-09-21T06:14:44Z</time>
      </trkpt>
      <trkpt lat="47.5448" lon="-2.30197">
        <ele>13.6</ele>
        <time>2014-09-21T06:14:46Z</time>
      </trkpt>
      <trkpt lat="47.54491" lon="-2.30196">
        <ele>13.6</ele>
        <time>2014-09-21T06:14:48Z</time>
      </trkpt>
      <trkpt lat="47.545" lon="-2.3019">
        <ele>13.6</ele>
        <time>2014-09-21T06:14:50Z</time>
      </trkpt>
      <trkpt lat="47.54504" lon="-2.30175">
        <ele>14.08</ele>
        <time>2014-09-21T06:14:53Z</time>
      </trkpt>
      <trkpt lat="47.54505" lon="-2.30159">
        <ele>15.52</ele>
        <time>2014-09-21T06:14:56Z</time>
      </trkpt>
      <trkpt lat="47.54505" lon="-2.30145">
        <ele>16</ele>
        <time>2014-09-21T06:14:59Z</time>
      </trkpt>
      <trkpt lat="47.54505" lon="-2.30131">
        <ele>16.96</ele>
        <time>2014-09-21T06:15:02Z</time>
      </trkpt>
      <trkpt lat="47.54505" lon="-2.30117">
        <ele>17.92</ele>
        <time>2014-09-21T06:15:05Z</time>
      </trkpt>
      <trkpt lat="47.54505" lon="-2.30103">
        <ele>19.36</ele>
        <time>2014-09-21T06:15:08Z</time>
      </trkpt>
      <trkpt lat="47.54506" lon="-2.30089">
        <ele>20.81</ele>
        <time>2014-09-21T06:15:11Z</time>
      </trkpt>
      <trkpt lat="47.54506" lon="-2.30075">
        <ele>22.25</ele>
        <time>2014-09-21T06:15:14Z</time>
      </trkpt>
      <trkpt lat="47.54506" lon="-2.30062">
        <ele>23.21</ele>
        <time>2014-09-21T06:15:17Z</time>
      </trkpt>
      <trkpt lat="47.54506" lon="-2.30048">
        <ele>23.69</ele>
        <time>2014-09-21T06:15:20Z</time>
      </trkpt>
      <trkpt lat="47.54507" lon="-2.3003">
        <ele>25.13</ele>
        <time>2014-09-21T06:15:24Z</time>
      </trkpt>
      <trkpt lat="47.54507" lon="-2.30017">
        <ele>25.61</ele>
        <time>2014-09-21T06:15:27Z</time>
      </trkpt>
      <trkpt lat="47.54507" lon="-2.30003">
        <ele>26.09</ele>
        <time>2014-09-21T06:15:30Z</time>
      </trkpt>
      <trkpt lat="47.54507" lon="-2.29986">
        <ele>27.05</ele>
        <time>2014-09-21T06:15:34Z</time>
      </trkpt>
      <trkpt lat="47.54507" lon="-2.29968">
        <ele>27.53</ele>
        <time>2014-09-21T06:15:38Z</time>
      </trkpt>
      <trkpt lat="47.54507" lon="-2.29954">
        <ele>28.5</ele>
        <time>2014-09-21T06:15:41Z</time>
      </trkpt>
      <trkpt lat="47.54508" lon="-2.29937">
        <ele>28.98</ele>
        <time>2014-09-21T06:15:45Z</time>
      </trkpt>
      <trkpt lat="47.54508" lon="-2.29923">
        <ele>29.46</ele>
        <time>2014-09-21T06:15:48Z</time>
      </trkpt>
      <trkpt lat="47.5451" lon="-2.29909">
        <ele>29.94</ele>
        <time>2014-09-21T06:15:51Z</time>
      </trkpt>
      <trkpt lat="47.54511" lon="-2.29891">
        <ele>30.9</ele>
        <time>2014-09-21T06:15:55Z</time>
      </trkpt>
      <trkpt lat="47.54511" lon="-2.29877">
        <ele>30.9</ele>
        <time>2014-09-21T06:15:58Z</time>
      </trkpt>
      <trkpt lat="47.54512" lon="-2.29862">
        <ele>31.38</ele>
        <time>2014-09-21T06:16:01Z</time>
      </trkpt>
      <trkpt lat="47.54514" lon="-2.29848">
        <ele>31.38</ele>
        <time>2014-09-21T06:16:04Z</time>
      </trkpt>
      <trkpt lat="47.54517" lon="-2.29835">
        <ele>31.86</ele>
        <time>2014-09-21T06:16:07Z</time>
      </trkpt>
      <trkpt lat="47.54522" lon="-2.29822">
        <ele>32.82</ele>
        <time>2014-09-21T06:16:10Z</time>
      </trkpt>
      <trkpt lat="47.54528" lon="-2.29811">
        <ele>34.26</ele>
        <time>2014-09-21T06:16:13Z</time>
      </trkpt>
      <trkpt lat="47.54537" lon="-2.29801">
        <ele>36.19</ele>
        <time>2014-09-21T06:16:17Z</time>
      </trkpt>
      <trkpt lat="47.54545" lon="-2.29799">
        <ele>36.67</ele>
        <time>2014-09-21T06:16:20Z</time>
      </trkpt>
      <trkpt lat="47.54557" lon="-2.29802">
        <ele>37.15</ele>
        <time>2014-09-21T06:16:24Z</time>
      </trkpt>
      <trkpt lat="47.54566" lon="-2.29805">
        <ele>38.11</ele>
        <time>2014-09-21T06:16:27Z</time>
      </trkpt>
      <trkpt lat="47.54578" lon="-2.29808">
        <ele>38.59</ele>
        <time>2014-09-21T06:16:31Z</time>
      </trkpt>
      <trkpt lat="47.54588" lon="-2.29809">
        <ele>39.07</ele>
        <time>2014-09-21T06:16:34Z</time>
      </trkpt>
      <trkpt lat="47.54599" lon="-2.29811">
        <ele>39.55</ele>
        <time>2014-09-21T06:16:37Z</time>
      </trkpt>
      <trkpt lat="47.5461" lon="-2.29814">
        <ele>39.07</ele>
        <time>2014-09-21T06:16:40Z</time>
      </trkpt>
      <trkpt lat="47.54621" lon="-2.29816">
        <ele>39.55</ele>
        <time>2014-09-21T06:16:43Z</time>
      </trkpt>
      <trkpt lat="47.54631" lon="-2.29819">
        <ele>40.03</ele>
        <time>2014-09-21T06:16:46Z</time>
      </trkpt>
      <trkpt lat="47.54641" lon="-2.29823">
        <ele>40.51</ele>
        <time>2014-09-21T06:16:49Z</time>
      </trkpt>
      <trkpt lat="47.54652" lon="-2.29825">
        <ele>40.51</ele>
        <time>2014-09-21T06:16:52Z</time>
      </trkpt>
      <trkpt lat="47.54661" lon="-2.29827">
        <ele>40.99</ele>
        <time>2014-09-21T06:16:55Z</time>
      </trkpt>
      <trkpt lat="47.54672" lon="-2.29829">
        <ele>40.99</ele>
        <time>2014-09-21T06:16:59Z</time>
      </trkpt>
      <trkpt lat="47.54682" lon="-2.29831">
        <ele>40.99</ele>
        <time>2014-09-21T06:17:03Z</time>
      </trkpt>
      <trkpt lat="47.54689" lon="-2.29838">
        <ele>40.99</ele>
        <time>2014-09-21T06:17:07Z</time>
      </trkpt>
      <trkpt lat="47.54693" lon="-2.29854">
        <ele>40.99</ele>
        <time>2014-09-21T06:17:12Z</time>
      </trkpt>
      <trkpt lat="47.54696" lon="-2.29868">
        <ele>40.51</ele>
        <time>2014-09-21T06:17:16Z</time>
      </trkpt>
      <trkpt lat="47.54697" lon="-2.29882">
        <ele>40.03</ele>
        <time>2014-09-21T06:17:19Z</time>
      </trkpt>
      <trkpt lat="47.54698" lon="-2.29899">
        <ele>39.07</ele>
        <time>2014-09-21T06:17:22Z</time>
      </trkpt>
      <trkpt lat="47.54699" lon="-2.29919">
        <ele>38.11</ele>
        <time>2014-09-21T06:17:25Z</time>
      </trkpt>
      <trkpt lat="47.54701" lon="-2.29934">
        <ele>37.15</ele>
        <time>2014-09-21T06:17:27Z</time>
      </trkpt>
      <trkpt lat="47.54702" lon="-2.29952">
        <ele>36.19</ele>
        <time>2014-09-21T06:17:29Z</time>
      </trkpt>
      <trkpt lat="47.54703" lon="-2.29971">
        <ele>35.23</ele>
        <time>2014-09-21T06:17:31Z</time>
      </trkpt>
      <trkpt lat="47.54705" lon="-2.29992">
        <ele>33.78</ele>
        <time>2014-09-21T06:17:33Z</time>
      </trkpt>
      <trkpt lat="47.54707" lon="-2.30015">
        <ele>32.34</ele>
        <time>2014-09-21T06:17:35Z</time>
      </trkpt>
      <trkpt lat="47.54709" lon="-2.30039">
        <ele>30.9</ele>
        <time>2014-09-21T06:17:37Z</time>
      </trkpt>
      <trkpt lat="47.5471" lon="-2.30065">
        <ele>28.98</ele>
        <time>2014-09-21T06:17:39Z</time>
      </trkpt>
      <trkpt lat="47.54712" lon="-2.30092">
        <ele>26.57</ele>
        <time>2014-09-21T06:17:41Z</time>
      </trkpt>
      <trkpt lat="47.54713" lon="-2.30107">
        <ele>25.61</ele>
        <time>2014-09-21T06:17:42Z</time>
      </trkpt>
      <trkpt lat="47.54714" lon="-2.30122">
        <ele>24.17</ele>
        <time>2014-09-21T06:17:43Z</time>
      </trkpt>
      <trkpt lat="47.54715" lon="-2.30138">
        <ele>22.25</ele>
        <time>2014-09-21T06:17:44Z</time>
      </trkpt>
      <trkpt lat="47.54716" lon="-2.30155">
        <ele>20.81</ele>
        <time>2014-09-21T06:17:45Z</time>
      </trkpt>
      <trkpt lat="47.54718" lon="-2.30172">
        <ele>18.88</ele>
        <time>2014-09-21T06:17:46Z</time>
      </trkpt>
      <trkpt lat="47.54719" lon="-2.30189">
        <ele>17.44</ele>
        <time>2014-09-21T06:17:47Z</time>
      </trkpt>
      <trkpt lat="47.54721" lon="-2.30205">
        <ele>16</ele>
        <time>2014-09-21T06:17:48Z</time>
      </trkpt>
      <trkpt lat="47.54724" lon="-2.30221">
        <ele>14.08</ele>
        <time>2014-09-21T06:17:49Z</time>
      </trkpt>
      <trkpt lat="47.54728" lon="-2.30237">
        <ele>12.63</ele>
        <time>2014-09-21T06:17:50Z</time>
      </trkpt>
      <trkpt lat="47.54732" lon="-2.30252">
        <ele>11.67</ele>
        <time>2014-09-21T06:17:51Z</time>
      </trkpt>
      <trkpt lat="47.54738" lon="-2.30266">
        <ele>10.23</ele>
        <time>2014-09-21T06:17:52Z</time>
      </trkpt>
      <trkpt lat="47.54745" lon="-2.30278">
        <ele>8.79</ele>
        <time>2014-09-21T06:17:53Z</time>
      </trkpt>
      <trkpt lat="47.5476" lon="-2.30293">
        <ele>6.87</ele>
        <time>2014-09-21T06:17:55Z</time>
      </trkpt>
      <trkpt lat="47.54774" lon="-2.30301">
        <ele>4.46</ele>
        <time>2014-09-21T06:17:57Z</time>
      </trkpt>
      <trkpt lat="47.54785" lon="-2.30304">
        <ele>2.06</ele>
        <time>2014-09-21T06:17:59Z</time>
      </trkpt>
      <trkpt lat="47.54796" lon="-2.30304">
        <ele>0.14</ele>
        <time>2014-09-21T06:18:01Z</time>
      </trkpt>
      <trkpt lat="47.54806" lon="-2.30303">
        <ele>-1.3</ele>
        <time>2014-09-21T06:18:03Z</time>
      </trkpt>
      <trkpt lat="47.54816" lon="-2.30301">
        <ele>-1.79</ele>
        <time>2014-09-21T06:18:05Z</time>
      </trkpt>
      <trkpt lat="47.54828" lon="-2.30295">
        <ele>-1.3</ele>
        <time>2014-09-21T06:18:08Z</time>
      </trkpt>
      <trkpt lat="47.5484" lon="-2.30287">
        <ele>-0.34</ele>
        <time>2014-09-21T06:18:11Z</time>
      </trkpt>
      <trkpt lat="47.5485" lon="-2.30279">
        <ele>1.58</ele>
        <time>2014-09-21T06:18:14Z</time>
      </trkpt>
      <trkpt lat="47.54861" lon="-2.3027">
        <ele>3.5</ele>
        <time>2014-09-21T06:18:17Z</time>
      </trkpt>
      <trkpt lat="47.54871" lon="-2.30264">
        <ele>3.98</ele>
        <time>2014-09-21T06:18:19Z</time>
      </trkpt>
      <trkpt lat="47.54879" lon="-2.30257">
        <ele>4.94</ele>
        <time>2014-09-21T06:18:21Z</time>
      </trkpt>
      <trkpt lat="47.5489" lon="-2.30248">
        <ele>5.91</ele>
        <time>2014-09-21T06:18:24Z</time>
      </trkpt>
      <trkpt lat="47.54899" lon="-2.30241">
        <ele>6.39</ele>
        <time>2014-09-21T06:18:26Z</time>
      </trkpt>
      <trkpt lat="47.54907" lon="-2.30235">
        <ele>7.83</ele>
        <time>2014-09-21T06:18:28Z</time>
      </trkpt>
      <trkpt lat="47.54917" lon="-2.30228">
        <ele>9.27</ele>
        <time>2014-09-21T06:18:31Z</time>
      </trkpt>
      <trkpt lat="47.54925" lon="-2.30221">
        <ele>10.71</ele>
        <time>2014-09-21T06:18:34Z</time>
      </trkpt>
      <trkpt lat="47.54936" lon="-2.30213">
        <ele>11.19</ele>
        <time>2014-09-21T06:18:37Z</time>
      </trkpt>
      <trkpt lat="47.54944" lon="-2.30206">
        <ele>11.67</ele>
        <time>2014-09-21T06:18:39Z</time>
      </trkpt>
      <trkpt lat="47.54953" lon="-2.30199">
        <ele>11.67</ele>
        <time>2014-09-21T06:18:41Z</time>
      </trkpt>
      <trkpt lat="47.54964" lon="-2.3019">
        <ele>11.19</ele>
        <time>2014-09-21T06:18:43Z</time>
      </trkpt>
      <trkpt lat="47.54978" lon="-2.30179">
        <ele>9.75</ele>
        <time>2014-09-21T06:18:45Z</time>
      </trkpt>
      <trkpt lat="47.54995" lon="-2.30166">
        <ele>8.31</ele>
        <time>2014-09-21T06:18:47Z</time>
      </trkpt>
      <trkpt lat="47.55004" lon="-2.30158">
        <ele>7.35</ele>
        <time>2014-09-21T06:18:48Z</time>
      </trkpt>
      <trkpt lat="47.55014" lon="-2.3015">
        <ele>6.39</ele>
        <time>2014-09-21T06:18:49Z</time>
      </trkpt>
      <trkpt lat="47.55024" lon="-2.30141">
        <ele>5.91</ele>
        <time>2014-09-21T06:18:50Z</time>
      </trkpt>
      <trkpt lat="47.55033" lon="-2.30133">
        <ele>5.42</ele>
        <time>2014-09-21T06:18:51Z</time>
      </trkpt>
      <trkpt lat="47.55042" lon="-2.30126">
        <ele>4.94</ele>
        <time>2014-09-21T06:18:52Z</time>
      </trkpt>
      <trkpt lat="47.55057" lon="-2.30115">
        <ele>4.46</ele>
        <time>2014-09-21T06:18:54Z</time>
      </trkpt>
      <trkpt lat="47.55068" lon="-2.30109">
        <ele>4.46</ele>
        <time>2014-09-21T06:18:56Z</time>
      </trkpt>
      <trkpt lat="47.55075" lon="-2.30099">
        <ele>3.5</ele>
        <time>2014-09-21T06:19:01Z</time>
      </trkpt>
      <trkpt lat="47.55084" lon="-2.30091">
        <ele>3.98</ele>
        <time>2014-09-21T06:19:04Z</time>
      </trkpt>
      <trkpt lat="47.55095" lon="-2.30082">
        <ele>3.98</ele>
        <time>2014-09-21T06:19:07Z</time>
      </trkpt>
      <trkpt lat="47.55107" lon="-2.30073">
        <ele>3.98</ele>
        <time>2014-09-21T06:19:10Z</time>
      </trkpt>
      <trkpt lat="47.55116" lon="-2.30066">
        <ele>3.98</ele>
        <time>2014-09-21T06:19:12Z</time>
      </trkpt>
      <trkpt lat="47.55125" lon="-2.30059">
        <ele>3.98</ele>
        <time>2014-09-21T06:19:14Z</time>
      </trkpt>
      <trkpt lat="47.55134" lon="-2.30051">
        <ele>3.98</ele>
        <time>2014-09-21T06:19:16Z</time>
      </trkpt>
      <trkpt lat="47.55149" lon="-2.3004">
        <ele>3.5</ele>
        <time>2014-09-21T06:19:19Z</time>
      </trkpt>
      <trkpt lat="47.55159" lon="-2.30032">
        <ele>3.5</ele>
        <time>2014-09-21T06:19:21Z</time>
      </trkpt>
      <trkpt lat="47.55169" lon="-2.30024">
        <ele>3.5</ele>
        <time>2014-09-21T06:19:23Z</time>
      </trkpt>
      <trkpt lat="47.5518" lon="-2.30016">
        <ele>3.5</ele>
        <time>2014-09-21T06:19:25Z</time>
      </trkpt>
      <trkpt lat="47.55189" lon="-2.30009">
        <ele>3.5</ele>
        <time>2014-09-21T06:19:27Z</time>
      </trkpt>
      <trkpt lat="47.55199" lon="-2.30001">
        <ele>3.5</ele>
        <time>2014-09-21T06:19:29Z</time>
      </trkpt>
      <trkpt lat="47.55209" lon="-2.29994">
        <ele>3.5</ele>
        <time>2014-09-21T06:19:31Z</time>
      </trkpt>
      <trkpt lat="47.55218" lon="-2.29986">
        <ele>3.5</ele>
        <time>2014-09-21T06:19:33Z</time>
      </trkpt>
      <trkpt lat="47.55228" lon="-2.29979">
        <ele>3.02</ele>
        <time>2014-09-21T06:19:35Z</time>
      </trkpt>
      <trkpt lat="47.55236" lon="-2.29973">
        <ele>3.5</ele>
        <time>2014-09-21T06:19:37Z</time>
      </trkpt>
      <trkpt lat="47.55239" lon="-2.29961">
        <ele>2.54</ele>
        <time>2014-09-21T06:19:41Z</time>
      </trkpt>
      <trkpt lat="47.55235" lon="-2.29947">
        <ele>1.58</ele>
        <time>2014-09-21T06:19:45Z</time>
      </trkpt>
      <trkpt lat="47.55241" lon="-2.29938">
        <ele>1.58</ele>
        <time>2014-09-21T06:19:48Z</time>
      </trkpt>
      <trkpt lat="47.55251" lon="-2.29929">
        <ele>1.58</ele>
        <time>2014-09-21T06:19:51Z</time>
      </trkpt>
      <trkpt lat="47.55261" lon="-2.29921">
        <ele>1.58</ele>
        <time>2014-09-21T06:19:54Z</time>
      </trkpt>
      <trkpt lat="47.55273" lon="-2.29916">
        <ele>2.06</ele>
        <time>2014-09-21T06:19:57Z</time>
      </trkpt>
      <trkpt lat="47.55286" lon="-2.29915">
        <ele>2.06</ele>
        <time>2014-09-21T06:20:00Z</time>
      </trkpt>
      <trkpt lat="47.55298" lon="-2.29914">
        <ele>2.06</ele>
        <time>2014-09-21T06:20:03Z</time>
      </trkpt>
      <trkpt lat="47.55312" lon="-2.29914">
        <ele>2.06</ele>
        <time>2014-09-21T06:20:06Z</time>
      </trkpt>
      <trkpt lat="47.55325" lon="-2.29916">
        <ele>2.06</ele>
        <time>2014-09-21T06:20:09Z</time>
      </trkpt>
      <trkpt lat="47.55337" lon="-2.29918">
        <ele>2.06</ele>
        <time>2014-09-21T06:20:12Z</time>
      </trkpt>
      <trkpt lat="47.55343" lon="-2.2991">
        <ele>2.54</ele>
        <time>2014-09-21T06:20:16Z</time>
      </trkpt>
      <trkpt lat="47.55343" lon="-2.29893">
        <ele>2.54</ele>
        <time>2014-09-21T06:20:20Z</time>
      </trkpt>
      <trkpt lat="47.55344" lon="-2.29878">
        <ele>2.06</ele>
        <time>2014-09-21T06:20:23Z</time>
      </trkpt>
      <trkpt lat="47.55345" lon="-2.29863">
        <ele>1.58</ele>
        <time>2014-09-21T06:20:26Z</time>
      </trkpt>
      <trkpt lat="47.55346" lon="-2.2985">
        <ele>0.62</ele>
        <time>2014-09-21T06:20:29Z</time>
      </trkpt>
      <trkpt lat="47.55347" lon="-2.29831">
        <ele>0.14</ele>
        <time>2014-09-21T06:20:33Z</time>
      </trkpt>
      <trkpt lat="47.55348" lon="-2.29814">
        <ele>0.62</ele>
        <time>2014-09-21T06:20:37Z</time>
      </trkpt>
      <trkpt lat="47.55348" lon="-2.29797">
        <ele>0.62</ele>
        <time>2014-09-21T06:20:41Z</time>
      </trkpt>
      <trkpt lat="47.55349" lon="-2.29781">
        <ele>1.1</ele>
        <time>2014-09-21T06:20:45Z</time>
      </trkpt>
      <trkpt lat="47.55349" lon="-2.29766">
        <ele>2.06</ele>
        <time>2014-09-21T06:20:49Z</time>
      </trkpt>
      <trkpt lat="47.55352" lon="-2.2975">
        <ele>2.54</ele>
        <time>2014-09-21T06:20:54Z</time>
      </trkpt>
      <trkpt lat="47.55362" lon="-2.29743">
        <ele>3.98</ele>
        <time>2014-09-21T06:20:59Z</time>
      </trkpt>
      <trkpt lat="47.55373" lon="-2.29737">
        <ele>7.35</ele>
        <time>2014-09-21T06:21:04Z</time>
      </trkpt>
      <trkpt lat="47.55383" lon="-2.29731">
        <ele>8.79</ele>
        <time>2014-09-21T06:21:08Z</time>
      </trkpt>
      <trkpt lat="47.55395" lon="-2.29726">
        <ele>10.71</ele>
        <time>2014-09-21T06:21:12Z</time>
      </trkpt>
      <trkpt lat="47.55405" lon="-2.29722">
        <ele>12.15</ele>
        <time>2014-09-21T06:21:16Z</time>
      </trkpt>
      <trkpt lat="47.55417" lon="-2.29715">
        <ele>15.52</ele>
        <time>2014-09-21T06:21:21Z</time>
      </trkpt>
      <trkpt lat="47.55428" lon="-2.2971">
        <ele>18.4</ele>
        <time>2014-09-21T06:21:25Z</time>
      </trkpt>
      <trkpt lat="47.55437" lon="-2.29702">
        <ele>21.29</ele>
        <time>2014-09-21T06:21:29Z</time>
      </trkpt>
      <trkpt lat="47.55446" lon="-2.29692">
        <ele>22.25</ele>
        <time>2014-09-21T06:21:34Z</time>
      </trkpt>
      <trkpt lat="47.55447" lon="-2.29677">
        <ele>21.29</ele>
        <time>2014-09-21T06:21:38Z</time>
      </trkpt>
      <trkpt lat="47.55444" lon="-2.2966">
        <ele>20.32</ele>
        <time>2014-09-21T06:21:42Z</time>
      </trkpt>
      <trkpt lat="47.55443" lon="-2.29644">
        <ele>18.88</ele>
        <time>2014-09-21T06:21:46Z</time>
      </trkpt>
      <trkpt lat="47.5544" lon="-2.29629">
        <ele>18.88</ele>
        <time>2014-09-21T06:21:50Z</time>
      </trkpt>
      <trkpt lat="47.55437" lon="-2.2961">
        <ele>19.84</ele>
        <time>2014-09-21T06:21:54Z</time>
      </trkpt>
      <trkpt lat="47.55433" lon="-2.2959">
        <ele>19.84</ele>
        <time>2014-09-21T06:21:58Z</time>
      </trkpt>
      <trkpt lat="47.55438" lon="-2.29576">
        <ele>19.84</ele>
        <time>2014-09-21T06:22:03Z</time>
      </trkpt>
      <trkpt lat="47.5545" lon="-2.29567">
        <ele>20.81</ele>
        <time>2014-09-21T06:22:08Z</time>
      </trkpt>
      <trkpt lat="47.5546" lon="-2.29561">
        <ele>22.73</ele>
        <time>2014-09-21T06:22:11Z</time>
      </trkpt>
      <trkpt lat="47.55471" lon="-2.29555">
        <ele>24.17</ele>
        <time>2014-09-21T06:22:14Z</time>
      </trkpt>
      <trkpt lat="47.55481" lon="-2.2955">
        <ele>26.09</ele>
        <time>2014-09-21T06:22:17Z</time>
      </trkpt>
      <trkpt lat="47.55493" lon="-2.29544">
        <ele>27.53</ele>
        <time>2014-09-21T06:22:21Z</time>
      </trkpt>
      <trkpt lat="47.55505" lon="-2.29539">
        <ele>28.02</ele>
        <time>2014-09-21T06:22:24Z</time>
      </trkpt>
      <trkpt lat="47.55517" lon="-2.29536">
        <ele>26.57</ele>
        <time>2014-09-21T06:22:27Z</time>
      </trkpt>
      <trkpt lat="47.55527" lon="-2.2953">
        <ele>26.57</ele>
        <time>2014-09-21T06:22:30Z</time>
      </trkpt>
      <trkpt lat="47.55537" lon="-2.29524">
        <ele>26.57</ele>
        <time>2014-09-21T06:22:33Z</time>
      </trkpt>
      <trkpt lat="47.55545" lon="-2.29517">
        <ele>26.57</ele>
        <time>2014-09-21T06:22:36Z</time>
      </trkpt>
      <trkpt lat="47.55553" lon="-2.29509">
        <ele>26.57</ele>
        <time>2014-09-21T06:22:39Z</time>
      </trkpt>
      <trkpt lat="47.55561" lon="-2.29499">
        <ele>26.57</ele>
        <time>2014-09-21T06:22:42Z</time>
      </trkpt>
      <trkpt lat="47.55568" lon="-2.29487">
        <ele>26.09</ele>
        <time>2014-09-21T06:22:45Z</time>
      </trkpt>
      <trkpt lat="47.55577" lon="-2.29475">
        <ele>26.57</ele>
        <time>2014-09-21T06:22:48Z</time>
      </trkpt>
      <trkpt lat="47.55586" lon="-2.29464">
        <ele>26.57</ele>
        <time>2014-09-21T06:22:51Z</time>
      </trkpt>
      <trkpt lat="47.55594" lon="-2.29452">
        <ele>26.57</ele>
        <time>2014-09-21T06:22:54Z</time>
      </trkpt>
      <trkpt lat="47.55601" lon="-2.2944">
        <ele>26.57</ele>
        <time>2014-09-21T06:22:57Z</time>
      </trkpt>
      <trkpt lat="47.55608" lon="-2.29428">
        <ele>26.09</ele>
        <time>2014-09-21T06:23:00Z</time>
      </trkpt>
      <trkpt lat="47.55616" lon="-2.29416">
        <ele>26.09</ele>
        <time>2014-09-21T06:23:03Z</time>
      </trkpt>
      <trkpt lat="47.55623" lon="-2.29405">
        <ele>25.61</ele>
        <time>2014-09-21T06:23:06Z</time>
      </trkpt>
      <trkpt lat="47.55631" lon="-2.29394">
        <ele>25.13</ele>
        <time>2014-09-21T06:23:09Z</time>
      </trkpt>
      <trkpt lat="47.55638" lon="-2.2938">
        <ele>25.13</ele>
        <time>2014-09-21T06:23:12Z</time>
      </trkpt>
      <trkpt lat="47.55645" lon="-2.29365">
        <ele>24.65</ele>
        <time>2014-09-21T06:23:15Z</time>
      </trkpt>
      <trkpt lat="47.55654" lon="-2.29349">
        <ele>24.17</ele>
        <time>2014-09-21T06:23:18Z</time>
      </trkpt>
      <trkpt lat="47.5566" lon="-2.29339">
        <ele>24.65</ele>
        <time>2014-09-21T06:23:20Z</time>
      </trkpt>
      <trkpt lat="47.55666" lon="-2.29327">
        <ele>24.17</ele>
        <time>2014-09-21T06:23:22Z</time>
      </trkpt>
      <trkpt lat="47.55672" lon="-2.29313">
        <ele>23.69</ele>
        <time>2014-09-21T06:23:24Z</time>
      </trkpt>
      <trkpt lat="47.55676" lon="-2.29297">
        <ele>23.21</ele>
        <time>2014-09-21T06:23:26Z</time>
      </trkpt>
      <trkpt lat="47.55678" lon="-2.29284">
        <ele>22.73</ele>
        <time>2014-09-21T06:23:28Z</time>
      </trkpt>
      <trkpt lat="47.5568" lon="-2.29267">
        <ele>22.25</ele>
        <time>2014-09-21T06:23:31Z</time>
      </trkpt>
      <trkpt lat="47.5568" lon="-2.29252">
        <ele>22.73</ele>
        <time>2014-09-21T06:23:34Z</time>
      </trkpt>
      <trkpt lat="47.55677" lon="-2.29232">
        <ele>23.21</ele>
        <time>2014-09-21T06:23:38Z</time>
      </trkpt>
      <trkpt lat="47.55673" lon="-2.29217">
        <ele>23.69</ele>
        <time>2014-09-21T06:23:41Z</time>
      </trkpt>
      <trkpt lat="47.55669" lon="-2.29203">
        <ele>23.69</ele>
        <time>2014-09-21T06:23:44Z</time>
      </trkpt>
      <trkpt lat="47.55665" lon="-2.29188">
        <ele>24.17</ele>
        <time>2014-09-21T06:23:47Z</time>
      </trkpt>
      <trkpt lat="47.5566" lon="-2.29172">
        <ele>24.65</ele>
        <time>2014-09-21T06:23:50Z</time>
      </trkpt>
      <trkpt lat="47.55656" lon="-2.29156">
        <ele>25.61</ele>
        <time>2014-09-21T06:23:53Z</time>
      </trkpt>
      <trkpt lat="47.55652" lon="-2.2914">
        <ele>26.09</ele>
        <time>2014-09-21T06:23:56Z</time>
      </trkpt>
      <trkpt lat="47.55648" lon="-2.29125">
        <ele>27.05</ele>
        <time>2014-09-21T06:23:59Z</time>
      </trkpt>
      <trkpt lat="47.55644" lon="-2.2911">
        <ele>27.53</ele>
        <time>2014-09-21T06:24:02Z</time>
      </trkpt>
      <trkpt lat="47.55641" lon="-2.29097">
        <ele>28.5</ele>
        <time>2014-09-21T06:24:05Z</time>
      </trkpt>
      <trkpt lat="47.55637" lon="-2.29085">
        <ele>29.46</ele>
        <time>2014-09-21T06:24:08Z</time>
      </trkpt>
      <trkpt lat="47.55632" lon="-2.29068">
        <ele>30.42</ele>
        <time>2014-09-21T06:24:12Z</time>
      </trkpt>
      <trkpt lat="47.55628" lon="-2.29056">
        <ele>31.38</ele>
        <time>2014-09-21T06:24:15Z</time>
      </trkpt>
      <trkpt lat="47.55624" lon="-2.29043">
        <ele>32.34</ele>
        <time>2014-09-21T06:24:18Z</time>
      </trkpt>
      <trkpt lat="47.5562" lon="-2.29031">
        <ele>32.82</ele>
        <time>2014-09-21T06:24:21Z</time>
      </trkpt>
      <trkpt lat="47.55616" lon="-2.29014">
        <ele>33.3</ele>
        <time>2014-09-21T06:24:25Z</time>
      </trkpt>
      <trkpt lat="47.55612" lon="-2.29001">
        <ele>33.78</ele>
        <time>2014-09-21T06:24:28Z</time>
      </trkpt>
      <trkpt lat="47.55608" lon="-2.28989">
        <ele>34.26</ele>
        <time>2014-09-21T06:24:31Z</time>
      </trkpt>
      <trkpt lat="47.55604" lon="-2.28972">
        <ele>35.23</ele>
        <time>2014-09-21T06:24:35Z</time>
      </trkpt>
      <trkpt lat="47.55601" lon="-2.28959">
        <ele>36.67</ele>
        <time>2014-09-21T06:24:38Z</time>
      </trkpt>
      <trkpt lat="47.55598" lon="-2.28941">
        <ele>38.11</ele>
        <time>2014-09-21T06:24:42Z</time>
      </trkpt>
      <trkpt lat="47.55596" lon="-2.28927">
        <ele>39.07</ele>
        <time>2014-09-21T06:24:45Z</time>
      </trkpt>
      <trkpt lat="47.55594" lon="-2.28913">
        <ele>39.55</ele>
        <time>2014-09-21T06:24:48Z</time>
      </trkpt>
      <trkpt lat="47.55592" lon="-2.289">
        <ele>40.51</ele>
        <time>2014-09-21T06:24:51Z</time>
      </trkpt>
      <trkpt lat="47.5559" lon="-2.28883">
        <ele>40.99</ele>
        <time>2014-09-21T06:24:55Z</time>
      </trkpt>
      <trkpt lat="47.55589" lon="-2.28869">
        <ele>40.99</ele>
        <time>2014-09-21T06:24:58Z</time>
      </trkpt>
      <trkpt lat="47.55585" lon="-2.28853">
        <ele>41.47</ele>
        <time>2014-09-21T06:25:02Z</time>
      </trkpt>
      <trkpt lat="47.55582" lon="-2.28839">
        <ele>41.95</ele>
        <time>2014-09-21T06:25:06Z</time>
      </trkpt>
      <trkpt lat="47.55581" lon="-2.28823">
        <ele>41.95</ele>
        <time>2014-09-21T06:25:11Z</time>
      </trkpt>
      <trkpt lat="47.55583" lon="-2.28809">
        <ele>42.44</ele>
        <time>2014-09-21T06:25:19Z</time>
      </trkpt>
      <trkpt lat="47.55581" lon="-2.28795">
        <ele>43.4</ele>
        <time>2014-09-21T06:26:21Z</time>
      </trkpt>
      <trkpt lat="47.5558" lon="-2.28778">
        <ele>43.88</ele>
        <time>2014-09-21T06:26:24Z</time>
      </trkpt>
      <trkpt lat="47.55579" lon="-2.2876">
        <ele>43.88</ele>
        <time>2014-09-21T06:26:27Z</time>
      </trkpt>
      <trkpt lat="47.5558" lon="-2.28741">
        <ele>43.88</ele>
        <time>2014-09-21T06:26:30Z</time>
      </trkpt>
      <trkpt lat="47.55581" lon="-2.28721">
        <ele>43.88</ele>
        <time>2014-09-21T06:26:33Z</time>
      </trkpt>
      <trkpt lat="47.55581" lon="-2.28707">
        <ele>43.88</ele>
        <time>2014-09-21T06:26:35Z</time>
      </trkpt>
      <trkpt lat="47.55581" lon="-2.28693">
        <ele>43.88</ele>
        <time>2014-09-21T06:26:37Z</time>
      </trkpt>
      <trkpt lat="47.55582" lon="-2.2868">
        <ele>43.4</ele>
        <time>2014-09-21T06:26:39Z</time>
      </trkpt>
      <trkpt lat="47.55582" lon="-2.28667">
        <ele>43.4</ele>
        <time>2014-09-21T06:26:41Z</time>
      </trkpt>
      <trkpt lat="47.55583" lon="-2.2865">
        <ele>43.88</ele>
        <time>2014-09-21T06:26:44Z</time>
      </trkpt>
      <trkpt lat="47.55584" lon="-2.28634">
        <ele>43.4</ele>
        <time>2014-09-21T06:26:47Z</time>
      </trkpt>
      <trkpt lat="47.55587" lon="-2.28617">
        <ele>43.4</ele>
        <time>2014-09-21T06:26:50Z</time>
      </trkpt>
      <trkpt lat="47.55586" lon="-2.28599">
        <ele>43.4</ele>
        <time>2014-09-21T06:26:53Z</time>
      </trkpt>
      <trkpt lat="47.55586" lon="-2.2858">
        <ele>43.4</ele>
        <time>2014-09-21T06:26:56Z</time>
      </trkpt>
      <trkpt lat="47.55586" lon="-2.28562">
        <ele>43.4</ele>
        <time>2014-09-21T06:26:59Z</time>
      </trkpt>
      <trkpt lat="47.55588" lon="-2.28545">
        <ele>42.92</ele>
        <time>2014-09-21T06:27:02Z</time>
      </trkpt>
      <trkpt lat="47.5559" lon="-2.28527">
        <ele>41.95</ele>
        <time>2014-09-21T06:27:05Z</time>
      </trkpt>
      <trkpt lat="47.55592" lon="-2.28511">
        <ele>40.99</ele>
        <time>2014-09-21T06:27:07Z</time>
      </trkpt>
      <trkpt lat="47.55595" lon="-2.28492">
        <ele>40.51</ele>
        <time>2014-09-21T06:27:09Z</time>
      </trkpt>
      <trkpt lat="47.55596" lon="-2.28473">
        <ele>39.07</ele>
        <time>2014-09-21T06:27:11Z</time>
      </trkpt>
      <trkpt lat="47.55597" lon="-2.28454">
        <ele>38.59</ele>
        <time>2014-09-21T06:27:13Z</time>
      </trkpt>
      <trkpt lat="47.55598" lon="-2.28436">
        <ele>37.63</ele>
        <time>2014-09-21T06:27:15Z</time>
      </trkpt>
      <trkpt lat="47.55599" lon="-2.28417">
        <ele>36.67</ele>
        <time>2014-09-21T06:27:17Z</time>
      </trkpt>
      <trkpt lat="47.556" lon="-2.28397">
        <ele>35.23</ele>
        <time>2014-09-21T06:27:19Z</time>
      </trkpt>
      <trkpt lat="47.55602" lon="-2.28377">
        <ele>33.3</ele>
        <time>2014-09-21T06:27:21Z</time>
      </trkpt>
      <trkpt lat="47.55605" lon="-2.28357">
        <ele>31.86</ele>
        <time>2014-09-21T06:27:23Z</time>
      </trkpt>
      <trkpt lat="47.5561" lon="-2.28338">
        <ele>30.9</ele>
        <time>2014-09-21T06:27:25Z</time>
      </trkpt>
      <trkpt lat="47.55614" lon="-2.2832">
        <ele>29.94</ele>
        <time>2014-09-21T06:27:27Z</time>
      </trkpt>
      <trkpt lat="47.55617" lon="-2.28305">
        <ele>29.46</ele>
        <time>2014-09-21T06:27:29Z</time>
      </trkpt>
      <trkpt lat="47.55621" lon="-2.2829">
        <ele>28.98</ele>
        <time>2014-09-21T06:27:31Z</time>
      </trkpt>
      <trkpt lat="47.55625" lon="-2.28277">
        <ele>28.98</ele>
        <time>2014-09-21T06:27:33Z</time>
      </trkpt>
      <trkpt lat="47.55629" lon="-2.28264">
        <ele>29.46</ele>
        <time>2014-09-21T06:27:35Z</time>
      </trkpt>
      <trkpt lat="47.55635" lon="-2.28245">
        <ele>30.42</ele>
        <time>2014-09-21T06:27:38Z</time>
      </trkpt>
      <trkpt lat="47.55639" lon="-2.28231">
        <ele>31.38</ele>
        <time>2014-09-21T06:27:40Z</time>
      </trkpt>
      <trkpt lat="47.55643" lon="-2.28217">
        <ele>31.86</ele>
        <time>2014-09-21T06:27:42Z</time>
      </trkpt>
      <trkpt lat="47.55647" lon="-2.28202">
        <ele>32.82</ele>
        <time>2014-09-21T06:27:44Z</time>
      </trkpt>
      <trkpt lat="47.5565" lon="-2.28187">
        <ele>33.3</ele>
        <time>2014-09-21T06:27:46Z</time>
      </trkpt>
      <trkpt lat="47.55653" lon="-2.28174">
        <ele>33.3</ele>
        <time>2014-09-21T06:27:48Z</time>
      </trkpt>
      <trkpt lat="47.55656" lon="-2.28159">
        <ele>33.78</ele>
        <time>2014-09-21T06:27:51Z</time>
      </trkpt>
      <trkpt lat="47.55658" lon="-2.28143">
        <ele>34.26</ele>
        <time>2014-09-21T06:27:54Z</time>
      </trkpt>
      <trkpt lat="47.5566" lon="-2.28125">
        <ele>35.23</ele>
        <time>2014-09-21T06:27:57Z</time>
      </trkpt>
      <trkpt lat="47.55662" lon="-2.28105">
        <ele>36.67</ele>
        <time>2014-09-21T06:28:00Z</time>
      </trkpt>
      <trkpt lat="47.55664" lon="-2.28084">
        <ele>36.67</ele>
        <time>2014-09-21T06:28:03Z</time>
      </trkpt>
      <trkpt lat="47.55666" lon="-2.28065">
        <ele>36.19</ele>
        <time>2014-09-21T06:28:06Z</time>
      </trkpt>
      <trkpt lat="47.55667" lon="-2.28049">
        <ele>35.71</ele>
        <time>2014-09-21T06:28:09Z</time>
      </trkpt>
      <trkpt lat="47.55668" lon="-2.28035">
        <ele>35.23</ele>
        <time>2014-09-21T06:28:12Z</time>
      </trkpt>
      <trkpt lat="47.55671" lon="-2.28018">
        <ele>34.74</ele>
        <time>2014-09-21T06:28:15Z</time>
      </trkpt>
      <trkpt lat="47.55672" lon="-2.28">
        <ele>34.74</ele>
        <time>2014-09-21T06:28:18Z</time>
      </trkpt>
      <trkpt lat="47.55673" lon="-2.27982">
        <ele>34.74</ele>
        <time>2014-09-21T06:28:21Z</time>
      </trkpt>
      <trkpt lat="47.55675" lon="-2.27965">
        <ele>35.71</ele>
        <time>2014-09-21T06:28:24Z</time>
      </trkpt>
      <trkpt lat="47.55679" lon="-2.2795">
        <ele>37.15</ele>
        <time>2014-09-21T06:28:27Z</time>
      </trkpt>
      <trkpt lat="47.55683" lon="-2.27933">
        <ele>38.11</ele>
        <time>2014-09-21T06:28:30Z</time>
      </trkpt>
      <trkpt lat="47.5569" lon="-2.27915">
        <ele>40.03</ele>
        <time>2014-09-21T06:28:33Z</time>
      </trkpt>
      <trkpt lat="47.557" lon="-2.27908">
        <ele>41.47</ele>
        <time>2014-09-21T06:28:36Z</time>
      </trkpt>
      <trkpt lat="47.55713" lon="-2.27903">
        <ele>42.44</ele>
        <time>2014-09-21T06:28:39Z</time>
      </trkpt>
      <trkpt lat="47.55721" lon="-2.27895">
        <ele>42.92</ele>
        <time>2014-09-21T06:28:41Z</time>
      </trkpt>
      <trkpt lat="47.55731" lon="-2.27899">
        <ele>43.88</ele>
        <time>2014-09-21T06:28:45Z</time>
      </trkpt>
      <trkpt lat="47.55742" lon="-2.27897">
        <ele>44.36</ele>
        <time>2014-09-21T06:28:48Z</time>
      </trkpt>
      <trkpt lat="47.5575" lon="-2.27886">
        <ele>44.36</ele>
        <time>2014-09-21T06:28:50Z</time>
      </trkpt>
      <trkpt lat="47.55753" lon="-2.27873">
        <ele>43.88</ele>
        <time>2014-09-21T06:28:52Z</time>
      </trkpt>
      <trkpt lat="47.55758" lon="-2.2786">
        <ele>42.44</ele>
        <time>2014-09-21T06:28:55Z</time>
      </trkpt>
      <trkpt lat="47.55771" lon="-2.27859">
        <ele>40.99</ele>
        <time>2014-09-21T06:28:58Z</time>
      </trkpt>
      <trkpt lat="47.55783" lon="-2.27853">
        <ele>40.03</ele>
        <time>2014-09-21T06:29:01Z</time>
      </trkpt>
      <trkpt lat="47.55788" lon="-2.27838">
        <ele>39.07</ele>
        <time>2014-09-21T06:29:04Z</time>
      </trkpt>
      <trkpt lat="47.55787" lon="-2.2782">
        <ele>38.11</ele>
        <time>2014-09-21T06:29:07Z</time>
      </trkpt>
      <trkpt lat="47.55797" lon="-2.27803">
        <ele>35.71</ele>
        <time>2014-09-21T06:29:11Z</time>
      </trkpt>
      <trkpt lat="47.55801" lon="-2.27788">
        <ele>35.71</ele>
        <time>2014-09-21T06:29:13Z</time>
      </trkpt>
      <trkpt lat="47.55806" lon="-2.27769">
        <ele>34.74</ele>
        <time>2014-09-21T06:29:16Z</time>
      </trkpt>
      <trkpt lat="47.55803" lon="-2.27753">
        <ele>34.26</ele>
        <time>2014-09-21T06:29:21Z</time>
      </trkpt>
      <trkpt lat="47.558" lon="-2.27737">
        <ele>35.23</ele>
        <time>2014-09-21T06:29:27Z</time>
      </trkpt>
      <trkpt lat="47.55802" lon="-2.27718">
        <ele>35.23</ele>
        <time>2014-09-21T06:29:30Z</time>
      </trkpt>
      <trkpt lat="47.55805" lon="-2.27701">
        <ele>33.78</ele>
        <time>2014-09-21T06:29:33Z</time>
      </trkpt>
      <trkpt lat="47.55815" lon="-2.27698">
        <ele>32.34</ele>
        <time>2014-09-21T06:29:38Z</time>
      </trkpt>
      <trkpt lat="47.55825" lon="-2.27692">
        <ele>30.42</ele>
        <time>2014-09-21T06:29:42Z</time>
      </trkpt>
      <trkpt lat="47.55829" lon="-2.277">
        <ele>28.98</ele>
        <time>2014-09-21T06:29:46Z</time>
      </trkpt>
      <trkpt lat="47.55828" lon="-2.27714">
        <ele>28.02</ele>
        <time>2014-09-21T06:29:49Z</time>
      </trkpt>
      <trkpt lat="47.5583" lon="-2.27733">
        <ele>28.5</ele>
        <time>2014-09-21T06:29:53Z</time>
      </trkpt>
      <trkpt lat="47.55836" lon="-2.2774">
        <ele>27.53</ele>
        <time>2014-09-21T06:29:57Z</time>
      </trkpt>
      <trkpt lat="47.55846" lon="-2.27731">
        <ele>26.57</ele>
        <time>2014-09-21T06:30:00Z</time>
      </trkpt>
      <trkpt lat="47.55859" lon="-2.27731">
        <ele>27.05</ele>
        <time>2014-09-21T06:30:08Z</time>
      </trkpt>
      <trkpt lat="47.55871" lon="-2.27726">
        <ele>35.23</ele>
        <time>2014-09-21T06:30:27Z</time>
      </trkpt>
      <trkpt lat="47.5588" lon="-2.2772">
        <ele>44.36</ele>
        <time>2014-09-21T06:30:41Z</time>
      </trkpt>
      <trkpt lat="47.55901" lon="-2.27707">
        <ele>50.13</ele>
        <time>2014-09-21T06:31:29Z</time>
      </trkpt>
      <trkpt lat="47.55912" lon="-2.27701">
        <ele>51.09</ele>
        <time>2014-09-21T06:31:36Z</time>
      </trkpt>
      <trkpt lat="47.55923" lon="-2.27694">
        <ele>54.93</ele>
        <time>2014-09-21T06:31:41Z</time>
      </trkpt>
      <trkpt lat="47.55934" lon="-2.27687">
        <ele>58.3</ele>
        <time>2014-09-21T06:31:46Z</time>
      </trkpt>
      <trkpt lat="47.55947" lon="-2.27677">
        <ele>60.22</ele>
        <time>2014-09-21T06:31:52Z</time>
      </trkpt>
      <trkpt lat="47.55959" lon="-2.2767">
        <ele>63.1</ele>
        <time>2014-09-21T06:31:57Z</time>
      </trkpt>
      <trkpt lat="47.5597" lon="-2.27661">
        <ele>66.47</ele>
        <time>2014-09-21T06:32:02Z</time>
      </trkpt>
      <trkpt lat="47.55981" lon="-2.27652">
        <ele>71.27</ele>
        <time>2014-09-21T06:32:07Z</time>
      </trkpt>
      <trkpt lat="47.55995" lon="-2.27646">
        <ele>74.64</ele>
        <time>2014-09-21T06:32:14Z</time>
      </trkpt>
      <trkpt lat="47.56006" lon="-2.27646">
        <ele>76.08</ele>
        <time>2014-09-21T06:32:19Z</time>
      </trkpt>
      <trkpt lat="47.56017" lon="-2.27647">
        <ele>76.08</ele>
        <time>2014-09-21T06:32:23Z</time>
      </trkpt>
      <trkpt lat="47.56032" lon="-2.27649">
        <ele>75.12</ele>
        <time>2014-09-21T06:32:27Z</time>
      </trkpt>
      <trkpt lat="47.56047" lon="-2.27654">
        <ele>73.68</ele>
        <time>2014-09-21T06:32:30Z</time>
      </trkpt>
      <trkpt lat="47.56057" lon="-2.27657">
        <ele>72.72</ele>
        <time>2014-09-21T06:32:32Z</time>
      </trkpt>
      <trkpt lat="47.5607" lon="-2.2766">
        <ele>70.79</ele>
        <time>2014-09-21T06:32:34Z</time>
      </trkpt>
      <trkpt lat="47.56081" lon="-2.27665">
        <ele>68.87</ele>
        <time>2014-09-21T06:32:36Z</time>
      </trkpt>
      <trkpt lat="47.56092" lon="-2.27674">
        <ele>66.95</ele>
        <time>2014-09-21T06:32:39Z</time>
      </trkpt>
      <trkpt lat="47.56105" lon="-2.2768">
        <ele>65.03</ele>
        <time>2014-09-21T06:32:42Z</time>
      </trkpt>
      <trkpt lat="47.56117" lon="-2.27688">
        <ele>64.07</ele>
        <time>2014-09-21T06:32:45Z</time>
      </trkpt>
      <trkpt lat="47.56127" lon="-2.27696">
        <ele>63.1</ele>
        <time>2014-09-21T06:32:48Z</time>
      </trkpt>
      <trkpt lat="47.56138" lon="-2.27688">
        <ele>59.74</ele>
        <time>2014-09-21T06:32:51Z</time>
      </trkpt>
      <trkpt lat="47.56149" lon="-2.2769">
        <ele>56.37</ele>
        <time>2014-09-21T06:32:55Z</time>
      </trkpt>
      <trkpt lat="47.56156" lon="-2.27706">
        <ele>52.05</ele>
        <time>2014-09-21T06:32:58Z</time>
      </trkpt>
      <trkpt lat="47.56167" lon="-2.27711">
        <ele>47.24</ele>
        <time>2014-09-21T06:33:01Z</time>
      </trkpt>
      <trkpt lat="47.56177" lon="-2.27707">
        <ele>43.88</ele>
        <time>2014-09-21T06:33:05Z</time>
      </trkpt>
      <trkpt lat="47.56181" lon="-2.27694">
        <ele>41.47</ele>
        <time>2014-09-21T06:33:10Z</time>
      </trkpt>
      <trkpt lat="47.56183" lon="-2.2768">
        <ele>39.07</ele>
        <time>2014-09-21T06:33:15Z</time>
      </trkpt>
      <trkpt lat="47.5619" lon="-2.27667">
        <ele>38.11</ele>
        <time>2014-09-21T06:33:20Z</time>
      </trkpt>
      <trkpt lat="47.56192" lon="-2.27651">
        <ele>38.59</ele>
        <time>2014-09-21T06:33:26Z</time>
      </trkpt>
      <trkpt lat="47.56194" lon="-2.27635">
        <ele>37.15</ele>
        <time>2014-09-21T06:33:31Z</time>
      </trkpt>
      <trkpt lat="47.56197" lon="-2.27617">
        <ele>36.19</ele>
        <time>2014-09-21T06:33:36Z</time>
      </trkpt>
      <trkpt lat="47.562" lon="-2.27603">
        <ele>35.71</ele>
        <time>2014-09-21T06:33:41Z</time>
      </trkpt>
      <trkpt lat="47.56201" lon="-2.27586">
        <ele>35.23</ele>
        <time>2014-09-21T06:33:47Z</time>
      </trkpt>
      <trkpt lat="47.56204" lon="-2.27571">
        <ele>36.19</ele>
        <time>2014-09-21T06:33:53Z</time>
      </trkpt>
      <trkpt lat="47.56213" lon="-2.2756">
        <ele>36.67</ele>
        <time>2014-09-21T06:34:01Z</time>
      </trkpt>
      <trkpt lat="47.56223" lon="-2.27558">
        <ele>41.47</ele>
        <time>2014-09-21T06:34:09Z</time>
      </trkpt>
      <trkpt lat="47.56234" lon="-2.27561">
        <ele>48.68</ele>
        <time>2014-09-21T06:34:18Z</time>
      </trkpt>
      <trkpt lat="47.56235" lon="-2.27573">
        <ele>51.09</ele>
        <time>2014-09-21T06:44:12Z</time>
      </trkpt>
      <trkpt lat="47.56229" lon="-2.27586">
        <ele>50.13</ele>
        <time>2014-09-21T06:44:18Z</time>
      </trkpt>
      <trkpt lat="47.56239" lon="-2.27596">
        <ele>50.13</ele>
        <time>2014-09-21T06:44:24Z</time>
      </trkpt>
      <trkpt lat="47.56241" lon="-2.27612">
        <ele>50.61</ele>
        <time>2014-09-21T06:44:30Z</time>
      </trkpt>
      <trkpt lat="47.56236" lon="-2.27621">
        <ele>50.61</ele>
        <time>2014-09-21T06:44:34Z</time>
      </trkpt>
      <trkpt lat="47.56226" lon="-2.27625">
        <ele>49.65</ele>
        <time>2014-09-21T06:44:37Z</time>
      </trkpt>
      <trkpt lat="47.56222" lon="-2.27638">
        <ele>49.16</ele>
        <time>2014-09-21T06:44:40Z</time>
      </trkpt>
      <trkpt lat="47.56221" lon="-2.27658">
        <ele>49.16</ele>
        <time>2014-09-21T06:44:44Z</time>
      </trkpt>
      <trkpt lat="47.56214" lon="-2.2767">
        <ele>48.68</ele>
        <time>2014-09-21T06:44:47Z</time>
      </trkpt>
      <trkpt lat="47.56216" lon="-2.27685">
        <ele>48.68</ele>
        <time>2014-09-21T06:44:51Z</time>
      </trkpt>
      <trkpt lat="47.5623" lon="-2.27685">
        <ele>48.68</ele>
        <time>2014-09-21T06:44:56Z</time>
      </trkpt>
      <trkpt lat="47.56237" lon="-2.27674">
        <ele>49.16</ele>
        <time>2014-09-21T06:44:59Z</time>
      </trkpt>
      <trkpt lat="47.56244" lon="-2.2766">
        <ele>49.65</ele>
        <time>2014-09-21T06:45:03Z</time>
      </trkpt>
      <trkpt lat="47.56252" lon="-2.27644">
        <ele>51.09</ele>
        <time>2014-09-21T06:45:09Z</time>
      </trkpt>
      <trkpt lat="47.56261" lon="-2.27646">
        <ele>52.53</ele>
        <time>2014-09-21T06:45:14Z</time>
      </trkpt>
      <trkpt lat="47.56269" lon="-2.27658">
        <ele>52.05</ele>
        <time>2014-09-21T06:45:18Z</time>
      </trkpt>
      <trkpt lat="47.56267" lon="-2.27674">
        <ele>50.61</ele>
        <time>2014-09-21T06:45:22Z</time>
      </trkpt>
      <trkpt lat="47.56261" lon="-2.27686">
        <ele>49.16</ele>
        <time>2014-09-21T06:45:25Z</time>
      </trkpt>
      <trkpt lat="47.56251" lon="-2.277">
        <ele>45.8</ele>
        <time>2014-09-21T06:45:34Z</time>
      </trkpt>
      <trkpt lat="47.56243" lon="-2.27718">
        <ele>43.88</ele>
        <time>2014-09-21T06:45:39Z</time>
      </trkpt>
      <trkpt lat="47.56237" lon="-2.27733">
        <ele>42.44</ele>
        <time>2014-09-21T06:45:42Z</time>
      </trkpt>
      <trkpt lat="47.56242" lon="-2.27754">
        <ele>38.11</ele>
        <time>2014-09-21T06:45:46Z</time>
      </trkpt>
      <trkpt lat="47.56247" lon="-2.27773">
        <ele>34.26</ele>
        <time>2014-09-21T06:45:49Z</time>
      </trkpt>
      <trkpt lat="47.56257" lon="-2.27782">
        <ele>31.38</ele>
        <time>2014-09-21T06:45:52Z</time>
      </trkpt>
      <trkpt lat="47.56269" lon="-2.27783">
        <ele>29.46</ele>
        <time>2014-09-21T06:45:55Z</time>
      </trkpt>
      <trkpt lat="47.56279" lon="-2.27779">
        <ele>28.5</ele>
        <time>2014-09-21T06:45:58Z</time>
      </trkpt>
      <trkpt lat="47.56289" lon="-2.27772">
        <ele>28.5</ele>
        <time>2014-09-21T06:46:02Z</time>
      </trkpt>
      <trkpt lat="47.56299" lon="-2.27769">
        <ele>30.42</ele>
        <time>2014-09-21T06:46:06Z</time>
      </trkpt>
      <trkpt lat="47.563" lon="-2.27761">
        <ele>35.23</ele>
        <time>2014-09-21T06:46:12Z</time>
      </trkpt>
      <trkpt lat="47.56291" lon="-2.27758">
        <ele>36.19</ele>
        <time>2014-09-21T06:46:18Z</time>
      </trkpt>
      <trkpt lat="47.56278" lon="-2.27761">
        <ele>36.67</ele>
        <time>2014-09-21T06:46:23Z</time>
      </trkpt>
      <trkpt lat="47.5627" lon="-2.27754">
        <ele>37.63</ele>
        <time>2014-09-21T06:46:27Z</time>
      </trkpt>
      <trkpt lat="47.56263" lon="-2.27739">
        <ele>41.95</ele>
        <time>2014-09-21T06:46:35Z</time>
      </trkpt>
      <trkpt lat="47.56269" lon="-2.27725">
        <ele>47.24</ele>
        <time>2014-09-21T06:46:43Z</time>
      </trkpt>
      <trkpt lat="47.56279" lon="-2.2771">
        <ele>52.53</ele>
        <time>2014-09-21T06:46:52Z</time>
      </trkpt>
      <trkpt lat="47.56291" lon="-2.27705">
        <ele>56.86</ele>
        <time>2014-09-21T06:46:59Z</time>
      </trkpt>
      <trkpt lat="47.56305" lon="-2.27693">
        <ele>55.41</ele>
        <time>2014-09-21T06:47:04Z</time>
      </trkpt>
      <trkpt lat="47.56316" lon="-2.2769">
        <ele>57.34</ele>
        <time>2014-09-21T06:47:10Z</time>
      </trkpt>
      <trkpt lat="47.56327" lon="-2.2769">
        <ele>59.74</ele>
        <time>2014-09-21T06:47:15Z</time>
      </trkpt>
      <trkpt lat="47.56338" lon="-2.27688">
        <ele>58.78</ele>
        <time>2014-09-21T06:47:19Z</time>
      </trkpt>
      <trkpt lat="47.56351" lon="-2.27686">
        <ele>60.22</ele>
        <time>2014-09-21T06:47:24Z</time>
      </trkpt>
      <trkpt lat="47.56361" lon="-2.27684">
        <ele>61.66</ele>
        <time>2014-09-21T06:47:28Z</time>
      </trkpt>
      <trkpt lat="47.56372" lon="-2.27682">
        <ele>63.1</ele>
        <time>2014-09-21T06:47:32Z</time>
      </trkpt>
      <trkpt lat="47.56383" lon="-2.27681">
        <ele>64.55</ele>
        <time>2014-09-21T06:47:36Z</time>
      </trkpt>
      <trkpt lat="47.56393" lon="-2.27675">
        <ele>68.87</ele>
        <time>2014-09-21T06:47:41Z</time>
      </trkpt>
      <trkpt lat="47.56401" lon="-2.27659">
        <ele>70.79</ele>
        <time>2014-09-21T06:47:46Z</time>
      </trkpt>
      <trkpt lat="47.56407" lon="-2.27645">
        <ele>72.24</ele>
        <time>2014-09-21T06:47:51Z</time>
      </trkpt>
      <trkpt lat="47.56412" lon="-2.27631">
        <ele>73.2</ele>
        <time>2014-09-21T06:47:55Z</time>
      </trkpt>
      <trkpt lat="47.56419" lon="-2.27612">
        <ele>73.68</ele>
        <time>2014-09-21T06:48:00Z</time>
      </trkpt>
      <trkpt lat="47.56423" lon="-2.27596">
        <ele>74.64</ele>
        <time>2014-09-21T06:48:05Z</time>
      </trkpt>
      <trkpt lat="47.56424" lon="-2.27579">
        <ele>77.04</ele>
        <time>2014-09-21T06:48:11Z</time>
      </trkpt>
      <trkpt lat="47.56426" lon="-2.27565">
        <ele>79.93</ele>
        <time>2014-09-21T06:48:19Z</time>
      </trkpt>
      <trkpt lat="47.56426" lon="-2.27549">
        <ele>81.37</ele>
        <time>2014-09-21T06:48:26Z</time>
      </trkpt>
      <trkpt lat="47.56426" lon="-2.27527">
        <ele>82.81</ele>
        <time>2014-09-21T06:48:34Z</time>
      </trkpt>
      <trkpt lat="47.56427" lon="-2.27504">
        <ele>81.37</ele>
        <time>2014-09-21T06:48:41Z</time>
      </trkpt>
      <trkpt lat="47.5642" lon="-2.27489">
        <ele>76.08</ele>
        <time>2014-09-21T06:48:46Z</time>
      </trkpt>
      <trkpt lat="47.5641" lon="-2.2748">
        <ele>71.76</ele>
        <time>2014-09-21T06:48:51Z</time>
      </trkpt>
      <trkpt lat="47.564" lon="-2.27474">
        <ele>68.87</ele>
        <time>2014-09-21T06:48:56Z</time>
      </trkpt>
      <trkpt lat="47.56393" lon="-2.27461">
        <ele>65.99</ele>
        <time>2014-09-21T06:49:01Z</time>
      </trkpt>
      <trkpt lat="47.56392" lon="-2.27443">
        <ele>65.03</ele>
        <time>2014-09-21T06:49:05Z</time>
      </trkpt>
      <trkpt lat="47.56391" lon="-2.27426">
        <ele>64.55</ele>
        <time>2014-09-21T06:49:09Z</time>
      </trkpt>
      <trkpt lat="47.5639" lon="-2.27411">
        <ele>63.58</ele>
        <time>2014-09-21T06:49:12Z</time>
      </trkpt>
      <trkpt lat="47.56391" lon="-2.27396">
        <ele>62.62</ele>
        <time>2014-09-21T06:49:15Z</time>
      </trkpt>
      <trkpt lat="47.56391" lon="-2.2738">
        <ele>62.14</ele>
        <time>2014-09-21T06:49:18Z</time>
      </trkpt>
      <trkpt lat="47.56391" lon="-2.27365">
        <ele>61.66</ele>
        <time>2014-09-21T06:49:21Z</time>
      </trkpt>
      <trkpt lat="47.56392" lon="-2.27348">
        <ele>61.18</ele>
        <time>2014-09-21T06:49:24Z</time>
      </trkpt>
      <trkpt lat="47.56391" lon="-2.27333">
        <ele>60.22</ele>
        <time>2014-09-21T06:49:27Z</time>
      </trkpt>
      <trkpt lat="47.56392" lon="-2.27317">
        <ele>59.26</ele>
        <time>2014-09-21T06:49:31Z</time>
      </trkpt>
      <trkpt lat="47.56401" lon="-2.27309">
        <ele>58.78</ele>
        <time>2014-09-21T06:49:35Z</time>
      </trkpt>
      <trkpt lat="47.56412" lon="-2.27305">
        <ele>59.26</ele>
        <time>2014-09-21T06:49:39Z</time>
      </trkpt>
      <trkpt lat="47.56422" lon="-2.27303">
        <ele>59.26</ele>
        <time>2014-09-21T06:49:43Z</time>
      </trkpt>
      <trkpt lat="47.56432" lon="-2.273">
        <ele>59.26</ele>
        <time>2014-09-21T06:49:47Z</time>
      </trkpt>
      <trkpt lat="47.56441" lon="-2.27297">
        <ele>59.74</ele>
        <time>2014-09-21T06:49:50Z</time>
      </trkpt>
      <trkpt lat="47.56452" lon="-2.27295">
        <ele>60.22</ele>
        <time>2014-09-21T06:49:53Z</time>
      </trkpt>
      <trkpt lat="47.56464" lon="-2.27293">
        <ele>60.22</ele>
        <time>2014-09-21T06:49:56Z</time>
      </trkpt>
      <trkpt lat="47.56477" lon="-2.27291">
        <ele>60.22</ele>
        <time>2014-09-21T06:49:59Z</time>
      </trkpt>
      <trkpt lat="47.56489" lon="-2.27287">
        <ele>59.74</ele>
        <time>2014-09-21T06:50:02Z</time>
      </trkpt>
      <trkpt lat="47.56499" lon="-2.27285">
        <ele>59.26</ele>
        <time>2014-09-21T06:50:04Z</time>
      </trkpt>
      <trkpt lat="47.56508" lon="-2.27283">
        <ele>58.78</ele>
        <time>2014-09-21T06:50:06Z</time>
      </trkpt>
      <trkpt lat="47.56518" lon="-2.27281">
        <ele>58.78</ele>
        <time>2014-09-21T06:50:08Z</time>
      </trkpt>
      <trkpt lat="47.56529" lon="-2.27281">
        <ele>58.3</ele>
        <time>2014-09-21T06:50:10Z</time>
      </trkpt>
      <trkpt lat="47.56539" lon="-2.27279">
        <ele>57.34</ele>
        <time>2014-09-21T06:50:12Z</time>
      </trkpt>
      <trkpt lat="47.56548" lon="-2.27278">
        <ele>57.34</ele>
        <time>2014-09-21T06:50:14Z</time>
      </trkpt>
      <trkpt lat="47.56558" lon="-2.27277">
        <ele>56.86</ele>
        <time>2014-09-21T06:50:16Z</time>
      </trkpt>
      <trkpt lat="47.5657" lon="-2.27275">
        <ele>56.86</ele>
        <time>2014-09-21T06:50:19Z</time>
      </trkpt>
      <trkpt lat="47.56583" lon="-2.27273">
        <ele>56.86</ele>
        <time>2014-09-21T06:50:22Z</time>
      </trkpt>
      <trkpt lat="47.56594" lon="-2.2727">
        <ele>57.82</ele>
        <time>2014-09-21T06:50:25Z</time>
      </trkpt>
      <trkpt lat="47.56606" lon="-2.27269">
        <ele>59.74</ele>
        <time>2014-09-21T06:50:28Z</time>
      </trkpt>
      <trkpt lat="47.56618" lon="-2.27268">
        <ele>61.66</ele>
        <time>2014-09-21T06:50:31Z</time>
      </trkpt>
      <trkpt lat="47.56629" lon="-2.27269">
        <ele>63.58</ele>
        <time>2014-09-21T06:50:34Z</time>
      </trkpt>
      <trkpt lat="47.56639" lon="-2.2727">
        <ele>65.03</ele>
        <time>2014-09-21T06:50:36Z</time>
      </trkpt>
      <trkpt lat="47.56651" lon="-2.27271">
        <ele>66.47</ele>
        <time>2014-09-21T06:50:38Z</time>
      </trkpt>
      <trkpt lat="47.56663" lon="-2.27272">
        <ele>68.39</ele>
        <time>2014-09-21T06:50:40Z</time>
      </trkpt>
      <trkpt lat="47.56678" lon="-2.27277">
        <ele>69.83</ele>
        <time>2014-09-21T06:50:42Z</time>
      </trkpt>
      <trkpt lat="47.56692" lon="-2.2728">
        <ele>70.79</ele>
        <time>2014-09-21T06:50:44Z</time>
      </trkpt>
      <trkpt lat="47.56708" lon="-2.27281">
        <ele>71.76</ele>
        <time>2014-09-21T06:50:46Z</time>
      </trkpt>
      <trkpt lat="47.56719" lon="-2.27275">
        <ele>72.24</ele>
        <time>2014-09-21T06:50:48Z</time>
      </trkpt>
      <trkpt lat="47.56735" lon="-2.27264">
        <ele>69.83</ele>
        <time>2014-09-21T06:50:51Z</time>
      </trkpt>
      <trkpt lat="47.56734" lon="-2.27249">
        <ele>69.83</ele>
        <time>2014-09-21T06:50:54Z</time>
      </trkpt>
      <trkpt lat="47.56733" lon="-2.27237">
        <ele>70.79</ele>
        <time>2014-09-21T06:50:57Z</time>
      </trkpt>
      <trkpt lat="47.56731" lon="-2.27224">
        <ele>71.76</ele>
        <time>2014-09-21T06:51:01Z</time>
      </trkpt>
      <trkpt lat="47.56729" lon="-2.27208">
        <ele>72.24</ele>
        <time>2014-09-21T06:51:05Z</time>
      </trkpt>
      <trkpt lat="47.56726" lon="-2.2719">
        <ele>71.76</ele>
        <time>2014-09-21T06:51:08Z</time>
      </trkpt>
      <trkpt lat="47.56723" lon="-2.27173">
        <ele>70.79</ele>
        <time>2014-09-21T06:51:10Z</time>
      </trkpt>
      <trkpt lat="47.56721" lon="-2.27155">
        <ele>69.35</ele>
        <time>2014-09-21T06:51:12Z</time>
      </trkpt>
      <trkpt lat="47.5672" lon="-2.27138">
        <ele>66.47</ele>
        <time>2014-09-21T06:51:14Z</time>
      </trkpt>
      <trkpt lat="47.56718" lon="-2.27117">
        <ele>62.62</ele>
        <time>2014-09-21T06:51:17Z</time>
      </trkpt>
      <trkpt lat="47.56717" lon="-2.271">
        <ele>59.26</ele>
        <time>2014-09-21T06:51:20Z</time>
      </trkpt>
      <trkpt lat="47.56715" lon="-2.27083">
        <ele>57.34</ele>
        <time>2014-09-21T06:51:23Z</time>
      </trkpt>
      <trkpt lat="47.56713" lon="-2.27067">
        <ele>56.37</ele>
        <time>2014-09-21T06:51:26Z</time>
      </trkpt>
      <trkpt lat="47.5671" lon="-2.27052">
        <ele>55.41</ele>
        <time>2014-09-21T06:51:29Z</time>
      </trkpt>
      <trkpt lat="47.56707" lon="-2.27036">
        <ele>55.41</ele>
        <time>2014-09-21T06:51:32Z</time>
      </trkpt>
      <trkpt lat="47.56705" lon="-2.2702">
        <ele>54.93</ele>
        <time>2014-09-21T06:51:35Z</time>
      </trkpt>
      <trkpt lat="47.56701" lon="-2.27005">
        <ele>54.93</ele>
        <time>2014-09-21T06:51:38Z</time>
      </trkpt>
      <trkpt lat="47.56698" lon="-2.26988">
        <ele>54.45</ele>
        <time>2014-09-21T06:51:41Z</time>
      </trkpt>
      <trkpt lat="47.56695" lon="-2.26972">
        <ele>54.45</ele>
        <time>2014-09-21T06:51:44Z</time>
      </trkpt>
      <trkpt lat="47.56693" lon="-2.26956">
        <ele>54.93</ele>
        <time>2014-09-21T06:51:47Z</time>
      </trkpt>
      <trkpt lat="47.56689" lon="-2.2694">
        <ele>54.93</ele>
        <time>2014-09-21T06:51:50Z</time>
      </trkpt>
      <trkpt lat="47.56686" lon="-2.26925">
        <ele>55.41</ele>
        <time>2014-09-21T06:51:53Z</time>
      </trkpt>
      <trkpt lat="47.56683" lon="-2.2691">
        <ele>54.93</ele>
        <time>2014-09-21T06:51:56Z</time>
      </trkpt>
      <trkpt lat="47.5668" lon="-2.26895">
        <ele>55.41</ele>
        <time>2014-09-21T06:51:59Z</time>
      </trkpt>
      <trkpt lat="47.56677" lon="-2.2688">
        <ele>55.41</ele>
        <time>2014-09-21T06:52:02Z</time>
      </trkpt>
      <trkpt lat="47.56674" lon="-2.26865">
        <ele>55.41</ele>
        <time>2014-09-21T06:52:05Z</time>
      </trkpt>
      <trkpt lat="47.56671" lon="-2.26851">
        <ele>55.41</ele>
        <time>2014-09-21T06:52:08Z</time>
      </trkpt>
      <trkpt lat="47.56669" lon="-2.26837">
        <ele>55.41</ele>
        <time>2014-09-21T06:52:11Z</time>
      </trkpt>
      <trkpt lat="47.56668" lon="-2.26825">
        <ele>54.93</ele>
        <time>2014-09-21T06:52:14Z</time>
      </trkpt>
      <trkpt lat="47.56677" lon="-2.26822">
        <ele>54.45</ele>
        <time>2014-09-21T06:52:17Z</time>
      </trkpt>
      <trkpt lat="47.56688" lon="-2.26823">
        <ele>54.45</ele>
        <time>2014-09-21T06:52:20Z</time>
      </trkpt>
      <trkpt lat="47.567" lon="-2.26824">
        <ele>53.97</ele>
        <time>2014-09-21T06:52:23Z</time>
      </trkpt>
      <trkpt lat="47.56712" lon="-2.26824">
        <ele>53.97</ele>
        <time>2014-09-21T06:52:26Z</time>
      </trkpt>
      <trkpt lat="47.56723" lon="-2.26825">
        <ele>53.49</ele>
        <time>2014-09-21T06:52:29Z</time>
      </trkpt>
      <trkpt lat="47.56735" lon="-2.26826">
        <ele>53.49</ele>
        <time>2014-09-21T06:52:32Z</time>
      </trkpt>
      <trkpt lat="47.56747" lon="-2.26827">
        <ele>53.01</ele>
        <time>2014-09-21T06:52:35Z</time>
      </trkpt>
      <trkpt lat="47.56759" lon="-2.26828">
        <ele>52.53</ele>
        <time>2014-09-21T06:52:38Z</time>
      </trkpt>
      <trkpt lat="47.5677" lon="-2.26829">
        <ele>52.05</ele>
        <time>2014-09-21T06:52:41Z</time>
      </trkpt>
      <trkpt lat="47.56782" lon="-2.2683">
        <ele>52.05</ele>
        <time>2014-09-21T06:52:44Z</time>
      </trkpt>
      <trkpt lat="47.56794" lon="-2.26831">
        <ele>52.05</ele>
        <time>2014-09-21T06:52:47Z</time>
      </trkpt>
      <trkpt lat="47.56808" lon="-2.26831">
        <ele>51.57</ele>
        <time>2014-09-21T06:52:50Z</time>
      </trkpt>
      <trkpt lat="47.5682" lon="-2.26832">
        <ele>50.61</ele>
        <time>2014-09-21T06:52:52Z</time>
      </trkpt>
      <trkpt lat="47.56834" lon="-2.26832">
        <ele>49.65</ele>
        <time>2014-09-21T06:52:54Z</time>
      </trkpt>
      <trkpt lat="47.5685" lon="-2.26831">
        <ele>48.68</ele>
        <time>2014-09-21T06:52:56Z</time>
      </trkpt>
      <trkpt lat="47.5686" lon="-2.26831">
        <ele>48.2</ele>
        <time>2014-09-21T06:52:57Z</time>
      </trkpt>
      <trkpt lat="47.56871" lon="-2.26833">
        <ele>46.76</ele>
        <time>2014-09-21T06:52:58Z</time>
      </trkpt>
      <trkpt lat="47.56881" lon="-2.26834">
        <ele>46.28</ele>
        <time>2014-09-21T06:52:59Z</time>
      </trkpt>
      <trkpt lat="47.56896" lon="-2.26832">
        <ele>44.84</ele>
        <time>2014-09-21T06:53:01Z</time>
      </trkpt>
      <trkpt lat="47.56907" lon="-2.26823">
        <ele>43.88</ele>
        <time>2014-09-21T06:53:03Z</time>
      </trkpt>
      <trkpt lat="47.56912" lon="-2.26807">
        <ele>42.92</ele>
        <time>2014-09-21T06:53:06Z</time>
      </trkpt>
      <trkpt lat="47.56915" lon="-2.2679">
        <ele>41.47</ele>
        <time>2014-09-21T06:53:10Z</time>
      </trkpt>
      <trkpt lat="47.56922" lon="-2.26782">
        <ele>42.92</ele>
        <time>2014-09-21T06:53:15Z</time>
      </trkpt>
      <trkpt lat="47.56924" lon="-2.26798">
        <ele>45.32</ele>
        <time>2014-09-21T06:53:20Z</time>
      </trkpt>
      <trkpt lat="47.56925" lon="-2.26817">
        <ele>47.24</ele>
        <time>2014-09-21T06:53:24Z</time>
      </trkpt>
      <trkpt lat="47.56925" lon="-2.26832">
        <ele>48.2</ele>
        <time>2014-09-21T06:53:27Z</time>
      </trkpt>
      <trkpt lat="47.56928" lon="-2.26849">
        <ele>48.68</ele>
        <time>2014-09-21T06:53:30Z</time>
      </trkpt>
      <trkpt lat="47.56931" lon="-2.26867">
        <ele>47.72</ele>
        <time>2014-09-21T06:53:33Z</time>
      </trkpt>
      <trkpt lat="47.56938" lon="-2.26886">
        <ele>45.32</ele>
        <time>2014-09-21T06:53:36Z</time>
      </trkpt>
      <trkpt lat="47.56943" lon="-2.26901">
        <ele>43.4</ele>
        <time>2014-09-21T06:53:39Z</time>
      </trkpt>
      <trkpt lat="47.56949" lon="-2.26917">
        <ele>40.51</ele>
        <time>2014-09-21T06:53:42Z</time>
      </trkpt>
      <trkpt lat="47.56956" lon="-2.26934">
        <ele>38.11</ele>
        <time>2014-09-21T06:53:45Z</time>
      </trkpt>
      <trkpt lat="47.56963" lon="-2.26952">
        <ele>38.11</ele>
        <time>2014-09-21T06:53:48Z</time>
      </trkpt>
      <trkpt lat="47.56971" lon="-2.26967">
        <ele>37.63</ele>
        <time>2014-09-21T06:53:51Z</time>
      </trkpt>
      <trkpt lat="47.5698" lon="-2.26977">
        <ele>38.11</ele>
        <time>2014-09-21T06:53:54Z</time>
      </trkpt>
      <trkpt lat="47.5699" lon="-2.26985">
        <ele>38.59</ele>
        <time>2014-09-21T06:53:57Z</time>
      </trkpt>
      <trkpt lat="47.57" lon="-2.26994">
        <ele>39.07</ele>
        <time>2014-09-21T06:54:00Z</time>
      </trkpt>
      <trkpt lat="47.57012" lon="-2.27003">
        <ele>40.03</ele>
        <time>2014-09-21T06:54:03Z</time>
      </trkpt>
      <trkpt lat="47.57024" lon="-2.27011">
        <ele>40.99</ele>
        <time>2014-09-21T06:54:06Z</time>
      </trkpt>
      <trkpt lat="47.57033" lon="-2.27018">
        <ele>42.44</ele>
        <time>2014-09-21T06:54:09Z</time>
      </trkpt>
      <trkpt lat="47.57042" lon="-2.27025">
        <ele>42.92</ele>
        <time>2014-09-21T06:54:12Z</time>
      </trkpt>
      <trkpt lat="47.57053" lon="-2.27034">
        <ele>43.4</ele>
        <time>2014-09-21T06:54:15Z</time>
      </trkpt>
      <trkpt lat="47.57064" lon="-2.27041">
        <ele>43.4</ele>
        <time>2014-09-21T06:54:18Z</time>
      </trkpt>
      <trkpt lat="47.57074" lon="-2.27048">
        <ele>44.36</ele>
        <time>2014-09-21T06:54:21Z</time>
      </trkpt>
      <trkpt lat="47.57084" lon="-2.27055">
        <ele>44.84</ele>
        <time>2014-09-21T06:54:24Z</time>
      </trkpt>
      <trkpt lat="47.57096" lon="-2.27065">
        <ele>45.32</ele>
        <time>2014-09-21T06:54:27Z</time>
      </trkpt>
      <trkpt lat="47.57109" lon="-2.27074">
        <ele>45.8</ele>
        <time>2014-09-21T06:54:30Z</time>
      </trkpt>
      <trkpt lat="47.57119" lon="-2.27082">
        <ele>45.32</ele>
        <time>2014-09-21T06:54:32Z</time>
      </trkpt>
      <trkpt lat="47.57131" lon="-2.27089">
        <ele>45.32</ele>
        <time>2014-09-21T06:54:34Z</time>
      </trkpt>
      <trkpt lat="47.57145" lon="-2.27098">
        <ele>44.84</ele>
        <time>2014-09-21T06:54:36Z</time>
      </trkpt>
      <trkpt lat="47.57158" lon="-2.27105">
        <ele>44.36</ele>
        <time>2014-09-21T06:54:38Z</time>
      </trkpt>
      <trkpt lat="47.5717" lon="-2.27112">
        <ele>43.88</ele>
        <time>2014-09-21T06:54:40Z</time>
      </trkpt>
      <trkpt lat="47.57179" lon="-2.27128">
        <ele>42.44</ele>
        <time>2014-09-21T06:54:42Z</time>
      </trkpt>
      <trkpt lat="47.57183" lon="-2.27147">
        <ele>41.47</ele>
        <time>2014-09-21T06:54:44Z</time>
      </trkpt>
      <trkpt lat="47.57185" lon="-2.27169">
        <ele>39.55</ele>
        <time>2014-09-21T06:54:46Z</time>
      </trkpt>
      <trkpt lat="47.57186" lon="-2.27191">
        <ele>38.11</ele>
        <time>2014-09-21T06:54:48Z</time>
      </trkpt>
      <trkpt lat="47.57188" lon="-2.27211">
        <ele>36.67</ele>
        <time>2014-09-21T06:54:50Z</time>
      </trkpt>
      <trkpt lat="47.57189" lon="-2.27231">
        <ele>36.19</ele>
        <time>2014-09-21T06:54:52Z</time>
      </trkpt>
      <trkpt lat="47.5719" lon="-2.27248">
        <ele>35.71</ele>
        <time>2014-09-21T06:54:54Z</time>
      </trkpt>
      <trkpt lat="47.5719" lon="-2.27263">
        <ele>35.71</ele>
        <time>2014-09-21T06:54:56Z</time>
      </trkpt>
      <trkpt lat="47.57191" lon="-2.27278">
        <ele>35.23</ele>
        <time>2014-09-21T06:54:58Z</time>
      </trkpt>
      <trkpt lat="47.57192" lon="-2.27291">
        <ele>35.23</ele>
        <time>2014-09-21T06:55:00Z</time>
      </trkpt>
      <trkpt lat="47.57194" lon="-2.27311">
        <ele>35.23</ele>
        <time>2014-09-21T06:55:03Z</time>
      </trkpt>
      <trkpt lat="47.57195" lon="-2.27331">
        <ele>34.74</ele>
        <time>2014-09-21T06:55:06Z</time>
      </trkpt>
      <trkpt lat="47.57196" lon="-2.27351">
        <ele>34.26</ele>
        <time>2014-09-21T06:55:09Z</time>
      </trkpt>
      <trkpt lat="47.57196" lon="-2.27365">
        <ele>33.3</ele>
        <time>2014-09-21T06:55:11Z</time>
      </trkpt>
      <trkpt lat="47.57197" lon="-2.27381">
        <ele>32.34</ele>
        <time>2014-09-21T06:55:13Z</time>
      </trkpt>
      <trkpt lat="47.57197" lon="-2.27398">
        <ele>30.9</ele>
        <time>2014-09-21T06:55:15Z</time>
      </trkpt>
      <trkpt lat="47.57198" lon="-2.27416">
        <ele>29.94</ele>
        <time>2014-09-21T06:55:17Z</time>
      </trkpt>
      <trkpt lat="47.57199" lon="-2.27434">
        <ele>28.5</ele>
        <time>2014-09-21T06:55:19Z</time>
      </trkpt>
      <trkpt lat="47.572" lon="-2.27454">
        <ele>27.05</ele>
        <time>2014-09-21T06:55:21Z</time>
      </trkpt>
      <trkpt lat="47.57201" lon="-2.27475">
        <ele>26.09</ele>
        <time>2014-09-21T06:55:23Z</time>
      </trkpt>
      <trkpt lat="47.57202" lon="-2.27494">
        <ele>25.61</ele>
        <time>2014-09-21T06:55:25Z</time>
      </trkpt>
      <trkpt lat="47.57203" lon="-2.27514">
        <ele>24.65</ele>
        <time>2014-09-21T06:55:27Z</time>
      </trkpt>
      <trkpt lat="47.57204" lon="-2.27533">
        <ele>24.17</ele>
        <time>2014-09-21T06:55:29Z</time>
      </trkpt>
      <trkpt lat="47.57205" lon="-2.27552">
        <ele>24.17</ele>
        <time>2014-09-21T06:55:31Z</time>
      </trkpt>
      <trkpt lat="47.57206" lon="-2.2757">
        <ele>23.69</ele>
        <time>2014-09-21T06:55:33Z</time>
      </trkpt>
      <trkpt lat="47.57207" lon="-2.27588">
        <ele>23.21</ele>
        <time>2014-09-21T06:55:35Z</time>
      </trkpt>
      <trkpt lat="47.57208" lon="-2.27604">
        <ele>23.21</ele>
        <time>2014-09-21T06:55:37Z</time>
      </trkpt>
      <trkpt lat="47.5721" lon="-2.27619">
        <ele>23.21</ele>
        <time>2014-09-21T06:55:39Z</time>
      </trkpt>
      <trkpt lat="47.57213" lon="-2.27632">
        <ele>23.21</ele>
        <time>2014-09-21T06:55:41Z</time>
      </trkpt>
      <trkpt lat="47.57218" lon="-2.2765">
        <ele>23.69</ele>
        <time>2014-09-21T06:55:44Z</time>
      </trkpt>
      <trkpt lat="47.57222" lon="-2.27667">
        <ele>23.69</ele>
        <time>2014-09-21T06:55:47Z</time>
      </trkpt>
      <trkpt lat="47.57226" lon="-2.27685">
        <ele>23.69</ele>
        <time>2014-09-21T06:55:50Z</time>
      </trkpt>
      <trkpt lat="47.57229" lon="-2.27697">
        <ele>23.21</ele>
        <time>2014-09-21T06:55:52Z</time>
      </trkpt>
      <trkpt lat="47.57233" lon="-2.27711">
        <ele>22.73</ele>
        <time>2014-09-21T06:55:54Z</time>
      </trkpt>
      <trkpt lat="47.57236" lon="-2.27724">
        <ele>22.25</ele>
        <time>2014-09-21T06:55:56Z</time>
      </trkpt>
      <trkpt lat="47.5724" lon="-2.27738">
        <ele>21.29</ele>
        <time>2014-09-21T06:55:58Z</time>
      </trkpt>
      <trkpt lat="47.57244" lon="-2.27753">
        <ele>20.81</ele>
        <time>2014-09-21T06:56:00Z</time>
      </trkpt>
      <trkpt lat="47.57248" lon="-2.27769">
        <ele>20.32</ele>
        <time>2014-09-21T06:56:02Z</time>
      </trkpt>
      <trkpt lat="47.57252" lon="-2.27785">
        <ele>19.36</ele>
        <time>2014-09-21T06:56:04Z</time>
      </trkpt>
      <trkpt lat="47.57257" lon="-2.27802">
        <ele>18.88</ele>
        <time>2014-09-21T06:56:06Z</time>
      </trkpt>
      <trkpt lat="47.57261" lon="-2.27817">
        <ele>18.88</ele>
        <time>2014-09-21T06:56:08Z</time>
      </trkpt>
      <trkpt lat="47.57265" lon="-2.2783">
        <ele>18.88</ele>
        <time>2014-09-21T06:56:10Z</time>
      </trkpt>
      <trkpt lat="47.57269" lon="-2.27847">
        <ele>19.36</ele>
        <time>2014-09-21T06:56:13Z</time>
      </trkpt>
      <trkpt lat="47.57275" lon="-2.27861">
        <ele>20.81</ele>
        <time>2014-09-21T06:56:17Z</time>
      </trkpt>
      <trkpt lat="47.57284" lon="-2.27853">
        <ele>23.21</ele>
        <time>2014-09-21T06:56:21Z</time>
      </trkpt>
      <trkpt lat="47.57288" lon="-2.27841">
        <ele>25.13</ele>
        <time>2014-09-21T06:56:24Z</time>
      </trkpt>
      <trkpt lat="47.57296" lon="-2.27832">
        <ele>26.57</ele>
        <time>2014-09-21T06:56:27Z</time>
      </trkpt>
      <trkpt lat="47.57307" lon="-2.2783">
        <ele>27.53</ele>
        <time>2014-09-21T06:56:30Z</time>
      </trkpt>
      <trkpt lat="47.57318" lon="-2.27831">
        <ele>28.98</ele>
        <time>2014-09-21T06:56:33Z</time>
      </trkpt>
      <trkpt lat="47.57328" lon="-2.27837">
        <ele>30.9</ele>
        <time>2014-09-21T06:56:36Z</time>
      </trkpt>
      <trkpt lat="47.57337" lon="-2.27843">
        <ele>31.86</ele>
        <time>2014-09-21T06:56:39Z</time>
      </trkpt>
      <trkpt lat="47.57349" lon="-2.27852">
        <ele>32.82</ele>
        <time>2014-09-21T06:56:42Z</time>
      </trkpt>
      <trkpt lat="47.57359" lon="-2.27855">
        <ele>33.3</ele>
        <time>2014-09-21T06:56:44Z</time>
      </trkpt>
      <trkpt lat="47.57374" lon="-2.27851">
        <ele>33.78</ele>
        <time>2014-09-21T06:56:47Z</time>
      </trkpt>
      <trkpt lat="47.5738" lon="-2.2784">
        <ele>34.74</ele>
        <time>2014-09-21T06:56:49Z</time>
      </trkpt>
      <trkpt lat="47.57378" lon="-2.27826">
        <ele>35.71</ele>
        <time>2014-09-21T06:56:52Z</time>
      </trkpt>
      <trkpt lat="47.57375" lon="-2.27814">
        <ele>36.67</ele>
        <time>2014-09-21T06:56:55Z</time>
      </trkpt>
      <trkpt lat="47.57372" lon="-2.27797">
        <ele>37.15</ele>
        <time>2014-09-21T06:56:59Z</time>
      </trkpt>
      <trkpt lat="47.5737" lon="-2.2778">
        <ele>36.67</ele>
        <time>2014-09-21T06:57:03Z</time>
      </trkpt>
      <trkpt lat="47.57377" lon="-2.27765">
        <ele>37.15</ele>
        <time>2014-09-21T06:57:07Z</time>
      </trkpt>
      <trkpt lat="47.57384" lon="-2.27751">
        <ele>38.59</ele>
        <time>2014-09-21T06:57:12Z</time>
      </trkpt>
      <trkpt lat="47.57392" lon="-2.27739">
        <ele>39.55</ele>
        <time>2014-09-21T06:57:15Z</time>
      </trkpt>
      <trkpt lat="47.57402" lon="-2.2773">
        <ele>40.03</ele>
        <time>2014-09-21T06:57:18Z</time>
      </trkpt>
      <trkpt lat="47.57411" lon="-2.2772">
        <ele>40.51</ele>
        <time>2014-09-21T06:57:22Z</time>
      </trkpt>
      <trkpt lat="47.57408" lon="-2.27705">
        <ele>40.03</ele>
        <time>2014-09-21T06:57:26Z</time>
      </trkpt>
      <trkpt lat="47.57404" lon="-2.2769">
        <ele>39.55</ele>
        <time>2014-09-21T06:57:29Z</time>
      </trkpt>
      <trkpt lat="47.57405" lon="-2.27675">
        <ele>39.55</ele>
        <time>2014-09-21T06:57:32Z</time>
      </trkpt>
      <trkpt lat="47.57404" lon="-2.27659">
        <ele>39.55</ele>
        <time>2014-09-21T06:57:35Z</time>
      </trkpt>
      <trkpt lat="47.57409" lon="-2.27638">
        <ele>38.11</ele>
        <time>2014-09-21T06:57:38Z</time>
      </trkpt>
      <trkpt lat="47.57419" lon="-2.27625">
        <ele>34.74</ele>
        <time>2014-09-21T06:57:42Z</time>
      </trkpt>
      <trkpt lat="47.57422" lon="-2.2761">
        <ele>32.82</ele>
        <time>2014-09-21T06:57:45Z</time>
      </trkpt>
      <trkpt lat="47.57422" lon="-2.27594">
        <ele>31.38</ele>
        <time>2014-09-21T06:57:48Z</time>
      </trkpt>
      <trkpt lat="47.57419" lon="-2.27577">
        <ele>29.46</ele>
        <time>2014-09-21T06:57:51Z</time>
      </trkpt>
      <trkpt lat="47.5741" lon="-2.27566">
        <ele>27.05</ele>
        <time>2014-09-21T06:57:55Z</time>
      </trkpt>
      <trkpt lat="47.57399" lon="-2.27562">
        <ele>25.61</ele>
        <time>2014-09-21T06:57:58Z</time>
      </trkpt>
      <trkpt lat="47.57387" lon="-2.2755">
        <ele>23.21</ele>
        <time>2014-09-21T06:58:01Z</time>
      </trkpt>
      <trkpt lat="47.57379" lon="-2.27541">
        <ele>22.73</ele>
        <time>2014-09-21T06:58:03Z</time>
      </trkpt>
      <trkpt lat="47.5737" lon="-2.27534">
        <ele>22.25</ele>
        <time>2014-09-21T06:58:05Z</time>
      </trkpt>
      <trkpt lat="47.57361" lon="-2.27524">
        <ele>22.25</ele>
        <time>2014-09-21T06:58:08Z</time>
      </trkpt>
      <trkpt lat="47.57354" lon="-2.27507">
        <ele>22.25</ele>
        <time>2014-09-21T06:58:11Z</time>
      </trkpt>
      <trkpt lat="47.57351" lon="-2.27493">
        <ele>22.25</ele>
        <time>2014-09-21T06:58:13Z</time>
      </trkpt>
      <trkpt lat="47.57348" lon="-2.27478">
        <ele>21.29</ele>
        <time>2014-09-21T06:58:15Z</time>
      </trkpt>
      <trkpt lat="47.57347" lon="-2.27462">
        <ele>20.81</ele>
        <time>2014-09-21T06:58:17Z</time>
      </trkpt>
      <trkpt lat="47.57347" lon="-2.27447">
        <ele>20.32</ele>
        <time>2014-09-21T06:58:19Z</time>
      </trkpt>
      <trkpt lat="47.57351" lon="-2.2743">
        <ele>19.84</ele>
        <time>2014-09-21T06:58:22Z</time>
      </trkpt>
      <trkpt lat="47.57357" lon="-2.27414">
        <ele>19.36</ele>
        <time>2014-09-21T06:58:25Z</time>
      </trkpt>
      <trkpt lat="47.57363" lon="-2.27399">
        <ele>18.88</ele>
        <time>2014-09-21T06:58:28Z</time>
      </trkpt>
      <trkpt lat="47.57364" lon="-2.27383">
        <ele>18.88</ele>
        <time>2014-09-21T06:58:31Z</time>
      </trkpt>
      <trkpt lat="47.57364" lon="-2.27364">
        <ele>19.36</ele>
        <time>2014-09-21T06:58:35Z</time>
      </trkpt>
      <trkpt lat="47.57369" lon="-2.2735">
        <ele>19.36</ele>
        <time>2014-09-21T06:58:39Z</time>
      </trkpt>
      <trkpt lat="47.57374" lon="-2.27329">
        <ele>19.36</ele>
        <time>2014-09-21T06:58:42Z</time>
      </trkpt>
      <trkpt lat="47.57375" lon="-2.27309">
        <ele>18.88</ele>
        <time>2014-09-21T06:58:45Z</time>
      </trkpt>
      <trkpt lat="47.57371" lon="-2.27294">
        <ele>17.92</ele>
        <time>2014-09-21T06:58:48Z</time>
      </trkpt>
      <trkpt lat="47.57362" lon="-2.27283">
        <ele>16.96</ele>
        <time>2014-09-21T06:58:52Z</time>
      </trkpt>
      <trkpt lat="47.57352" lon="-2.27271">
        <ele>16.48</ele>
        <time>2014-09-21T06:58:57Z</time>
      </trkpt>
      <trkpt lat="47.57342" lon="-2.27252">
        <ele>17.92</ele>
        <time>2014-09-21T06:59:08Z</time>
      </trkpt>
      <trkpt lat="47.57351" lon="-2.2724">
        <ele>19.84</ele>
        <time>2014-09-21T06:59:14Z</time>
      </trkpt>
      <trkpt lat="47.57361" lon="-2.27236">
        <ele>21.29</ele>
        <time>2014-09-21T06:59:18Z</time>
      </trkpt>
      <trkpt lat="47.57372" lon="-2.27227">
        <ele>23.21</ele>
        <time>2014-09-21T06:59:22Z</time>
      </trkpt>
      <trkpt lat="47.57383" lon="-2.27218">
        <ele>25.13</ele>
        <time>2014-09-21T06:59:26Z</time>
      </trkpt>
      <trkpt lat="47.57385" lon="-2.27203">
        <ele>26.09</ele>
        <time>2014-09-21T06:59:31Z</time>
      </trkpt>
      <trkpt lat="47.57386" lon="-2.27184">
        <ele>29.46</ele>
        <time>2014-09-21T06:59:38Z</time>
      </trkpt>
      <trkpt lat="47.5739" lon="-2.27169">
        <ele>31.38</ele>
        <time>2014-09-21T06:59:42Z</time>
      </trkpt>
      <trkpt lat="47.57393" lon="-2.27154">
        <ele>33.3</ele>
        <time>2014-09-21T06:59:46Z</time>
      </trkpt>
      <trkpt lat="47.57394" lon="-2.2714">
        <ele>34.26</ele>
        <time>2014-09-21T06:59:49Z</time>
      </trkpt>
      <trkpt lat="47.57388" lon="-2.27127">
        <ele>35.71</ele>
        <time>2014-09-21T06:59:53Z</time>
      </trkpt>
      <trkpt lat="47.57379" lon="-2.27116">
        <ele>36.67</ele>
        <time>2014-09-21T06:59:59Z</time>
      </trkpt>
      <trkpt lat="47.5737" lon="-2.27106">
        <ele>37.15</ele>
        <time>2014-09-21T07:00:06Z</time>
      </trkpt>
      <trkpt lat="47.57359" lon="-2.27093">
        <ele>36.67</ele>
        <time>2014-09-21T07:00:14Z</time>
      </trkpt>
      <trkpt lat="47.57345" lon="-2.27074">
        <ele>28.02</ele>
        <time>2014-09-21T07:09:15Z</time>
      </trkpt>
      <trkpt lat="47.57339" lon="-2.27059">
        <ele>28.02</ele>
        <time>2014-09-21T07:09:18Z</time>
      </trkpt>
      <trkpt lat="47.57331" lon="-2.27049">
        <ele>28.5</ele>
        <time>2014-09-21T07:09:21Z</time>
      </trkpt>
      <trkpt lat="47.57322" lon="-2.27044">
        <ele>30.42</ele>
        <time>2014-09-21T07:09:25Z</time>
      </trkpt>
      <trkpt lat="47.57311" lon="-2.27035">
        <ele>33.3</ele>
        <time>2014-09-21T07:09:31Z</time>
      </trkpt>
      <trkpt lat="47.57306" lon="-2.27022">
        <ele>34.26</ele>
        <time>2014-09-21T07:09:34Z</time>
      </trkpt>
      <trkpt lat="47.57313" lon="-2.27017">
        <ele>34.26</ele>
        <time>2014-09-21T07:09:40Z</time>
      </trkpt>
      <trkpt lat="47.57325" lon="-2.27007">
        <ele>32.82</ele>
        <time>2014-09-21T07:09:44Z</time>
      </trkpt>
      <trkpt lat="47.57333" lon="-2.26996">
        <ele>30.9</ele>
        <time>2014-09-21T07:09:49Z</time>
      </trkpt>
      <trkpt lat="47.57335" lon="-2.2698">
        <ele>31.86</ele>
        <time>2014-09-21T07:09:56Z</time>
      </trkpt>
      <trkpt lat="47.57334" lon="-2.26965">
        <ele>34.26</ele>
        <time>2014-09-21T07:10:03Z</time>
      </trkpt>
      <trkpt lat="47.57327" lon="-2.26948">
        <ele>37.15</ele>
        <time>2014-09-21T07:10:11Z</time>
      </trkpt>
      <trkpt lat="47.57322" lon="-2.26925">
        <ele>40.99</ele>
        <time>2014-09-21T07:10:19Z</time>
      </trkpt>
      <trkpt lat="47.57318" lon="-2.26903">
        <ele>44.84</ele>
        <time>2014-09-21T07:10:25Z</time>
      </trkpt>
      <trkpt lat="47.57316" lon="-2.26884">
        <ele>49.16</ele>
        <time>2014-09-21T07:10:31Z</time>
      </trkpt>
      <trkpt lat="47.57316" lon="-2.26866">
        <ele>49.65</ele>
        <time>2014-09-21T07:10:36Z</time>
      </trkpt>
      <trkpt lat="47.57316" lon="-2.26851">
        <ele>49.16</ele>
        <time>2014-09-21T07:10:41Z</time>
      </trkpt>
      <trkpt lat="47.57317" lon="-2.26829">
        <ele>45.8</ele>
        <time>2014-09-21T07:10:47Z</time>
      </trkpt>
      <trkpt lat="47.57316" lon="-2.26812">
        <ele>44.36</ele>
        <time>2014-09-21T07:10:52Z</time>
      </trkpt>
      <trkpt lat="47.57315" lon="-2.26797">
        <ele>44.36</ele>
        <time>2014-09-21T07:10:57Z</time>
      </trkpt>
      <trkpt lat="47.57312" lon="-2.26782">
        <ele>44.36</ele>
        <time>2014-09-21T07:11:02Z</time>
      </trkpt>
      <trkpt lat="47.57311" lon="-2.26766">
        <ele>44.84</ele>
        <time>2014-09-21T07:11:07Z</time>
      </trkpt>
      <trkpt lat="47.5731" lon="-2.2675">
        <ele>43.4</ele>
        <time>2014-09-21T07:11:12Z</time>
      </trkpt>
      <trkpt lat="47.57308" lon="-2.26732">
        <ele>42.44</ele>
        <time>2014-09-21T07:11:17Z</time>
      </trkpt>
      <trkpt lat="47.57305" lon="-2.26718">
        <ele>42.92</ele>
        <time>2014-09-21T07:11:22Z</time>
      </trkpt>
      <trkpt lat="47.57304" lon="-2.26703">
        <ele>42.92</ele>
        <time>2014-09-21T07:11:30Z</time>
      </trkpt>
      <trkpt lat="47.57313" lon="-2.26698">
        <ele>41.47</ele>
        <time>2014-09-21T07:11:37Z</time>
      </trkpt>
      <trkpt lat="47.57321" lon="-2.26689">
        <ele>40.99</ele>
        <time>2014-09-21T07:11:44Z</time>
      </trkpt>
      <trkpt lat="47.57325" lon="-2.26677">
        <ele>40.99</ele>
        <time>2014-09-21T07:11:49Z</time>
      </trkpt>
      <trkpt lat="47.57326" lon="-2.26662">
        <ele>40.99</ele>
        <time>2014-09-21T07:11:53Z</time>
      </trkpt>
      <trkpt lat="47.57328" lon="-2.26647">
        <ele>41.47</ele>
        <time>2014-09-21T07:11:57Z</time>
      </trkpt>
      <trkpt lat="47.57329" lon="-2.26633">
        <ele>41.47</ele>
        <time>2014-09-21T07:12:01Z</time>
      </trkpt>
      <trkpt lat="47.57331" lon="-2.26618">
        <ele>41.47</ele>
        <time>2014-09-21T07:12:05Z</time>
      </trkpt>
      <trkpt lat="47.57334" lon="-2.26601">
        <ele>41.95</ele>
        <time>2014-09-21T07:12:09Z</time>
      </trkpt>
      <trkpt lat="47.57335" lon="-2.26584">
        <ele>42.44</ele>
        <time>2014-09-21T07:12:13Z</time>
      </trkpt>
      <trkpt lat="47.57336" lon="-2.26567">
        <ele>42.92</ele>
        <time>2014-09-21T07:12:17Z</time>
      </trkpt>
      <trkpt lat="47.57338" lon="-2.2655">
        <ele>43.88</ele>
        <time>2014-09-21T07:12:21Z</time>
      </trkpt>
      <trkpt lat="47.5734" lon="-2.26535">
        <ele>45.32</ele>
        <time>2014-09-21T07:12:25Z</time>
      </trkpt>
      <trkpt lat="47.57341" lon="-2.2652">
        <ele>47.24</ele>
        <time>2014-09-21T07:12:29Z</time>
      </trkpt>
      <trkpt lat="47.57342" lon="-2.26506">
        <ele>48.68</ele>
        <time>2014-09-21T07:12:33Z</time>
      </trkpt>
      <trkpt lat="47.57344" lon="-2.26492">
        <ele>50.13</ele>
        <time>2014-09-21T07:12:37Z</time>
      </trkpt>
      <trkpt lat="47.57346" lon="-2.26478">
        <ele>51.09</ele>
        <time>2014-09-21T07:12:41Z</time>
      </trkpt>
      <trkpt lat="47.5735" lon="-2.26461">
        <ele>53.49</ele>
        <time>2014-09-21T07:12:46Z</time>
      </trkpt>
      <trkpt lat="47.57358" lon="-2.26452">
        <ele>54.45</ele>
        <time>2014-09-21T07:12:51Z</time>
      </trkpt>
      <trkpt lat="47.57368" lon="-2.26449">
        <ele>54.93</ele>
        <time>2014-09-21T07:12:56Z</time>
      </trkpt>
      <trkpt lat="47.57379" lon="-2.26445">
        <ele>55.89</ele>
        <time>2014-09-21T07:13:02Z</time>
      </trkpt>
      <trkpt lat="47.5739" lon="-2.26442">
        <ele>58.3</ele>
        <time>2014-09-21T07:13:08Z</time>
      </trkpt>
      <trkpt lat="47.57404" lon="-2.26435">
        <ele>61.66</ele>
        <time>2014-09-21T07:13:14Z</time>
      </trkpt>
      <trkpt lat="47.57414" lon="-2.26425">
        <ele>60.22</ele>
        <time>2014-09-21T07:13:18Z</time>
      </trkpt>
      <trkpt lat="47.57426" lon="-2.26418">
        <ele>57.34</ele>
        <time>2014-09-21T07:13:23Z</time>
      </trkpt>
      <trkpt lat="47.57438" lon="-2.26414">
        <ele>54.45</ele>
        <time>2014-09-21T07:13:28Z</time>
      </trkpt>
      <trkpt lat="47.57449" lon="-2.26409">
        <ele>52.53</ele>
        <time>2014-09-21T07:13:31Z</time>
      </trkpt>
      <trkpt lat="47.57459" lon="-2.26405">
        <ele>51.09</ele>
        <time>2014-09-21T07:13:33Z</time>
      </trkpt>
      <trkpt lat="47.5747" lon="-2.264">
        <ele>49.16</ele>
        <time>2014-09-21T07:13:35Z</time>
      </trkpt>
      <trkpt lat="47.57479" lon="-2.26387">
        <ele>47.24</ele>
        <time>2014-09-21T07:13:37Z</time>
      </trkpt>
      <trkpt lat="47.57488" lon="-2.26369">
        <ele>45.8</ele>
        <time>2014-09-21T07:13:39Z</time>
      </trkpt>
      <trkpt lat="47.57494" lon="-2.2635">
        <ele>43.88</ele>
        <time>2014-09-21T07:13:41Z</time>
      </trkpt>
      <trkpt lat="47.57499" lon="-2.26329">
        <ele>42.44</ele>
        <time>2014-09-21T07:13:43Z</time>
      </trkpt>
      <trkpt lat="47.57505" lon="-2.2631">
        <ele>41.47</ele>
        <time>2014-09-21T07:13:45Z</time>
      </trkpt>
      <trkpt lat="47.57509" lon="-2.26295">
        <ele>41.47</ele>
        <time>2014-09-21T07:13:47Z</time>
      </trkpt>
      <trkpt lat="47.57511" lon="-2.26276">
        <ele>42.44</ele>
        <time>2014-09-21T07:13:50Z</time>
      </trkpt>
      <trkpt lat="47.57511" lon="-2.2626">
        <ele>43.4</ele>
        <time>2014-09-21T07:13:53Z</time>
      </trkpt>
      <trkpt lat="47.5751" lon="-2.26243">
        <ele>44.36</ele>
        <time>2014-09-21T07:13:56Z</time>
      </trkpt>
      <trkpt lat="47.57508" lon="-2.26222">
        <ele>45.8</ele>
        <time>2014-09-21T07:13:59Z</time>
      </trkpt>
      <trkpt lat="47.57504" lon="-2.26203">
        <ele>46.76</ele>
        <time>2014-09-21T07:14:02Z</time>
      </trkpt>
      <trkpt lat="47.57498" lon="-2.26186">
        <ele>47.72</ele>
        <time>2014-09-21T07:14:05Z</time>
      </trkpt>
      <trkpt lat="47.57494" lon="-2.26171">
        <ele>48.2</ele>
        <time>2014-09-21T07:14:09Z</time>
      </trkpt>
      <trkpt lat="47.5749" lon="-2.26156">
        <ele>49.16</ele>
        <time>2014-09-21T07:14:13Z</time>
      </trkpt>
      <trkpt lat="47.57486" lon="-2.26139">
        <ele>50.13</ele>
        <time>2014-09-21T07:14:17Z</time>
      </trkpt>
      <trkpt lat="47.57483" lon="-2.26126">
        <ele>50.61</ele>
        <time>2014-09-21T07:14:21Z</time>
      </trkpt>
      <trkpt lat="47.5748" lon="-2.2611">
        <ele>51.09</ele>
        <time>2014-09-21T07:14:26Z</time>
      </trkpt>
      <trkpt lat="47.57476" lon="-2.26097">
        <ele>51.09</ele>
        <time>2014-09-21T07:14:30Z</time>
      </trkpt>
      <trkpt lat="47.57472" lon="-2.26082">
        <ele>50.61</ele>
        <time>2014-09-21T07:14:34Z</time>
      </trkpt>
      <trkpt lat="47.57466" lon="-2.26065">
        <ele>49.16</ele>
        <time>2014-09-21T07:14:37Z</time>
      </trkpt>
      <trkpt lat="47.57462" lon="-2.26049">
        <ele>48.2</ele>
        <time>2014-09-21T07:14:39Z</time>
      </trkpt>
      <trkpt lat="47.57458" lon="-2.26032">
        <ele>46.28</ele>
        <time>2014-09-21T07:14:41Z</time>
      </trkpt>
      <trkpt lat="47.57451" lon="-2.26016">
        <ele>44.84</ele>
        <time>2014-09-21T07:14:43Z</time>
      </trkpt>
      <trkpt lat="47.57444" lon="-2.25999">
        <ele>42.92</ele>
        <time>2014-09-21T07:14:45Z</time>
      </trkpt>
      <trkpt lat="47.57435" lon="-2.25977">
        <ele>40.51</ele>
        <time>2014-09-21T07:14:47Z</time>
      </trkpt>
      <trkpt lat="47.57431" lon="-2.25963">
        <ele>39.07</ele>
        <time>2014-09-21T07:14:48Z</time>
      </trkpt>
      <trkpt lat="47.57426" lon="-2.25948">
        <ele>38.11</ele>
        <time>2014-09-21T07:14:49Z</time>
      </trkpt>
      <trkpt lat="47.57421" lon="-2.25932">
        <ele>37.15</ele>
        <time>2014-09-21T07:14:50Z</time>
      </trkpt>
      <trkpt lat="47.57418" lon="-2.25916">
        <ele>35.71</ele>
        <time>2014-09-21T07:14:51Z</time>
      </trkpt>
      <trkpt lat="47.57415" lon="-2.25902">
        <ele>34.74</ele>
        <time>2014-09-21T07:14:52Z</time>
      </trkpt>
      <trkpt lat="47.57414" lon="-2.25889">
        <ele>33.78</ele>
        <time>2014-09-21T07:14:53Z</time>
      </trkpt>
      <trkpt lat="47.57416" lon="-2.25867">
        <ele>31.38</ele>
        <time>2014-09-21T07:14:55Z</time>
      </trkpt>
      <trkpt lat="47.57422" lon="-2.25847">
        <ele>29.46</ele>
        <time>2014-09-21T07:14:57Z</time>
      </trkpt>
      <trkpt lat="47.57429" lon="-2.25829">
        <ele>27.53</ele>
        <time>2014-09-21T07:14:59Z</time>
      </trkpt>
      <trkpt lat="47.57436" lon="-2.25808">
        <ele>25.13</ele>
        <time>2014-09-21T07:15:01Z</time>
      </trkpt>
      <trkpt lat="47.57441" lon="-2.25784">
        <ele>23.69</ele>
        <time>2014-09-21T07:15:03Z</time>
      </trkpt>
      <trkpt lat="47.57442" lon="-2.25767">
        <ele>22.73</ele>
        <time>2014-09-21T07:15:05Z</time>
      </trkpt>
      <trkpt lat="47.57441" lon="-2.25752">
        <ele>20.81</ele>
        <time>2014-09-21T07:15:08Z</time>
      </trkpt>
      <trkpt lat="47.57439" lon="-2.25737">
        <ele>18.88</ele>
        <time>2014-09-21T07:15:12Z</time>
      </trkpt>
      <trkpt lat="47.57433" lon="-2.25721">
        <ele>18.88</ele>
        <time>2014-09-21T07:15:17Z</time>
      </trkpt>
      <trkpt lat="47.57429" lon="-2.25705">
        <ele>19.84</ele>
        <time>2014-09-21T07:15:21Z</time>
      </trkpt>
      <trkpt lat="47.57426" lon="-2.25687">
        <ele>22.25</ele>
        <time>2014-09-21T07:15:25Z</time>
      </trkpt>
      <trkpt lat="47.57424" lon="-2.25666">
        <ele>24.17</ele>
        <time>2014-09-21T07:15:30Z</time>
      </trkpt>
      <trkpt lat="47.57433" lon="-2.25663">
        <ele>25.13</ele>
        <time>2014-09-21T07:15:34Z</time>
      </trkpt>
      <trkpt lat="47.57445" lon="-2.25661">
        <ele>25.61</ele>
        <time>2014-09-21T07:15:37Z</time>
      </trkpt>
      <trkpt lat="47.57459" lon="-2.25658">
        <ele>26.09</ele>
        <time>2014-09-21T07:15:40Z</time>
      </trkpt>
      <trkpt lat="47.57469" lon="-2.25655">
        <ele>25.61</ele>
        <time>2014-09-21T07:15:42Z</time>
      </trkpt>
      <trkpt lat="47.57482" lon="-2.2565">
        <ele>22.73</ele>
        <time>2014-09-21T07:15:44Z</time>
      </trkpt>
      <trkpt lat="47.57494" lon="-2.25645">
        <ele>21.77</ele>
        <time>2014-09-21T07:15:46Z</time>
      </trkpt>
      <trkpt lat="47.57506" lon="-2.25641">
        <ele>20.32</ele>
        <time>2014-09-21T07:15:48Z</time>
      </trkpt>
      <trkpt lat="47.57521" lon="-2.25637">
        <ele>19.36</ele>
        <time>2014-09-21T07:15:50Z</time>
      </trkpt>
      <trkpt lat="47.57538" lon="-2.25635">
        <ele>16.96</ele>
        <time>2014-09-21T07:15:52Z</time>
      </trkpt>
      <trkpt lat="47.57556" lon="-2.25634">
        <ele>14.56</ele>
        <time>2014-09-21T07:15:54Z</time>
      </trkpt>
      <trkpt lat="47.57574" lon="-2.25633">
        <ele>12.63</ele>
        <time>2014-09-21T07:15:56Z</time>
      </trkpt>
      <trkpt lat="47.57589" lon="-2.25632">
        <ele>11.19</ele>
        <time>2014-09-21T07:15:58Z</time>
      </trkpt>
      <trkpt lat="47.57604" lon="-2.25631">
        <ele>10.71</ele>
        <time>2014-09-21T07:16:00Z</time>
      </trkpt>
      <trkpt lat="47.57617" lon="-2.25629">
        <ele>10.23</ele>
        <time>2014-09-21T07:16:02Z</time>
      </trkpt>
      <trkpt lat="47.5763" lon="-2.25628">
        <ele>9.75</ele>
        <time>2014-09-21T07:16:04Z</time>
      </trkpt>
      <trkpt lat="47.57641" lon="-2.25627">
        <ele>9.27</ele>
        <time>2014-09-21T07:16:06Z</time>
      </trkpt>
      <trkpt lat="47.57653" lon="-2.25627">
        <ele>9.27</ele>
        <time>2014-09-21T07:16:08Z</time>
      </trkpt>
      <trkpt lat="47.57664" lon="-2.25626">
        <ele>9.27</ele>
        <time>2014-09-21T07:16:10Z</time>
      </trkpt>
      <trkpt lat="47.57675" lon="-2.25625">
        <ele>8.79</ele>
        <time>2014-09-21T07:16:12Z</time>
      </trkpt>
      <trkpt lat="47.57686" lon="-2.25624">
        <ele>8.31</ele>
        <time>2014-09-21T07:16:14Z</time>
      </trkpt>
      <trkpt lat="47.57697" lon="-2.25624">
        <ele>7.83</ele>
        <time>2014-09-21T07:16:16Z</time>
      </trkpt>
      <trkpt lat="47.57706" lon="-2.25624">
        <ele>7.35</ele>
        <time>2014-09-21T07:16:18Z</time>
      </trkpt>
      <trkpt lat="47.57716" lon="-2.25624">
        <ele>7.35</ele>
        <time>2014-09-21T07:16:20Z</time>
      </trkpt>
      <trkpt lat="47.57729" lon="-2.25623">
        <ele>7.35</ele>
        <time>2014-09-21T07:16:23Z</time>
      </trkpt>
      <trkpt lat="47.5774" lon="-2.25622">
        <ele>6.87</ele>
        <time>2014-09-21T07:16:26Z</time>
      </trkpt>
      <trkpt lat="47.57749" lon="-2.25618">
        <ele>6.87</ele>
        <time>2014-09-21T07:16:29Z</time>
      </trkpt>
      <trkpt lat="47.57751" lon="-2.25605">
        <ele>6.87</ele>
        <time>2014-09-21T07:16:32Z</time>
      </trkpt>
      <trkpt lat="47.57746" lon="-2.25591">
        <ele>6.87</ele>
        <time>2014-09-21T07:16:35Z</time>
      </trkpt>
      <trkpt lat="47.57741" lon="-2.25575">
        <ele>6.39</ele>
        <time>2014-09-21T07:16:38Z</time>
      </trkpt>
      <trkpt lat="47.57735" lon="-2.25559">
        <ele>5.91</ele>
        <time>2014-09-21T07:16:41Z</time>
      </trkpt>
      <trkpt lat="47.57729" lon="-2.25544">
        <ele>5.91</ele>
        <time>2014-09-21T07:16:44Z</time>
      </trkpt>
      <trkpt lat="47.57723" lon="-2.25529">
        <ele>5.91</ele>
        <time>2014-09-21T07:16:47Z</time>
      </trkpt>
      <trkpt lat="47.57716" lon="-2.25513">
        <ele>5.42</ele>
        <time>2014-09-21T07:16:50Z</time>
      </trkpt>
      <trkpt lat="47.57711" lon="-2.25498">
        <ele>4.94</ele>
        <time>2014-09-21T07:16:53Z</time>
      </trkpt>
      <trkpt lat="47.57706" lon="-2.25483">
        <ele>4.94</ele>
        <time>2014-09-21T07:16:56Z</time>
      </trkpt>
      <trkpt lat="47.57701" lon="-2.25467">
        <ele>4.46</ele>
        <time>2014-09-21T07:16:59Z</time>
      </trkpt>
      <trkpt lat="47.57696" lon="-2.2545">
        <ele>4.94</ele>
        <time>2014-09-21T07:17:02Z</time>
      </trkpt>
      <trkpt lat="47.57689" lon="-2.25434">
        <ele>4.46</ele>
        <time>2014-09-21T07:17:05Z</time>
      </trkpt>
      <trkpt lat="47.57678" lon="-2.25425">
        <ele>4.46</ele>
        <time>2014-09-21T07:17:08Z</time>
      </trkpt>
      <trkpt lat="47.57672" lon="-2.25412">
        <ele>4.46</ele>
        <time>2014-09-21T07:17:11Z</time>
      </trkpt>
      <trkpt lat="47.57674" lon="-2.25396">
        <ele>3.98</ele>
        <time>2014-09-21T07:17:14Z</time>
      </trkpt>
      <trkpt lat="47.57673" lon="-2.2538">
        <ele>3.98</ele>
        <time>2014-09-21T07:17:17Z</time>
      </trkpt>
      <trkpt lat="47.57667" lon="-2.25367">
        <ele>3.98</ele>
        <time>2014-09-21T07:17:20Z</time>
      </trkpt>
      <trkpt lat="47.57661" lon="-2.25354">
        <ele>3.5</ele>
        <time>2014-09-21T07:17:23Z</time>
      </trkpt>
      <trkpt lat="47.57655" lon="-2.25341">
        <ele>3.98</ele>
        <time>2014-09-21T07:17:26Z</time>
      </trkpt>
      <trkpt lat="47.57649" lon="-2.2533">
        <ele>3.98</ele>
        <time>2014-09-21T07:17:29Z</time>
      </trkpt>
      <trkpt lat="47.57639" lon="-2.25325">
        <ele>3.98</ele>
        <time>2014-09-21T07:17:32Z</time>
      </trkpt>
      <trkpt lat="47.57628" lon="-2.25324">
        <ele>3.98</ele>
        <time>2014-09-21T07:17:35Z</time>
      </trkpt>
      <trkpt lat="47.57619" lon="-2.25315">
        <ele>4.46</ele>
        <time>2014-09-21T07:17:38Z</time>
      </trkpt>
      <trkpt lat="47.5762" lon="-2.25298">
        <ele>4.46</ele>
        <time>2014-09-21T07:17:41Z</time>
      </trkpt>
      <trkpt lat="47.57622" lon="-2.25281">
        <ele>4.46</ele>
        <time>2014-09-21T07:17:44Z</time>
      </trkpt>
      <trkpt lat="47.57623" lon="-2.25265">
        <ele>4.46</ele>
        <time>2014-09-21T07:17:47Z</time>
      </trkpt>
      <trkpt lat="47.5762" lon="-2.25248">
        <ele>4.94</ele>
        <time>2014-09-21T07:17:50Z</time>
      </trkpt>
      <trkpt lat="47.57613" lon="-2.25234">
        <ele>4.94</ele>
        <time>2014-09-21T07:17:53Z</time>
      </trkpt>
      <trkpt lat="47.57606" lon="-2.2522">
        <ele>4.94</ele>
        <time>2014-09-21T07:17:56Z</time>
      </trkpt>
      <trkpt lat="47.57597" lon="-2.25207">
        <ele>4.46</ele>
        <time>2014-09-21T07:17:59Z</time>
      </trkpt>
      <trkpt lat="47.57587" lon="-2.252">
        <ele>4.94</ele>
        <time>2014-09-21T07:18:02Z</time>
      </trkpt>
      <trkpt lat="47.57576" lon="-2.25193">
        <ele>4.94</ele>
        <time>2014-09-21T07:18:05Z</time>
      </trkpt>
      <trkpt lat="47.57565" lon="-2.25187">
        <ele>4.94</ele>
        <time>2014-09-21T07:18:08Z</time>
      </trkpt>
      <trkpt lat="47.57553" lon="-2.25182">
        <ele>4.94</ele>
        <time>2014-09-21T07:18:11Z</time>
      </trkpt>
      <trkpt lat="47.57542" lon="-2.2518">
        <ele>4.94</ele>
        <time>2014-09-21T07:18:14Z</time>
      </trkpt>
      <trkpt lat="47.57532" lon="-2.25178">
        <ele>4.46</ele>
        <time>2014-09-21T07:18:17Z</time>
      </trkpt>
      <trkpt lat="47.57523" lon="-2.25175">
        <ele>4.46</ele>
        <time>2014-09-21T07:18:20Z</time>
      </trkpt>
      <trkpt lat="47.57515" lon="-2.25162">
        <ele>3.5</ele>
        <time>2014-09-21T07:18:24Z</time>
      </trkpt>
      <trkpt lat="47.57513" lon="-2.25149">
        <ele>3.98</ele>
        <time>2014-09-21T07:18:27Z</time>
      </trkpt>
      <trkpt lat="47.57514" lon="-2.25134">
        <ele>4.46</ele>
        <time>2014-09-21T07:18:30Z</time>
      </trkpt>
      <trkpt lat="47.57517" lon="-2.2512">
        <ele>4.94</ele>
        <time>2014-09-21T07:18:33Z</time>
      </trkpt>
      <trkpt lat="47.57521" lon="-2.25107">
        <ele>5.42</ele>
        <time>2014-09-21T07:18:36Z</time>
      </trkpt>
      <trkpt lat="47.57519" lon="-2.25093">
        <ele>5.42</ele>
        <time>2014-09-21T07:18:39Z</time>
      </trkpt>
      <trkpt lat="47.57514" lon="-2.25079">
        <ele>6.39</ele>
        <time>2014-09-21T07:18:43Z</time>
      </trkpt>
      <trkpt lat="47.57507" lon="-2.25067">
        <ele>6.87</ele>
        <time>2014-09-21T07:18:47Z</time>
      </trkpt>
      <trkpt lat="47.575" lon="-2.25057">
        <ele>7.35</ele>
        <time>2014-09-21T07:18:50Z</time>
      </trkpt>
      <trkpt lat="47.5749" lon="-2.25047">
        <ele>7.35</ele>
        <time>2014-09-21T07:18:53Z</time>
      </trkpt>
      <trkpt lat="47.57482" lon="-2.25034">
        <ele>7.83</ele>
        <time>2014-09-21T07:18:56Z</time>
      </trkpt>
      <trkpt lat="47.5747" lon="-2.25022">
        <ele>8.31</ele>
        <time>2014-09-21T07:18:59Z</time>
      </trkpt>
      <trkpt lat="47.57464" lon="-2.25011">
        <ele>7.83</ele>
        <time>2014-09-21T07:19:01Z</time>
      </trkpt>
      <trkpt lat="47.57455" lon="-2.24998">
        <ele>7.83</ele>
        <time>2014-09-21T07:19:04Z</time>
      </trkpt>
      <trkpt lat="47.57443" lon="-2.24991">
        <ele>8.31</ele>
        <time>2014-09-21T07:19:07Z</time>
      </trkpt>
      <trkpt lat="47.57434" lon="-2.24979">
        <ele>9.27</ele>
        <time>2014-09-21T07:19:10Z</time>
      </trkpt>
      <trkpt lat="47.57425" lon="-2.2497">
        <ele>10.71</ele>
        <time>2014-09-21T07:19:13Z</time>
      </trkpt>
      <trkpt lat="47.57414" lon="-2.24965">
        <ele>11.67</ele>
        <time>2014-09-21T07:19:16Z</time>
      </trkpt>
      <trkpt lat="47.57401" lon="-2.24956">
        <ele>12.63</ele>
        <time>2014-09-21T07:19:19Z</time>
      </trkpt>
      <trkpt lat="47.5739" lon="-2.24947">
        <ele>13.12</ele>
        <time>2014-09-21T07:19:22Z</time>
      </trkpt>
      <trkpt lat="47.57378" lon="-2.24938">
        <ele>13.6</ele>
        <time>2014-09-21T07:19:25Z</time>
      </trkpt>
      <trkpt lat="47.57368" lon="-2.24932">
        <ele>14.08</ele>
        <time>2014-09-21T07:19:28Z</time>
      </trkpt>
      <trkpt lat="47.57352" lon="-2.24931">
        <ele>14.56</ele>
        <time>2014-09-21T07:19:31Z</time>
      </trkpt>
      <trkpt lat="47.57342" lon="-2.24925">
        <ele>15.04</ele>
        <time>2014-09-21T07:19:34Z</time>
      </trkpt>
      <trkpt lat="47.57335" lon="-2.24917">
        <ele>16.48</ele>
        <time>2014-09-21T07:19:39Z</time>
      </trkpt>
      <trkpt lat="47.57327" lon="-2.24905">
        <ele>19.84</ele>
        <time>2014-09-21T07:19:44Z</time>
      </trkpt>
      <trkpt lat="47.57322" lon="-2.24889">
        <ele>23.21</ele>
        <time>2014-09-21T07:19:49Z</time>
      </trkpt>
      <trkpt lat="47.57319" lon="-2.24873">
        <ele>26.09</ele>
        <time>2014-09-21T07:19:54Z</time>
      </trkpt>
      <trkpt lat="47.57313" lon="-2.24856">
        <ele>28.98</ele>
        <time>2014-09-21T07:20:00Z</time>
      </trkpt>
      <trkpt lat="47.57303" lon="-2.24842">
        <ele>27.05</ele>
        <time>2014-09-21T07:20:04Z</time>
      </trkpt>
      <trkpt lat="47.5729" lon="-2.24845">
        <ele>23.69</ele>
        <time>2014-09-21T07:20:07Z</time>
      </trkpt>
      <trkpt lat="47.57285" lon="-2.24855">
        <ele>22.25</ele>
        <time>2014-09-21T07:20:09Z</time>
      </trkpt>
      <trkpt lat="47.57283" lon="-2.24861">
        <ele>17.92</ele>
        <time>2014-09-21T07:26:25Z</time>
      </trkpt>
      <trkpt lat="47.57284" lon="-2.24878">
        <ele>16.48</ele>
        <time>2014-09-21T07:26:31Z</time>
      </trkpt>
      <trkpt lat="47.57283" lon="-2.24895">
        <ele>14.56</ele>
        <time>2014-09-21T07:26:34Z</time>
      </trkpt>
      <trkpt lat="47.57273" lon="-2.24905">
        <ele>12.15</ele>
        <time>2014-09-21T07:26:37Z</time>
      </trkpt>
      <trkpt lat="47.57264" lon="-2.24913">
        <ele>10.23</ele>
        <time>2014-09-21T07:26:42Z</time>
      </trkpt>
      <trkpt lat="47.57252" lon="-2.24914">
        <ele>8.79</ele>
        <time>2014-09-21T07:26:47Z</time>
      </trkpt>
      <trkpt lat="47.57241" lon="-2.24913">
        <ele>7.83</ele>
        <time>2014-09-21T07:26:54Z</time>
      </trkpt>
      <trkpt lat="47.5723" lon="-2.24913">
        <ele>12.63</ele>
        <time>2014-09-21T07:27:02Z</time>
      </trkpt>
      <trkpt lat="47.57218" lon="-2.24913">
        <ele>19.36</ele>
        <time>2014-09-21T07:27:11Z</time>
      </trkpt>
      <trkpt lat="47.57207" lon="-2.24914">
        <ele>22.25</ele>
        <time>2014-09-21T07:27:19Z</time>
      </trkpt>
      <trkpt lat="47.57195" lon="-2.24918">
        <ele>26.57</ele>
        <time>2014-09-21T07:27:28Z</time>
      </trkpt>
      <trkpt lat="47.57182" lon="-2.24921">
        <ele>29.46</ele>
        <time>2014-09-21T07:27:36Z</time>
      </trkpt>
      <trkpt lat="47.5717" lon="-2.24925">
        <ele>33.3</ele>
        <time>2014-09-21T07:27:44Z</time>
      </trkpt>
      <trkpt lat="47.57159" lon="-2.24928">
        <ele>35.71</ele>
        <time>2014-09-21T07:27:51Z</time>
      </trkpt>
      <trkpt lat="47.57148" lon="-2.24931">
        <ele>36.67</ele>
        <time>2014-09-21T07:27:57Z</time>
      </trkpt>
      <trkpt lat="47.57137" lon="-2.24931">
        <ele>38.59</ele>
        <time>2014-09-21T07:28:04Z</time>
      </trkpt>
      <trkpt lat="47.57125" lon="-2.24934">
        <ele>39.07</ele>
        <time>2014-09-21T07:28:09Z</time>
      </trkpt>
      <trkpt lat="47.57115" lon="-2.2494">
        <ele>39.55</ele>
        <time>2014-09-21T07:28:13Z</time>
      </trkpt>
      <trkpt lat="47.57106" lon="-2.24948">
        <ele>37.63</ele>
        <time>2014-09-21T07:28:16Z</time>
      </trkpt>
      <trkpt lat="47.57093" lon="-2.24956">
        <ele>36.19</ele>
        <time>2014-09-21T07:28:19Z</time>
      </trkpt>
      <trkpt lat="47.57083" lon="-2.24949">
        <ele>35.23</ele>
        <time>2014-09-21T07:28:22Z</time>
      </trkpt>
      <trkpt lat="47.57077" lon="-2.24938">
        <ele>35.23</ele>
        <time>2014-09-21T07:28:25Z</time>
      </trkpt>
      <trkpt lat="47.57073" lon="-2.24922">
        <ele>37.15</ele>
        <time>2014-09-21T07:28:30Z</time>
      </trkpt>
      <trkpt lat="47.57071" lon="-2.24906">
        <ele>39.07</ele>
        <time>2014-09-21T07:28:35Z</time>
      </trkpt>
      <trkpt lat="47.57068" lon="-2.24892">
        <ele>41.95</ele>
        <time>2014-09-21T07:28:40Z</time>
      </trkpt>
      <trkpt lat="47.57064" lon="-2.24875">
        <ele>45.32</ele>
        <time>2014-09-21T07:28:45Z</time>
      </trkpt>
      <trkpt lat="47.57062" lon="-2.24857">
        <ele>50.13</ele>
        <time>2014-09-21T07:28:51Z</time>
      </trkpt>
      <trkpt lat="47.57057" lon="-2.24837">
        <ele>54.93</ele>
        <time>2014-09-21T07:28:57Z</time>
      </trkpt>
      <trkpt lat="47.57054" lon="-2.24814">
        <ele>60.22</ele>
        <time>2014-09-21T07:29:04Z</time>
      </trkpt>
      <trkpt lat="47.5705" lon="-2.24793">
        <ele>64.55</ele>
        <time>2014-09-21T07:29:10Z</time>
      </trkpt>
      <trkpt lat="47.57045" lon="-2.24776">
        <ele>66.95</ele>
        <time>2014-09-21T07:29:14Z</time>
      </trkpt>
      <trkpt lat="47.57043" lon="-2.24759">
        <ele>68.39</ele>
        <time>2014-09-21T07:29:18Z</time>
      </trkpt>
      <trkpt lat="47.57039" lon="-2.24741">
        <ele>70.31</ele>
        <time>2014-09-21T07:29:23Z</time>
      </trkpt>
      <trkpt lat="47.57037" lon="-2.24725">
        <ele>70.31</ele>
        <time>2014-09-21T07:29:27Z</time>
      </trkpt>
      <trkpt lat="47.57033" lon="-2.24708">
        <ele>70.31</ele>
        <time>2014-09-21T07:29:31Z</time>
      </trkpt>
      <trkpt lat="47.57031" lon="-2.24691">
        <ele>70.31</ele>
        <time>2014-09-21T07:29:35Z</time>
      </trkpt>
      <trkpt lat="47.57027" lon="-2.24672">
        <ele>69.35</ele>
        <time>2014-09-21T07:29:39Z</time>
      </trkpt>
      <trkpt lat="47.57024" lon="-2.24655">
        <ele>68.87</ele>
        <time>2014-09-21T07:29:43Z</time>
      </trkpt>
      <trkpt lat="47.57021" lon="-2.2464">
        <ele>68.87</ele>
        <time>2014-09-21T07:29:47Z</time>
      </trkpt>
      <trkpt lat="47.57019" lon="-2.24623">
        <ele>68.87</ele>
        <time>2014-09-21T07:29:51Z</time>
      </trkpt>
      <trkpt lat="47.57016" lon="-2.24606">
        <ele>68.39</ele>
        <time>2014-09-21T07:29:55Z</time>
      </trkpt>
      <trkpt lat="47.57013" lon="-2.24591">
        <ele>68.39</ele>
        <time>2014-09-21T07:29:59Z</time>
      </trkpt>
      <trkpt lat="47.5701" lon="-2.24575">
        <ele>69.35</ele>
        <time>2014-09-21T07:30:03Z</time>
      </trkpt>
      <trkpt lat="47.57008" lon="-2.24559">
        <ele>70.31</ele>
        <time>2014-09-21T07:30:07Z</time>
      </trkpt>
      <trkpt lat="47.57005" lon="-2.24543">
        <ele>70.31</ele>
        <time>2014-09-21T07:30:11Z</time>
      </trkpt>
      <trkpt lat="47.57002" lon="-2.24527">
        <ele>69.83</ele>
        <time>2014-09-21T07:30:15Z</time>
      </trkpt>
      <trkpt lat="47.57" lon="-2.24508">
        <ele>66.95</ele>
        <time>2014-09-21T07:30:20Z</time>
      </trkpt>
      <trkpt lat="47.56998" lon="-2.24492">
        <ele>65.03</ele>
        <time>2014-09-21T07:30:24Z</time>
      </trkpt>
      <trkpt lat="47.56996" lon="-2.24478">
        <ele>64.07</ele>
        <time>2014-09-21T07:30:28Z</time>
      </trkpt>
      <trkpt lat="47.56993" lon="-2.24464">
        <ele>63.1</ele>
        <time>2014-09-21T07:30:32Z</time>
      </trkpt>
      <trkpt lat="47.5699" lon="-2.24446">
        <ele>61.66</ele>
        <time>2014-09-21T07:30:36Z</time>
      </trkpt>
      <trkpt lat="47.56988" lon="-2.24429">
        <ele>61.18</ele>
        <time>2014-09-21T07:30:40Z</time>
      </trkpt>
      <trkpt lat="47.56985" lon="-2.24414">
        <ele>60.7</ele>
        <time>2014-09-21T07:30:43Z</time>
      </trkpt>
      <trkpt lat="47.56982" lon="-2.24401">
        <ele>59.74</ele>
        <time>2014-09-21T07:30:46Z</time>
      </trkpt>
      <trkpt lat="47.5698" lon="-2.24384">
        <ele>59.26</ele>
        <time>2014-09-21T07:30:50Z</time>
      </trkpt>
      <trkpt lat="47.56977" lon="-2.24367">
        <ele>59.26</ele>
        <time>2014-09-21T07:30:54Z</time>
      </trkpt>
      <trkpt lat="47.56974" lon="-2.2435">
        <ele>58.78</ele>
        <time>2014-09-21T07:30:58Z</time>
      </trkpt>
      <trkpt lat="47.56971" lon="-2.24337">
        <ele>58.78</ele>
        <time>2014-09-21T07:31:01Z</time>
      </trkpt>
      <trkpt lat="47.56969" lon="-2.24323">
        <ele>58.78</ele>
        <time>2014-09-21T07:31:04Z</time>
      </trkpt>
      <trkpt lat="47.56967" lon="-2.2431">
        <ele>58.78</ele>
        <time>2014-09-21T07:31:07Z</time>
      </trkpt>
      <trkpt lat="47.56964" lon="-2.24297">
        <ele>58.78</ele>
        <time>2014-09-21T07:31:10Z</time>
      </trkpt>
      <trkpt lat="47.56961" lon="-2.24282">
        <ele>58.78</ele>
        <time>2014-09-21T07:31:13Z</time>
      </trkpt>
      <trkpt lat="47.56959" lon="-2.24267">
        <ele>59.26</ele>
        <time>2014-09-21T07:31:16Z</time>
      </trkpt>
      <trkpt lat="47.56957" lon="-2.24251">
        <ele>59.26</ele>
        <time>2014-09-21T07:31:20Z</time>
      </trkpt>
      <trkpt lat="47.56954" lon="-2.24236">
        <ele>58.78</ele>
        <time>2014-09-21T07:31:24Z</time>
      </trkpt>
      <trkpt lat="47.5695" lon="-2.24219">
        <ele>58.78</ele>
        <time>2014-09-21T07:31:29Z</time>
      </trkpt>
      <trkpt lat="47.56943" lon="-2.24211">
        <ele>58.78</ele>
        <time>2014-09-21T07:31:33Z</time>
      </trkpt>
      <trkpt lat="47.56932" lon="-2.24213">
        <ele>59.26</ele>
        <time>2014-09-21T07:31:37Z</time>
      </trkpt>
      <trkpt lat="47.56921" lon="-2.24213">
        <ele>59.26</ele>
        <time>2014-09-21T07:31:41Z</time>
      </trkpt>
      <trkpt lat="47.56913" lon="-2.24203">
        <ele>59.26</ele>
        <time>2014-09-21T07:31:45Z</time>
      </trkpt>
      <trkpt lat="47.56909" lon="-2.24187">
        <ele>59.74</ele>
        <time>2014-09-21T07:31:49Z</time>
      </trkpt>
      <trkpt lat="47.56906" lon="-2.24173">
        <ele>60.22</ele>
        <time>2014-09-21T07:31:52Z</time>
      </trkpt>
      <trkpt lat="47.56903" lon="-2.24158">
        <ele>60.22</ele>
        <time>2014-09-21T07:31:55Z</time>
      </trkpt>
      <trkpt lat="47.569" lon="-2.24142">
        <ele>59.74</ele>
        <time>2014-09-21T07:31:58Z</time>
      </trkpt>
      <trkpt lat="47.56896" lon="-2.24127">
        <ele>59.74</ele>
        <time>2014-09-21T07:32:01Z</time>
      </trkpt>
      <trkpt lat="47.56892" lon="-2.24111">
        <ele>59.74</ele>
        <time>2014-09-21T07:32:04Z</time>
      </trkpt>
      <trkpt lat="47.56888" lon="-2.24095">
        <ele>59.74</ele>
        <time>2014-09-21T07:32:07Z</time>
      </trkpt>
      <trkpt lat="47.56885" lon="-2.24079">
        <ele>59.74</ele>
        <time>2014-09-21T07:32:10Z</time>
      </trkpt>
      <trkpt lat="47.56881" lon="-2.24064">
        <ele>59.74</ele>
        <time>2014-09-21T07:32:13Z</time>
      </trkpt>
      <trkpt lat="47.56878" lon="-2.24048">
        <ele>59.26</ele>
        <time>2014-09-21T07:32:16Z</time>
      </trkpt>
      <trkpt lat="47.56874" lon="-2.24032">
        <ele>59.26</ele>
        <time>2014-09-21T07:32:19Z</time>
      </trkpt>
      <trkpt lat="47.5687" lon="-2.24015">
        <ele>59.26</ele>
        <time>2014-09-21T07:32:22Z</time>
      </trkpt>
      <trkpt lat="47.56867" lon="-2.23998">
        <ele>59.26</ele>
        <time>2014-09-21T07:32:25Z</time>
      </trkpt>
      <trkpt lat="47.56864" lon="-2.23981">
        <ele>59.26</ele>
        <time>2014-09-21T07:32:28Z</time>
      </trkpt>
      <trkpt lat="47.5686" lon="-2.23966">
        <ele>59.74</ele>
        <time>2014-09-21T07:32:31Z</time>
      </trkpt>
      <trkpt lat="47.56858" lon="-2.2395">
        <ele>59.74</ele>
        <time>2014-09-21T07:32:34Z</time>
      </trkpt>
      <trkpt lat="47.56856" lon="-2.23934">
        <ele>60.22</ele>
        <time>2014-09-21T07:32:37Z</time>
      </trkpt>
      <trkpt lat="47.56851" lon="-2.23917">
        <ele>60.22</ele>
        <time>2014-09-21T07:32:40Z</time>
      </trkpt>
      <trkpt lat="47.56846" lon="-2.23902">
        <ele>60.22</ele>
        <time>2014-09-21T07:32:43Z</time>
      </trkpt>
      <trkpt lat="47.56843" lon="-2.23886">
        <ele>60.22</ele>
        <time>2014-09-21T07:32:46Z</time>
      </trkpt>
      <trkpt lat="47.56838" lon="-2.23873">
        <ele>60.22</ele>
        <time>2014-09-21T07:32:49Z</time>
      </trkpt>
      <trkpt lat="47.56833" lon="-2.23859">
        <ele>60.7</ele>
        <time>2014-09-21T07:32:52Z</time>
      </trkpt>
      <trkpt lat="47.56831" lon="-2.2384">
        <ele>60.22</ele>
        <time>2014-09-21T07:32:55Z</time>
      </trkpt>
      <trkpt lat="47.56826" lon="-2.23828">
        <ele>59.74</ele>
        <time>2014-09-21T07:32:57Z</time>
      </trkpt>
      <trkpt lat="47.56823" lon="-2.23814">
        <ele>59.74</ele>
        <time>2014-09-21T07:32:59Z</time>
      </trkpt>
      <trkpt lat="47.5682" lon="-2.23801">
        <ele>59.26</ele>
        <time>2014-09-21T07:33:01Z</time>
      </trkpt>
      <trkpt lat="47.56819" lon="-2.23787">
        <ele>58.78</ele>
        <time>2014-09-21T07:33:03Z</time>
      </trkpt>
      <trkpt lat="47.56817" lon="-2.23772">
        <ele>57.82</ele>
        <time>2014-09-21T07:33:05Z</time>
      </trkpt>
      <trkpt lat="47.56811" lon="-2.23759">
        <ele>57.82</ele>
        <time>2014-09-21T07:33:07Z</time>
      </trkpt>
      <trkpt lat="47.56806" lon="-2.23745">
        <ele>57.34</ele>
        <time>2014-09-21T07:33:09Z</time>
      </trkpt>
      <trkpt lat="47.56803" lon="-2.23731">
        <ele>56.86</ele>
        <time>2014-09-21T07:33:11Z</time>
      </trkpt>
      <trkpt lat="47.568" lon="-2.23716">
        <ele>56.37</ele>
        <time>2014-09-21T07:33:13Z</time>
      </trkpt>
      <trkpt lat="47.56796" lon="-2.237">
        <ele>55.89</ele>
        <time>2014-09-21T07:33:15Z</time>
      </trkpt>
      <trkpt lat="47.56792" lon="-2.23686">
        <ele>55.41</ele>
        <time>2014-09-21T07:33:17Z</time>
      </trkpt>
      <trkpt lat="47.56795" lon="-2.23674">
        <ele>53.97</ele>
        <time>2014-09-21T07:33:19Z</time>
      </trkpt>
      <trkpt lat="47.56809" lon="-2.23673">
        <ele>51.09</ele>
        <time>2014-09-21T07:33:22Z</time>
      </trkpt>
      <trkpt lat="47.56818" lon="-2.2367">
        <ele>49.16</ele>
        <time>2014-09-21T07:33:24Z</time>
      </trkpt>
      <trkpt lat="47.56828" lon="-2.23669">
        <ele>47.72</ele>
        <time>2014-09-21T07:33:26Z</time>
      </trkpt>
      <trkpt lat="47.56839" lon="-2.23676">
        <ele>45.8</ele>
        <time>2014-09-21T07:33:28Z</time>
      </trkpt>
      <trkpt lat="47.56849" lon="-2.23691">
        <ele>43.88</ele>
        <time>2014-09-21T07:33:30Z</time>
      </trkpt>
      <trkpt lat="47.56859" lon="-2.23704">
        <ele>41.95</ele>
        <time>2014-09-21T07:33:32Z</time>
      </trkpt>
      <trkpt lat="47.56869" lon="-2.23702">
        <ele>40.03</ele>
        <time>2014-09-21T07:33:34Z</time>
      </trkpt>
      <trkpt lat="47.5688" lon="-2.23694">
        <ele>37.63</ele>
        <time>2014-09-21T07:33:36Z</time>
      </trkpt>
      <trkpt lat="47.56891" lon="-2.23686">
        <ele>35.23</ele>
        <time>2014-09-21T07:33:38Z</time>
      </trkpt>
      <trkpt lat="47.56901" lon="-2.23676">
        <ele>32.82</ele>
        <time>2014-09-21T07:33:40Z</time>
      </trkpt>
      <trkpt lat="47.56909" lon="-2.23663">
        <ele>29.94</ele>
        <time>2014-09-21T07:33:42Z</time>
      </trkpt>
      <trkpt lat="47.56919" lon="-2.23649">
        <ele>26.57</ele>
        <time>2014-09-21T07:33:45Z</time>
      </trkpt>
      <trkpt lat="47.56935" lon="-2.23645">
        <ele>25.13</ele>
        <time>2014-09-21T07:33:48Z</time>
      </trkpt>
      <trkpt lat="47.56949" lon="-2.23642">
        <ele>26.57</ele>
        <time>2014-09-21T07:33:51Z</time>
      </trkpt>
      <trkpt lat="47.56963" lon="-2.23638">
        <ele>28.98</ele>
        <time>2014-09-21T07:33:54Z</time>
      </trkpt>
      <trkpt lat="47.56975" lon="-2.23634">
        <ele>30.42</ele>
        <time>2014-09-21T07:33:57Z</time>
      </trkpt>
      <trkpt lat="47.56986" lon="-2.2363">
        <ele>31.38</ele>
        <time>2014-09-21T07:34:00Z</time>
      </trkpt>
      <trkpt lat="47.56998" lon="-2.23627">
        <ele>32.34</ele>
        <time>2014-09-21T07:34:04Z</time>
      </trkpt>
      <trkpt lat="47.57004" lon="-2.23616">
        <ele>32.34</ele>
        <time>2014-09-21T07:34:08Z</time>
      </trkpt>
      <trkpt lat="47.57005" lon="-2.23598">
        <ele>31.38</ele>
        <time>2014-09-21T07:34:11Z</time>
      </trkpt>
      <trkpt lat="47.57004" lon="-2.23582">
        <ele>30.42</ele>
        <time>2014-09-21T07:34:13Z</time>
      </trkpt>
      <trkpt lat="47.57002" lon="-2.23563">
        <ele>29.46</ele>
        <time>2014-09-21T07:34:15Z</time>
      </trkpt>
      <trkpt lat="47.57" lon="-2.23542">
        <ele>28.02</ele>
        <time>2014-09-21T07:34:17Z</time>
      </trkpt>
      <trkpt lat="47.56997" lon="-2.23518">
        <ele>26.57</ele>
        <time>2014-09-21T07:34:19Z</time>
      </trkpt>
      <trkpt lat="47.56995" lon="-2.23492">
        <ele>25.13</ele>
        <time>2014-09-21T07:34:21Z</time>
      </trkpt>
      <trkpt lat="47.56994" lon="-2.23479">
        <ele>24.17</ele>
        <time>2014-09-21T07:34:22Z</time>
      </trkpt>
      <trkpt lat="47.56993" lon="-2.23465">
        <ele>23.21</ele>
        <time>2014-09-21T07:34:23Z</time>
      </trkpt>
      <trkpt lat="47.56992" lon="-2.23451">
        <ele>22.73</ele>
        <time>2014-09-21T07:34:24Z</time>
      </trkpt>
      <trkpt lat="47.56991" lon="-2.23437">
        <ele>21.77</ele>
        <time>2014-09-21T07:34:25Z</time>
      </trkpt>
      <trkpt lat="47.56989" lon="-2.23423">
        <ele>21.29</ele>
        <time>2014-09-21T07:34:26Z</time>
      </trkpt>
      <trkpt lat="47.56988" lon="-2.23409">
        <ele>20.81</ele>
        <time>2014-09-21T07:34:27Z</time>
      </trkpt>
      <trkpt lat="47.56987" lon="-2.23395">
        <ele>20.81</ele>
        <time>2014-09-21T07:34:28Z</time>
      </trkpt>
      <trkpt lat="47.56985" lon="-2.23382">
        <ele>20.32</ele>
        <time>2014-09-21T07:34:29Z</time>
      </trkpt>
      <trkpt lat="47.56983" lon="-2.23357">
        <ele>20.32</ele>
        <time>2014-09-21T07:34:31Z</time>
      </trkpt>
      <trkpt lat="47.5698" lon="-2.23333">
        <ele>19.84</ele>
        <time>2014-09-21T07:34:33Z</time>
      </trkpt>
      <trkpt lat="47.56978" lon="-2.2331">
        <ele>19.36</ele>
        <time>2014-09-21T07:34:35Z</time>
      </trkpt>
      <trkpt lat="47.56976" lon="-2.23288">
        <ele>19.36</ele>
        <time>2014-09-21T07:34:37Z</time>
      </trkpt>
      <trkpt lat="47.56974" lon="-2.23267">
        <ele>19.36</ele>
        <time>2014-09-21T07:34:39Z</time>
      </trkpt>
      <trkpt lat="47.56972" lon="-2.23249">
        <ele>19.36</ele>
        <time>2014-09-21T07:34:41Z</time>
      </trkpt>
      <trkpt lat="47.5697" lon="-2.2323">
        <ele>19.84</ele>
        <time>2014-09-21T07:34:43Z</time>
      </trkpt>
      <trkpt lat="47.56968" lon="-2.23213">
        <ele>20.32</ele>
        <time>2014-09-21T07:34:45Z</time>
      </trkpt>
      <trkpt lat="47.56966" lon="-2.23196">
        <ele>20.32</ele>
        <time>2014-09-21T07:34:47Z</time>
      </trkpt>
      <trkpt lat="47.56963" lon="-2.23179">
        <ele>20.81</ele>
        <time>2014-09-21T07:34:49Z</time>
      </trkpt>
      <trkpt lat="47.56961" lon="-2.23163">
        <ele>21.29</ele>
        <time>2014-09-21T07:34:51Z</time>
      </trkpt>
      <trkpt lat="47.56959" lon="-2.23147">
        <ele>21.77</ele>
        <time>2014-09-21T07:34:53Z</time>
      </trkpt>
      <trkpt lat="47.56957" lon="-2.23132">
        <ele>22.25</ele>
        <time>2014-09-21T07:34:55Z</time>
      </trkpt>
      <trkpt lat="47.56955" lon="-2.23117">
        <ele>22.25</ele>
        <time>2014-09-21T07:34:57Z</time>
      </trkpt>
      <trkpt lat="47.56952" lon="-2.23102">
        <ele>22.73</ele>
        <time>2014-09-21T07:34:59Z</time>
      </trkpt>
      <trkpt lat="47.56951" lon="-2.23087">
        <ele>23.21</ele>
        <time>2014-09-21T07:35:01Z</time>
      </trkpt>
      <trkpt lat="47.56948" lon="-2.23072">
        <ele>23.69</ele>
        <time>2014-09-21T07:35:03Z</time>
      </trkpt>
      <trkpt lat="47.56946" lon="-2.23057">
        <ele>23.69</ele>
        <time>2014-09-21T07:35:05Z</time>
      </trkpt>
      <trkpt lat="47.56944" lon="-2.23042">
        <ele>24.17</ele>
        <time>2014-09-21T07:35:07Z</time>
      </trkpt>
      <trkpt lat="47.56942" lon="-2.23026">
        <ele>24.17</ele>
        <time>2014-09-21T07:35:09Z</time>
      </trkpt>
      <trkpt lat="47.56939" lon="-2.2301">
        <ele>24.65</ele>
        <time>2014-09-21T07:35:11Z</time>
      </trkpt>
      <trkpt lat="47.56937" lon="-2.22996">
        <ele>25.61</ele>
        <time>2014-09-21T07:35:13Z</time>
      </trkpt>
      <trkpt lat="47.56935" lon="-2.22983">
        <ele>26.09</ele>
        <time>2014-09-21T07:35:15Z</time>
      </trkpt>
      <trkpt lat="47.56932" lon="-2.22964">
        <ele>27.05</ele>
        <time>2014-09-21T07:35:18Z</time>
      </trkpt>
      <trkpt lat="47.5693" lon="-2.22945">
        <ele>28.5</ele>
        <time>2014-09-21T07:35:21Z</time>
      </trkpt>
      <trkpt lat="47.56927" lon="-2.22928">
        <ele>29.46</ele>
        <time>2014-09-21T07:35:24Z</time>
      </trkpt>
      <trkpt lat="47.56925" lon="-2.22911">
        <ele>30.9</ele>
        <time>2014-09-21T07:35:27Z</time>
      </trkpt>
      <trkpt lat="47.56923" lon="-2.22895">
        <ele>32.34</ele>
        <time>2014-09-21T07:35:30Z</time>
      </trkpt>
      <trkpt lat="47.56921" lon="-2.2288">
        <ele>33.78</ele>
        <time>2014-09-21T07:35:33Z</time>
      </trkpt>
      <trkpt lat="47.56918" lon="-2.22865">
        <ele>35.23</ele>
        <time>2014-09-21T07:35:36Z</time>
      </trkpt>
      <trkpt lat="47.56917" lon="-2.22848">
        <ele>36.19</ele>
        <time>2014-09-21T07:35:39Z</time>
      </trkpt>
      <trkpt lat="47.56914" lon="-2.2283">
        <ele>36.67</ele>
        <time>2014-09-21T07:35:42Z</time>
      </trkpt>
      <trkpt lat="47.56912" lon="-2.22813">
        <ele>36.67</ele>
        <time>2014-09-21T07:35:45Z</time>
      </trkpt>
      <trkpt lat="47.56912" lon="-2.22796">
        <ele>36.67</ele>
        <time>2014-09-21T07:35:48Z</time>
      </trkpt>
      <trkpt lat="47.56911" lon="-2.22777">
        <ele>36.67</ele>
        <time>2014-09-21T07:35:51Z</time>
      </trkpt>
      <trkpt lat="47.5691" lon="-2.22757">
        <ele>36.19</ele>
        <time>2014-09-21T07:35:54Z</time>
      </trkpt>
      <trkpt lat="47.56909" lon="-2.22744">
        <ele>35.71</ele>
        <time>2014-09-21T07:35:56Z</time>
      </trkpt>
      <trkpt lat="47.56909" lon="-2.2273">
        <ele>35.71</ele>
        <time>2014-09-21T07:35:58Z</time>
      </trkpt>
      <trkpt lat="47.56909" lon="-2.22716">
        <ele>35.23</ele>
        <time>2014-09-21T07:36:00Z</time>
      </trkpt>
      <trkpt lat="47.56909" lon="-2.22701">
        <ele>35.23</ele>
        <time>2014-09-21T07:36:02Z</time>
      </trkpt>
      <trkpt lat="47.5691" lon="-2.22685">
        <ele>34.74</ele>
        <time>2014-09-21T07:36:04Z</time>
      </trkpt>
      <trkpt lat="47.56909" lon="-2.22669">
        <ele>34.26</ele>
        <time>2014-09-21T07:36:06Z</time>
      </trkpt>
      <trkpt lat="47.56909" lon="-2.22652">
        <ele>34.26</ele>
        <time>2014-09-21T07:36:08Z</time>
      </trkpt>
      <trkpt lat="47.56909" lon="-2.22637">
        <ele>33.78</ele>
        <time>2014-09-21T07:36:10Z</time>
      </trkpt>
      <trkpt lat="47.56911" lon="-2.22623">
        <ele>33.78</ele>
        <time>2014-09-21T07:36:13Z</time>
      </trkpt>
      <trkpt lat="47.56922" lon="-2.22625">
        <ele>32.82</ele>
        <time>2014-09-21T07:36:18Z</time>
      </trkpt>
      <trkpt lat="47.56933" lon="-2.22622">
        <ele>32.34</ele>
        <time>2014-09-21T07:36:21Z</time>
      </trkpt>
      <trkpt lat="47.56946" lon="-2.22624">
        <ele>31.38</ele>
        <time>2014-09-21T07:36:24Z</time>
      </trkpt>
      <trkpt lat="47.5696" lon="-2.2263">
        <ele>30.42</ele>
        <time>2014-09-21T07:36:27Z</time>
      </trkpt>
      <trkpt lat="47.56969" lon="-2.22635">
        <ele>30.42</ele>
        <time>2014-09-21T07:36:29Z</time>
      </trkpt>
      <trkpt lat="47.56981" lon="-2.22635">
        <ele>30.42</ele>
        <time>2014-09-21T07:36:32Z</time>
      </trkpt>
      <trkpt lat="47.56992" lon="-2.22635">
        <ele>30.9</ele>
        <time>2014-09-21T07:36:34Z</time>
      </trkpt>
      <trkpt lat="47.57003" lon="-2.22642">
        <ele>30.9</ele>
        <time>2014-09-21T07:36:37Z</time>
      </trkpt>
      <trkpt lat="47.57011" lon="-2.22638">
        <ele>31.86</ele>
        <time>2014-09-21T07:36:41Z</time>
      </trkpt>
      <trkpt lat="47.5702" lon="-2.22625">
        <ele>32.82</ele>
        <time>2014-09-21T07:36:46Z</time>
      </trkpt>
      <trkpt lat="47.57025" lon="-2.2261">
        <ele>32.82</ele>
        <time>2014-09-21T07:36:50Z</time>
      </trkpt>
      <trkpt lat="47.57035" lon="-2.22604">
        <ele>31.86</ele>
        <time>2014-09-21T07:36:53Z</time>
      </trkpt>
      <trkpt lat="47.57049" lon="-2.22603">
        <ele>30.9</ele>
        <time>2014-09-21T07:36:56Z</time>
      </trkpt>
      <trkpt lat="47.57061" lon="-2.22597">
        <ele>30.42</ele>
        <time>2014-09-21T07:36:59Z</time>
      </trkpt>
      <trkpt lat="47.57069" lon="-2.22584">
        <ele>29.94</ele>
        <time>2014-09-21T07:37:03Z</time>
      </trkpt>
      <trkpt lat="47.57067" lon="-2.22569">
        <ele>31.38</ele>
        <time>2014-09-21T07:37:07Z</time>
      </trkpt>
      <trkpt lat="47.57067" lon="-2.22552">
        <ele>34.26</ele>
        <time>2014-09-21T07:37:12Z</time>
      </trkpt>
      <trkpt lat="47.57065" lon="-2.22534">
        <ele>37.63</ele>
        <time>2014-09-21T07:37:16Z</time>
      </trkpt>
      <trkpt lat="47.57068" lon="-2.22517">
        <ele>39.07</ele>
        <time>2014-09-21T07:37:19Z</time>
      </trkpt>
      <trkpt lat="47.57072" lon="-2.22499">
        <ele>39.55</ele>
        <time>2014-09-21T07:37:22Z</time>
      </trkpt>
      <trkpt lat="47.57075" lon="-2.22477">
        <ele>39.07</ele>
        <time>2014-09-21T07:37:25Z</time>
      </trkpt>
      <trkpt lat="47.57073" lon="-2.2246">
        <ele>38.59</ele>
        <time>2014-09-21T07:37:28Z</time>
      </trkpt>
      <trkpt lat="47.57069" lon="-2.22444">
        <ele>38.11</ele>
        <time>2014-09-21T07:37:32Z</time>
      </trkpt>
      <trkpt lat="47.57061" lon="-2.22434">
        <ele>37.63</ele>
        <time>2014-09-21T07:37:36Z</time>
      </trkpt>
      <trkpt lat="47.57049" lon="-2.22426">
        <ele>37.15</ele>
        <time>2014-09-21T07:37:40Z</time>
      </trkpt>
      <trkpt lat="47.57037" lon="-2.22412">
        <ele>37.63</ele>
        <time>2014-09-21T07:37:44Z</time>
      </trkpt>
      <trkpt lat="47.57025" lon="-2.224">
        <ele>39.07</ele>
        <time>2014-09-21T07:37:48Z</time>
      </trkpt>
      <trkpt lat="47.57013" lon="-2.2239">
        <ele>38.59</ele>
        <time>2014-09-21T07:37:52Z</time>
      </trkpt>
      <trkpt lat="47.57007" lon="-2.22373">
        <ele>38.11</ele>
        <time>2014-09-21T07:37:57Z</time>
      </trkpt>
      <trkpt lat="47.57003" lon="-2.22359">
        <ele>38.11</ele>
        <time>2014-09-21T07:38:01Z</time>
      </trkpt>
      <trkpt lat="47.56991" lon="-2.22347">
        <ele>36.19</ele>
        <time>2014-09-21T07:38:06Z</time>
      </trkpt>
      <trkpt lat="47.5699" lon="-2.22331">
        <ele>34.74</ele>
        <time>2014-09-21T07:38:11Z</time>
      </trkpt>
      <trkpt lat="47.56999" lon="-2.22326">
        <ele>33.3</ele>
        <time>2014-09-21T07:38:18Z</time>
      </trkpt>
      <trkpt lat="47.57009" lon="-2.22328">
        <ele>31.86</ele>
        <time>2014-09-21T07:38:24Z</time>
      </trkpt>
      <trkpt lat="47.5702" lon="-2.22329">
        <ele>31.38</ele>
        <time>2014-09-21T07:38:30Z</time>
      </trkpt>
      <trkpt lat="47.5703" lon="-2.22333">
        <ele>32.34</ele>
        <time>2014-09-21T07:38:35Z</time>
      </trkpt>
      <trkpt lat="47.5704" lon="-2.22339">
        <ele>33.78</ele>
        <time>2014-09-21T07:38:43Z</time>
      </trkpt>
      <trkpt lat="47.57051" lon="-2.22351">
        <ele>34.26</ele>
        <time>2014-09-21T07:38:47Z</time>
      </trkpt>
      <trkpt lat="47.5706" lon="-2.22358">
        <ele>34.26</ele>
        <time>2014-09-21T07:38:49Z</time>
      </trkpt>
      <trkpt lat="47.57072" lon="-2.22362">
        <ele>34.74</ele>
        <time>2014-09-21T07:38:52Z</time>
      </trkpt>
      <trkpt lat="47.57082" lon="-2.22362">
        <ele>35.23</ele>
        <time>2014-09-21T07:38:55Z</time>
      </trkpt>
      <trkpt lat="47.57093" lon="-2.22357">
        <ele>36.67</ele>
        <time>2014-09-21T07:38:59Z</time>
      </trkpt>
      <trkpt lat="47.57102" lon="-2.22346">
        <ele>37.15</ele>
        <time>2014-09-21T07:39:04Z</time>
      </trkpt>
      <trkpt lat="47.57109" lon="-2.22334">
        <ele>37.63</ele>
        <time>2014-09-21T07:39:08Z</time>
      </trkpt>
      <trkpt lat="47.57119" lon="-2.22328">
        <ele>37.63</ele>
        <time>2014-09-21T07:39:12Z</time>
      </trkpt>
      <trkpt lat="47.57129" lon="-2.22322">
        <ele>36.67</ele>
        <time>2014-09-21T07:39:16Z</time>
      </trkpt>
      <trkpt lat="47.57125" lon="-2.2231">
        <ele>36.19</ele>
        <time>2014-09-21T07:39:22Z</time>
      </trkpt>
      <trkpt lat="47.57121" lon="-2.22297">
        <ele>37.15</ele>
        <time>2014-09-21T07:39:28Z</time>
      </trkpt>
      <trkpt lat="47.57118" lon="-2.22282">
        <ele>37.63</ele>
        <time>2014-09-21T07:39:34Z</time>
      </trkpt>
      <trkpt lat="47.57115" lon="-2.22265">
        <ele>38.11</ele>
        <time>2014-09-21T07:39:39Z</time>
      </trkpt>
      <trkpt lat="47.57112" lon="-2.22249">
        <ele>37.63</ele>
        <time>2014-09-21T07:39:44Z</time>
      </trkpt>
      <trkpt lat="47.5711" lon="-2.22234">
        <ele>37.15</ele>
        <time>2014-09-21T07:39:49Z</time>
      </trkpt>
      <trkpt lat="47.57108" lon="-2.22219">
        <ele>37.15</ele>
        <time>2014-09-21T07:39:54Z</time>
      </trkpt>
      <trkpt lat="47.57106" lon="-2.22206">
        <ele>36.67</ele>
        <time>2014-09-21T07:40:00Z</time>
      </trkpt>
      <trkpt lat="47.57102" lon="-2.22192">
        <ele>36.67</ele>
        <time>2014-09-21T07:40:05Z</time>
      </trkpt>
      <trkpt lat="47.571" lon="-2.22177">
        <ele>37.15</ele>
        <time>2014-09-21T07:40:11Z</time>
      </trkpt>
      <trkpt lat="47.57097" lon="-2.22163">
        <ele>37.63</ele>
        <time>2014-09-21T07:40:15Z</time>
      </trkpt>
      <trkpt lat="47.57094" lon="-2.2215">
        <ele>38.11</ele>
        <time>2014-09-21T07:40:18Z</time>
      </trkpt>
      <trkpt lat="47.57092" lon="-2.22136">
        <ele>38.11</ele>
        <time>2014-09-21T07:40:21Z</time>
      </trkpt>
      <trkpt lat="47.57089" lon="-2.22123">
        <ele>38.59</ele>
        <time>2014-09-21T07:40:24Z</time>
      </trkpt>
      <trkpt lat="47.57086" lon="-2.22106">
        <ele>38.11</ele>
        <time>2014-09-21T07:40:28Z</time>
      </trkpt>
      <trkpt lat="47.57083" lon="-2.2209">
        <ele>38.11</ele>
        <time>2014-09-21T07:40:32Z</time>
      </trkpt>
      <trkpt lat="47.5708" lon="-2.22075">
        <ele>38.59</ele>
        <time>2014-09-21T07:40:36Z</time>
      </trkpt>
      <trkpt lat="47.57077" lon="-2.22059">
        <ele>38.59</ele>
        <time>2014-09-21T07:40:40Z</time>
      </trkpt>
      <trkpt lat="47.57073" lon="-2.22045">
        <ele>38.59</ele>
        <time>2014-09-21T07:40:44Z</time>
      </trkpt>
      <trkpt lat="47.57078" lon="-2.22035">
        <ele>37.63</ele>
        <time>2014-09-21T07:40:50Z</time>
      </trkpt>
      <trkpt lat="47.57081" lon="-2.22034">
        <ele>35.71</ele>
        <time>2014-09-21T07:43:54Z</time>
      </trkpt>
      <trkpt lat="47.5709" lon="-2.22032">
        <ele>34.26</ele>
        <time>2014-09-21T07:44:47Z</time>
      </trkpt>
      <trkpt lat="47.57102" lon="-2.22028">
        <ele>33.78</ele>
        <time>2014-09-21T07:44:51Z</time>
      </trkpt>
      <trkpt lat="47.57113" lon="-2.22024">
        <ele>33.3</ele>
        <time>2014-09-21T07:44:54Z</time>
      </trkpt>
      <trkpt lat="47.57122" lon="-2.22021">
        <ele>33.3</ele>
        <time>2014-09-21T07:44:56Z</time>
      </trkpt>
      <trkpt lat="47.57132" lon="-2.22018">
        <ele>32.34</ele>
        <time>2014-09-21T07:44:58Z</time>
      </trkpt>
      <trkpt lat="47.57143" lon="-2.22016">
        <ele>31.86</ele>
        <time>2014-09-21T07:45:00Z</time>
      </trkpt>
      <trkpt lat="47.57155" lon="-2.22014">
        <ele>30.9</ele>
        <time>2014-09-21T07:45:02Z</time>
      </trkpt>
      <trkpt lat="47.57167" lon="-2.22013">
        <ele>30.42</ele>
        <time>2014-09-21T07:45:04Z</time>
      </trkpt>
      <trkpt lat="47.57179" lon="-2.22013">
        <ele>29.46</ele>
        <time>2014-09-21T07:45:06Z</time>
      </trkpt>
      <trkpt lat="47.57192" lon="-2.22013">
        <ele>28.98</ele>
        <time>2014-09-21T07:45:08Z</time>
      </trkpt>
      <trkpt lat="47.57206" lon="-2.22013">
        <ele>28.5</ele>
        <time>2014-09-21T07:45:10Z</time>
      </trkpt>
      <trkpt lat="47.57219" lon="-2.22014">
        <ele>28.02</ele>
        <time>2014-09-21T07:45:12Z</time>
      </trkpt>
      <trkpt lat="47.57232" lon="-2.22015">
        <ele>27.53</ele>
        <time>2014-09-21T07:45:14Z</time>
      </trkpt>
      <trkpt lat="47.57244" lon="-2.22016">
        <ele>27.53</ele>
        <time>2014-09-21T07:45:16Z</time>
      </trkpt>
      <trkpt lat="47.57256" lon="-2.22017">
        <ele>27.53</ele>
        <time>2014-09-21T07:45:18Z</time>
      </trkpt>
      <trkpt lat="47.57267" lon="-2.22019">
        <ele>27.53</ele>
        <time>2014-09-21T07:45:20Z</time>
      </trkpt>
      <trkpt lat="47.57278" lon="-2.22021">
        <ele>28.02</ele>
        <time>2014-09-21T07:45:22Z</time>
      </trkpt>
      <trkpt lat="47.57288" lon="-2.22022">
        <ele>28.98</ele>
        <time>2014-09-21T07:45:24Z</time>
      </trkpt>
      <trkpt lat="47.57298" lon="-2.22024">
        <ele>29.94</ele>
        <time>2014-09-21T07:45:26Z</time>
      </trkpt>
      <trkpt lat="47.57307" lon="-2.22025">
        <ele>31.38</ele>
        <time>2014-09-21T07:45:28Z</time>
      </trkpt>
      <trkpt lat="47.5732" lon="-2.22025">
        <ele>32.34</ele>
        <time>2014-09-21T07:45:31Z</time>
      </trkpt>
      <trkpt lat="47.57333" lon="-2.22027">
        <ele>33.3</ele>
        <time>2014-09-21T07:45:34Z</time>
      </trkpt>
      <trkpt lat="47.57342" lon="-2.22027">
        <ele>35.23</ele>
        <time>2014-09-21T07:45:37Z</time>
      </trkpt>
      <trkpt lat="47.57353" lon="-2.22028">
        <ele>37.63</ele>
        <time>2014-09-21T07:45:41Z</time>
      </trkpt>
      <trkpt lat="47.57363" lon="-2.22031">
        <ele>40.51</ele>
        <time>2014-09-21T07:45:46Z</time>
      </trkpt>
      <trkpt lat="47.57374" lon="-2.22032">
        <ele>41.95</ele>
        <time>2014-09-21T07:45:51Z</time>
      </trkpt>
      <trkpt lat="47.57384" lon="-2.22033">
        <ele>42.92</ele>
        <time>2014-09-21T07:45:56Z</time>
      </trkpt>
      <trkpt lat="47.57394" lon="-2.22035">
        <ele>44.84</ele>
        <time>2014-09-21T07:46:01Z</time>
      </trkpt>
      <trkpt lat="47.57405" lon="-2.22035">
        <ele>46.76</ele>
        <time>2014-09-21T07:46:07Z</time>
      </trkpt>
      <trkpt lat="47.57417" lon="-2.22035">
        <ele>49.16</ele>
        <time>2014-09-21T07:46:13Z</time>
      </trkpt>
      <trkpt lat="47.57427" lon="-2.22033">
        <ele>49.65</ele>
        <time>2014-09-21T07:46:18Z</time>
      </trkpt>
      <trkpt lat="47.57436" lon="-2.22033">
        <ele>50.13</ele>
        <time>2014-09-21T07:46:22Z</time>
      </trkpt>
      <trkpt lat="47.57443" lon="-2.22024">
        <ele>50.61</ele>
        <time>2014-09-21T07:46:27Z</time>
      </trkpt>
      <trkpt lat="47.5745" lon="-2.22013">
        <ele>51.09</ele>
        <time>2014-09-21T07:46:32Z</time>
      </trkpt>
      <trkpt lat="47.57454" lon="-2.22">
        <ele>52.05</ele>
        <time>2014-09-21T07:46:37Z</time>
      </trkpt>
      <trkpt lat="47.57459" lon="-2.21986">
        <ele>52.53</ele>
        <time>2014-09-21T07:46:43Z</time>
      </trkpt>
      <trkpt lat="47.57463" lon="-2.21972">
        <ele>53.49</ele>
        <time>2014-09-21T07:46:48Z</time>
      </trkpt>
      <trkpt lat="47.57469" lon="-2.21958">
        <ele>54.45</ele>
        <time>2014-09-21T07:46:53Z</time>
      </trkpt>
      <trkpt lat="47.57473" lon="-2.21943">
        <ele>55.41</ele>
        <time>2014-09-21T07:46:58Z</time>
      </trkpt>
      <trkpt lat="47.57476" lon="-2.21928">
        <ele>55.41</ele>
        <time>2014-09-21T07:47:03Z</time>
      </trkpt>
      <trkpt lat="47.57481" lon="-2.21915">
        <ele>55.41</ele>
        <time>2014-09-21T07:47:08Z</time>
      </trkpt>
      <trkpt lat="47.5749" lon="-2.21917">
        <ele>56.37</ele>
        <time>2014-09-21T07:47:13Z</time>
      </trkpt>
      <trkpt lat="47.57496" lon="-2.21928">
        <ele>57.82</ele>
        <time>2014-09-21T07:47:18Z</time>
      </trkpt>
      <trkpt lat="47.57502" lon="-2.21941">
        <ele>59.26</ele>
        <time>2014-09-21T07:47:23Z</time>
      </trkpt>
      <trkpt lat="47.57508" lon="-2.21953">
        <ele>60.22</ele>
        <time>2014-09-21T07:47:28Z</time>
      </trkpt>
      <trkpt lat="47.57515" lon="-2.21964">
        <ele>61.66</ele>
        <time>2014-09-21T07:47:33Z</time>
      </trkpt>
      <trkpt lat="47.57521" lon="-2.21975">
        <ele>62.62</ele>
        <time>2014-09-21T07:47:38Z</time>
      </trkpt>
      <trkpt lat="47.57527" lon="-2.21985">
        <ele>64.07</ele>
        <time>2014-09-21T07:47:43Z</time>
      </trkpt>
      <trkpt lat="47.57533" lon="-2.21997">
        <ele>65.51</ele>
        <time>2014-09-21T07:47:48Z</time>
      </trkpt>
      <trkpt lat="47.57539" lon="-2.22009">
        <ele>66.47</ele>
        <time>2014-09-21T07:47:53Z</time>
      </trkpt>
      <trkpt lat="47.57546" lon="-2.22021">
        <ele>66.95</ele>
        <time>2014-09-21T07:47:58Z</time>
      </trkpt>
      <trkpt lat="47.57551" lon="-2.22033">
        <ele>67.43</ele>
        <time>2014-09-21T07:48:02Z</time>
      </trkpt>
      <trkpt lat="47.57556" lon="-2.22045">
        <ele>67.91</ele>
        <time>2014-09-21T07:48:06Z</time>
      </trkpt>
      <trkpt lat="47.57562" lon="-2.22058">
        <ele>68.39</ele>
        <time>2014-09-21T07:48:10Z</time>
      </trkpt>
      <trkpt lat="47.57568" lon="-2.22072">
        <ele>68.87</ele>
        <time>2014-09-21T07:48:14Z</time>
      </trkpt>
      <trkpt lat="47.57572" lon="-2.22087">
        <ele>69.83</ele>
        <time>2014-09-21T07:48:18Z</time>
      </trkpt>
      <trkpt lat="47.57578" lon="-2.22102">
        <ele>70.31</ele>
        <time>2014-09-21T07:48:22Z</time>
      </trkpt>
      <trkpt lat="47.57583" lon="-2.22118">
        <ele>70.31</ele>
        <time>2014-09-21T07:48:26Z</time>
      </trkpt>
      <trkpt lat="47.57589" lon="-2.22133">
        <ele>70.79</ele>
        <time>2014-09-21T07:48:30Z</time>
      </trkpt>
      <trkpt lat="47.57595" lon="-2.22148">
        <ele>70.79</ele>
        <time>2014-09-21T07:48:34Z</time>
      </trkpt>
      <trkpt lat="47.576" lon="-2.22162">
        <ele>70.79</ele>
        <time>2014-09-21T07:48:38Z</time>
      </trkpt>
      <trkpt lat="47.57604" lon="-2.22176">
        <ele>71.27</ele>
        <time>2014-09-21T07:48:42Z</time>
      </trkpt>
      <trkpt lat="47.57608" lon="-2.22191">
        <ele>71.27</ele>
        <time>2014-09-21T07:48:46Z</time>
      </trkpt>
      <trkpt lat="47.57614" lon="-2.22206">
        <ele>71.27</ele>
        <time>2014-09-21T07:48:50Z</time>
      </trkpt>
      <trkpt lat="47.57618" lon="-2.22218">
        <ele>70.79</ele>
        <time>2014-09-21T07:48:53Z</time>
      </trkpt>
      <trkpt lat="47.57624" lon="-2.22229">
        <ele>70.79</ele>
        <time>2014-09-21T07:48:56Z</time>
      </trkpt>
      <trkpt lat="47.57629" lon="-2.2224">
        <ele>70.79</ele>
        <time>2014-09-21T07:48:59Z</time>
      </trkpt>
      <trkpt lat="47.57636" lon="-2.2225">
        <ele>71.27</ele>
        <time>2014-09-21T07:49:02Z</time>
      </trkpt>
      <trkpt lat="47.57644" lon="-2.22259">
        <ele>71.27</ele>
        <time>2014-09-21T07:49:05Z</time>
      </trkpt>
      <trkpt lat="47.57652" lon="-2.22267">
        <ele>71.76</ele>
        <time>2014-09-21T07:49:08Z</time>
      </trkpt>
      <trkpt lat="47.5766" lon="-2.22274">
        <ele>72.24</ele>
        <time>2014-09-21T07:49:11Z</time>
      </trkpt>
      <trkpt lat="47.57669" lon="-2.22282">
        <ele>73.2</ele>
        <time>2014-09-21T07:49:14Z</time>
      </trkpt>
      <trkpt lat="47.57677" lon="-2.22288">
        <ele>73.68</ele>
        <time>2014-09-21T07:49:17Z</time>
      </trkpt>
      <trkpt lat="47.57686" lon="-2.22294">
        <ele>74.16</ele>
        <time>2014-09-21T07:49:20Z</time>
      </trkpt>
      <trkpt lat="47.57694" lon="-2.22301">
        <ele>74.16</ele>
        <time>2014-09-21T07:49:23Z</time>
      </trkpt>
      <trkpt lat="47.57702" lon="-2.22307">
        <ele>74.64</ele>
        <time>2014-09-21T07:49:26Z</time>
      </trkpt>
      <trkpt lat="47.57711" lon="-2.22314">
        <ele>74.64</ele>
        <time>2014-09-21T07:49:30Z</time>
      </trkpt>
      <trkpt lat="47.57721" lon="-2.22322">
        <ele>75.12</ele>
        <time>2014-09-21T07:49:34Z</time>
      </trkpt>
      <trkpt lat="47.57731" lon="-2.2233">
        <ele>75.6</ele>
        <time>2014-09-21T07:49:37Z</time>
      </trkpt>
      <trkpt lat="47.5774" lon="-2.22337">
        <ele>75.6</ele>
        <time>2014-09-21T07:49:40Z</time>
      </trkpt>
      <trkpt lat="47.57749" lon="-2.22345">
        <ele>75.6</ele>
        <time>2014-09-21T07:49:43Z</time>
      </trkpt>
      <trkpt lat="47.57756" lon="-2.22353">
        <ele>75.6</ele>
        <time>2014-09-21T07:49:46Z</time>
      </trkpt>
      <trkpt lat="47.57764" lon="-2.22361">
        <ele>75.6</ele>
        <time>2014-09-21T07:49:49Z</time>
      </trkpt>
      <trkpt lat="47.57771" lon="-2.2237">
        <ele>75.12</ele>
        <time>2014-09-21T07:49:52Z</time>
      </trkpt>
      <trkpt lat="47.5778" lon="-2.22381">
        <ele>74.64</ele>
        <time>2014-09-21T07:49:56Z</time>
      </trkpt>
      <trkpt lat="47.57788" lon="-2.22391">
        <ele>74.16</ele>
        <time>2014-09-21T07:50:01Z</time>
      </trkpt>
      <trkpt lat="47.57796" lon="-2.22404">
        <ele>74.16</ele>
        <time>2014-09-21T07:50:06Z</time>
      </trkpt>
      <trkpt lat="47.57803" lon="-2.22416">
        <ele>74.64</ele>
        <time>2014-09-21T07:50:12Z</time>
      </trkpt>
      <trkpt lat="47.57811" lon="-2.2243">
        <ele>74.64</ele>
        <time>2014-09-21T07:50:18Z</time>
      </trkpt>
      <trkpt lat="47.57819" lon="-2.22444">
        <ele>74.16</ele>
        <time>2014-09-21T07:50:22Z</time>
      </trkpt>
      <trkpt lat="47.57826" lon="-2.22459">
        <ele>73.2</ele>
        <time>2014-09-21T07:50:26Z</time>
      </trkpt>
      <trkpt lat="47.57833" lon="-2.22474">
        <ele>72.72</ele>
        <time>2014-09-21T07:50:30Z</time>
      </trkpt>
      <trkpt lat="47.57842" lon="-2.2249">
        <ele>73.2</ele>
        <time>2014-09-21T07:50:34Z</time>
      </trkpt>
      <trkpt lat="47.57849" lon="-2.22505">
        <ele>74.64</ele>
        <time>2014-09-21T07:50:38Z</time>
      </trkpt>
      <trkpt lat="47.57857" lon="-2.22521">
        <ele>75.12</ele>
        <time>2014-09-21T07:50:42Z</time>
      </trkpt>
      <trkpt lat="47.57864" lon="-2.22536">
        <ele>76.56</ele>
        <time>2014-09-21T07:50:46Z</time>
      </trkpt>
      <trkpt lat="47.5787" lon="-2.22549">
        <ele>77.52</ele>
        <time>2014-09-21T07:50:49Z</time>
      </trkpt>
      <trkpt lat="47.57876" lon="-2.22561">
        <ele>78.48</ele>
        <time>2014-09-21T07:50:52Z</time>
      </trkpt>
      <trkpt lat="47.57882" lon="-2.22574">
        <ele>79.45</ele>
        <time>2014-09-21T07:50:55Z</time>
      </trkpt>
      <trkpt lat="47.57887" lon="-2.22586">
        <ele>79.93</ele>
        <time>2014-09-21T07:50:58Z</time>
      </trkpt>
      <trkpt lat="47.57891" lon="-2.22601">
        <ele>80.89</ele>
        <time>2014-09-21T07:51:01Z</time>
      </trkpt>
      <trkpt lat="47.57893" lon="-2.22614">
        <ele>81.37</ele>
        <time>2014-09-21T07:51:04Z</time>
      </trkpt>
      <trkpt lat="47.57897" lon="-2.22628">
        <ele>82.33</ele>
        <time>2014-09-21T07:51:07Z</time>
      </trkpt>
      <trkpt lat="47.579" lon="-2.22645">
        <ele>82.81</ele>
        <time>2014-09-21T07:51:11Z</time>
      </trkpt>
      <trkpt lat="47.57902" lon="-2.22662">
        <ele>82.81</ele>
        <time>2014-09-21T07:51:15Z</time>
      </trkpt>
      <trkpt lat="47.57905" lon="-2.22676">
        <ele>82.33</ele>
        <time>2014-09-21T07:51:18Z</time>
      </trkpt>
      <trkpt lat="47.57908" lon="-2.22693">
        <ele>82.33</ele>
        <time>2014-09-21T07:51:21Z</time>
      </trkpt>
      <trkpt lat="47.57911" lon="-2.22707">
        <ele>81.85</ele>
        <time>2014-09-21T07:51:24Z</time>
      </trkpt>
      <trkpt lat="47.57914" lon="-2.22724">
        <ele>81.37</ele>
        <time>2014-09-21T07:51:27Z</time>
      </trkpt>
      <trkpt lat="47.57918" lon="-2.22743">
        <ele>81.37</ele>
        <time>2014-09-21T07:51:30Z</time>
      </trkpt>
      <trkpt lat="47.5792" lon="-2.22758">
        <ele>81.85</ele>
        <time>2014-09-21T07:51:32Z</time>
      </trkpt>
      <trkpt lat="47.57922" lon="-2.22774">
        <ele>81.85</ele>
        <time>2014-09-21T07:51:34Z</time>
      </trkpt>
      <trkpt lat="47.57925" lon="-2.2279">
        <ele>81.85</ele>
        <time>2014-09-21T07:51:37Z</time>
      </trkpt>
      <trkpt lat="47.57928" lon="-2.22809">
        <ele>80.89</ele>
        <time>2014-09-21T07:51:40Z</time>
      </trkpt>
      <trkpt lat="47.57932" lon="-2.22828">
        <ele>79.93</ele>
        <time>2014-09-21T07:51:43Z</time>
      </trkpt>
      <trkpt lat="47.57933" lon="-2.22844">
        <ele>78.97</ele>
        <time>2014-09-21T07:51:45Z</time>
      </trkpt>
      <trkpt lat="47.57935" lon="-2.22862">
        <ele>78</ele>
        <time>2014-09-21T07:51:47Z</time>
      </trkpt>
      <trkpt lat="47.57938" lon="-2.22883">
        <ele>77.04</ele>
        <time>2014-09-21T07:51:49Z</time>
      </trkpt>
      <trkpt lat="47.57941" lon="-2.22905">
        <ele>76.08</ele>
        <time>2014-09-21T07:51:51Z</time>
      </trkpt>
      <trkpt lat="47.57942" lon="-2.22927">
        <ele>75.12</ele>
        <time>2014-09-21T07:51:53Z</time>
      </trkpt>
      <trkpt lat="47.57942" lon="-2.22947">
        <ele>74.16</ele>
        <time>2014-09-21T07:51:55Z</time>
      </trkpt>
      <trkpt lat="47.57944" lon="-2.22967">
        <ele>73.2</ele>
        <time>2014-09-21T07:51:57Z</time>
      </trkpt>
      <trkpt lat="47.57945" lon="-2.22986">
        <ele>71.76</ele>
        <time>2014-09-21T07:51:59Z</time>
      </trkpt>
      <trkpt lat="47.5794" lon="-2.23">
        <ele>69.83</ele>
        <time>2014-09-21T07:52:01Z</time>
      </trkpt>
      <trkpt lat="47.57935" lon="-2.23014">
        <ele>67.43</ele>
        <time>2014-09-21T07:52:03Z</time>
      </trkpt>
      <trkpt lat="47.57934" lon="-2.23033">
        <ele>61.18</ele>
        <time>2014-09-21T07:52:08Z</time>
      </trkpt>
      <trkpt lat="47.5794" lon="-2.23045">
        <ele>57.34</ele>
        <time>2014-09-21T07:52:12Z</time>
      </trkpt>
      <trkpt lat="47.57945" lon="-2.2306">
        <ele>54.45</ele>
        <time>2014-09-21T07:52:16Z</time>
      </trkpt>
      <trkpt lat="47.5795" lon="-2.23052">
        <ele>53.97</ele>
        <time>2014-09-21T07:53:07Z</time>
      </trkpt>
      <trkpt lat="47.57951" lon="-2.23037">
        <ele>54.45</ele>
        <time>2014-09-21T07:53:10Z</time>
      </trkpt>
      <trkpt lat="47.57957" lon="-2.2302">
        <ele>54.45</ele>
        <time>2014-09-21T07:53:13Z</time>
      </trkpt>
      <trkpt lat="47.57963" lon="-2.23006">
        <ele>54.45</ele>
        <time>2014-09-21T07:53:15Z</time>
      </trkpt>
      <trkpt lat="47.57969" lon="-2.22993">
        <ele>54.45</ele>
        <time>2014-09-21T07:53:17Z</time>
      </trkpt>
      <trkpt lat="47.57976" lon="-2.22977">
        <ele>53.97</ele>
        <time>2014-09-21T07:53:20Z</time>
      </trkpt>
      <trkpt lat="47.57979" lon="-2.22964">
        <ele>53.97</ele>
        <time>2014-09-21T07:53:22Z</time>
      </trkpt>
      <trkpt lat="47.57982" lon="-2.22949">
        <ele>53.97</ele>
        <time>2014-09-21T07:53:24Z</time>
      </trkpt>
      <trkpt lat="47.57983" lon="-2.22931">
        <ele>53.49</ele>
        <time>2014-09-21T07:53:27Z</time>
      </trkpt>
      <trkpt lat="47.57985" lon="-2.22912">
        <ele>52.53</ele>
        <time>2014-09-21T07:53:31Z</time>
      </trkpt>
      <trkpt lat="47.57987" lon="-2.22897">
        <ele>51.09</ele>
        <time>2014-09-21T07:53:36Z</time>
      </trkpt>
      <trkpt lat="47.57982" lon="-2.22879">
        <ele>50.61</ele>
        <time>2014-09-21T07:53:43Z</time>
      </trkpt>
      <trkpt lat="47.57978" lon="-2.22859">
        <ele>50.61</ele>
        <time>2014-09-21T07:53:49Z</time>
      </trkpt>
      <trkpt lat="47.57976" lon="-2.2284">
        <ele>52.05</ele>
        <time>2014-09-21T07:53:54Z</time>
      </trkpt>
      <trkpt lat="47.57981" lon="-2.2282">
        <ele>53.97</ele>
        <time>2014-09-21T07:53:58Z</time>
      </trkpt>
      <trkpt lat="47.57986" lon="-2.228">
        <ele>53.97</ele>
        <time>2014-09-21T07:54:01Z</time>
      </trkpt>
      <trkpt lat="47.57992" lon="-2.22786">
        <ele>53.97</ele>
        <time>2014-09-21T07:54:03Z</time>
      </trkpt>
      <trkpt lat="47.57996" lon="-2.2277">
        <ele>53.97</ele>
        <time>2014-09-21T07:54:05Z</time>
      </trkpt>
      <trkpt lat="47.57989" lon="-2.22755">
        <ele>53.49</ele>
        <time>2014-09-21T07:54:10Z</time>
      </trkpt>
      <trkpt lat="47.57977" lon="-2.22741">
        <ele>60.22</ele>
        <time>2014-09-21T07:54:46Z</time>
      </trkpt>
      <trkpt lat="47.57978" lon="-2.22725">
        <ele>65.51</ele>
        <time>2014-09-21T08:00:22Z</time>
      </trkpt>
      <trkpt lat="47.57976" lon="-2.22709">
        <ele>67.91</ele>
        <time>2014-09-21T08:00:29Z</time>
      </trkpt>
      <trkpt lat="47.57975" lon="-2.22693">
        <ele>70.79</ele>
        <time>2014-09-21T08:00:34Z</time>
      </trkpt>
      <trkpt lat="47.57978" lon="-2.22678">
        <ele>70.79</ele>
        <time>2014-09-21T08:00:38Z</time>
      </trkpt>
      <trkpt lat="47.57982" lon="-2.22659">
        <ele>71.27</ele>
        <time>2014-09-21T08:00:42Z</time>
      </trkpt>
      <trkpt lat="47.5799" lon="-2.2264">
        <ele>71.27</ele>
        <time>2014-09-21T08:00:45Z</time>
      </trkpt>
      <trkpt lat="47.57996" lon="-2.22626">
        <ele>69.35</ele>
        <time>2014-09-21T08:00:47Z</time>
      </trkpt>
      <trkpt lat="47.58001" lon="-2.22613">
        <ele>67.43</ele>
        <time>2014-09-21T08:00:49Z</time>
      </trkpt>
      <trkpt lat="47.58013" lon="-2.22608">
        <ele>65.99</ele>
        <time>2014-09-21T08:00:52Z</time>
      </trkpt>
      <trkpt lat="47.58025" lon="-2.22615">
        <ele>64.07</ele>
        <time>2014-09-21T08:00:55Z</time>
      </trkpt>
      <trkpt lat="47.58036" lon="-2.2262">
        <ele>63.1</ele>
        <time>2014-09-21T08:00:58Z</time>
      </trkpt>
      <trkpt lat="47.58042" lon="-2.22606">
        <ele>58.3</ele>
        <time>2014-09-21T08:01:02Z</time>
      </trkpt>
      <trkpt lat="47.58038" lon="-2.22588">
        <ele>55.89</ele>
        <time>2014-09-21T08:01:06Z</time>
      </trkpt>
      <trkpt lat="47.58036" lon="-2.22574">
        <ele>54.93</ele>
        <time>2014-09-21T08:01:09Z</time>
      </trkpt>
      <trkpt lat="47.58034" lon="-2.22558">
        <ele>53.49</ele>
        <time>2014-09-21T08:01:12Z</time>
      </trkpt>
      <trkpt lat="47.58032" lon="-2.22543">
        <ele>52.53</ele>
        <time>2014-09-21T08:01:15Z</time>
      </trkpt>
      <trkpt lat="47.5803" lon="-2.22528">
        <ele>50.61</ele>
        <time>2014-09-21T08:01:18Z</time>
      </trkpt>
      <trkpt lat="47.58027" lon="-2.22512">
        <ele>48.68</ele>
        <time>2014-09-21T08:01:22Z</time>
      </trkpt>
      <trkpt lat="47.58028" lon="-2.22523">
        <ele>42.44</ele>
        <time>2014-09-21T08:01:29Z</time>
      </trkpt>
      <trkpt lat="47.5803" lon="-2.2254">
        <ele>40.99</ele>
        <time>2014-09-21T08:01:32Z</time>
      </trkpt>
      <trkpt lat="47.58031" lon="-2.22559">
        <ele>40.03</ele>
        <time>2014-09-21T08:01:35Z</time>
      </trkpt>
      <trkpt lat="47.58033" lon="-2.22572">
        <ele>39.55</ele>
        <time>2014-09-21T08:01:37Z</time>
      </trkpt>
      <trkpt lat="47.58035" lon="-2.22586">
        <ele>39.07</ele>
        <time>2014-09-21T08:01:39Z</time>
      </trkpt>
      <trkpt lat="47.58038" lon="-2.22606">
        <ele>38.11</ele>
        <time>2014-09-21T08:01:42Z</time>
      </trkpt>
      <trkpt lat="47.5804" lon="-2.22623">
        <ele>37.15</ele>
        <time>2014-09-21T08:01:45Z</time>
      </trkpt>
      <trkpt lat="47.58042" lon="-2.22638">
        <ele>36.19</ele>
        <time>2014-09-21T08:01:48Z</time>
      </trkpt>
      <trkpt lat="47.58044" lon="-2.22655">
        <ele>34.74</ele>
        <time>2014-09-21T08:01:51Z</time>
      </trkpt>
      <trkpt lat="47.58045" lon="-2.22674">
        <ele>32.82</ele>
        <time>2014-09-21T08:01:54Z</time>
      </trkpt>
      <trkpt lat="47.58047" lon="-2.22692">
        <ele>32.82</ele>
        <time>2014-09-21T08:01:57Z</time>
      </trkpt>
      <trkpt lat="47.5805" lon="-2.22706">
        <ele>32.82</ele>
        <time>2014-09-21T08:01:59Z</time>
      </trkpt>
      <trkpt lat="47.5806" lon="-2.22713">
        <ele>32.34</ele>
        <time>2014-09-21T08:02:01Z</time>
      </trkpt>
      <trkpt lat="47.58073" lon="-2.2271">
        <ele>32.34</ele>
        <time>2014-09-21T08:02:03Z</time>
      </trkpt>
      <trkpt lat="47.58086" lon="-2.22699">
        <ele>31.86</ele>
        <time>2014-09-21T08:02:05Z</time>
      </trkpt>
      <trkpt lat="47.58098" lon="-2.22687">
        <ele>31.86</ele>
        <time>2014-09-21T08:02:07Z</time>
      </trkpt>
      <trkpt lat="47.58111" lon="-2.22682">
        <ele>30.42</ele>
        <time>2014-09-21T08:02:10Z</time>
      </trkpt>
      <trkpt lat="47.58113" lon="-2.22691">
        <ele>27.05</ele>
        <time>2014-09-21T08:02:14Z</time>
      </trkpt>
      <trkpt lat="47.5811" lon="-2.22705">
        <ele>26.57</ele>
        <time>2014-09-21T08:02:17Z</time>
      </trkpt>
      <trkpt lat="47.58108" lon="-2.2272">
        <ele>25.13</ele>
        <time>2014-09-21T08:02:20Z</time>
      </trkpt>
      <trkpt lat="47.58104" lon="-2.22735">
        <ele>23.69</ele>
        <time>2014-09-21T08:02:23Z</time>
      </trkpt>
      <trkpt lat="47.581" lon="-2.22753">
        <ele>22.25</ele>
        <time>2014-09-21T08:02:27Z</time>
      </trkpt>
      <trkpt lat="47.58096" lon="-2.22771">
        <ele>20.81</ele>
        <time>2014-09-21T08:02:30Z</time>
      </trkpt>
      <trkpt lat="47.58091" lon="-2.22789">
        <ele>19.84</ele>
        <time>2014-09-21T08:02:33Z</time>
      </trkpt>
      <trkpt lat="47.58087" lon="-2.22809">
        <ele>19.84</ele>
        <time>2014-09-21T08:02:36Z</time>
      </trkpt>
      <trkpt lat="47.58082" lon="-2.22826">
        <ele>19.36</ele>
        <time>2014-09-21T08:02:39Z</time>
      </trkpt>
      <trkpt lat="47.58078" lon="-2.22845">
        <ele>19.36</ele>
        <time>2014-09-21T08:02:42Z</time>
      </trkpt>
      <trkpt lat="47.58075" lon="-2.22864">
        <ele>19.36</ele>
        <time>2014-09-21T08:02:45Z</time>
      </trkpt>
      <trkpt lat="47.58072" lon="-2.22882">
        <ele>19.36</ele>
        <time>2014-09-21T08:02:48Z</time>
      </trkpt>
      <trkpt lat="47.58068" lon="-2.22901">
        <ele>19.84</ele>
        <time>2014-09-21T08:02:51Z</time>
      </trkpt>
      <trkpt lat="47.58065" lon="-2.22913">
        <ele>19.84</ele>
        <time>2014-09-21T08:02:53Z</time>
      </trkpt>
      <trkpt lat="47.58061" lon="-2.2293">
        <ele>19.84</ele>
        <time>2014-09-21T08:02:56Z</time>
      </trkpt>
      <trkpt lat="47.58059" lon="-2.22945">
        <ele>19.36</ele>
        <time>2014-09-21T08:02:59Z</time>
      </trkpt>
      <trkpt lat="47.58056" lon="-2.22963">
        <ele>19.36</ele>
        <time>2014-09-21T08:03:02Z</time>
      </trkpt>
      <trkpt lat="47.58051" lon="-2.22984">
        <ele>19.36</ele>
        <time>2014-09-21T08:03:05Z</time>
      </trkpt>
      <trkpt lat="47.58048" lon="-2.22998">
        <ele>19.36</ele>
        <time>2014-09-21T08:03:07Z</time>
      </trkpt>
      <trkpt lat="47.58044" lon="-2.23013">
        <ele>19.36</ele>
        <time>2014-09-21T08:03:09Z</time>
      </trkpt>
      <trkpt lat="47.58041" lon="-2.23029">
        <ele>19.36</ele>
        <time>2014-09-21T08:03:11Z</time>
      </trkpt>
      <trkpt lat="47.58039" lon="-2.23043">
        <ele>19.36</ele>
        <time>2014-09-21T08:03:13Z</time>
      </trkpt>
      <trkpt lat="47.58035" lon="-2.2306">
        <ele>19.36</ele>
        <time>2014-09-21T08:03:15Z</time>
      </trkpt>
      <trkpt lat="47.58032" lon="-2.23075">
        <ele>19.36</ele>
        <time>2014-09-21T08:03:17Z</time>
      </trkpt>
      <trkpt lat="47.58029" lon="-2.23095">
        <ele>19.36</ele>
        <time>2014-09-21T08:03:20Z</time>
      </trkpt>
      <trkpt lat="47.58025" lon="-2.23111">
        <ele>19.36</ele>
        <time>2014-09-21T08:03:22Z</time>
      </trkpt>
      <trkpt lat="47.58021" lon="-2.23125">
        <ele>19.84</ele>
        <time>2014-09-21T08:03:24Z</time>
      </trkpt>
      <trkpt lat="47.58016" lon="-2.23138">
        <ele>19.84</ele>
        <time>2014-09-21T08:03:26Z</time>
      </trkpt>
      <trkpt lat="47.58011" lon="-2.23151">
        <ele>19.84</ele>
        <time>2014-09-21T08:03:28Z</time>
      </trkpt>
      <trkpt lat="47.58003" lon="-2.23163">
        <ele>19.84</ele>
        <time>2014-09-21T08:03:30Z</time>
      </trkpt>
      <trkpt lat="47.57992" lon="-2.23174">
        <ele>17.44</ele>
        <time>2014-09-21T08:03:32Z</time>
      </trkpt>
      <trkpt lat="47.57977" lon="-2.23185">
        <ele>13.12</ele>
        <time>2014-09-21T08:03:34Z</time>
      </trkpt>
      <trkpt lat="47.57965" lon="-2.23193">
        <ele>11.67</ele>
        <time>2014-09-21T08:03:36Z</time>
      </trkpt>
      <trkpt lat="47.57954" lon="-2.23199">
        <ele>10.71</ele>
        <time>2014-09-21T08:03:38Z</time>
      </trkpt>
      <trkpt lat="47.57944" lon="-2.23203">
        <ele>10.23</ele>
        <time>2014-09-21T08:03:40Z</time>
      </trkpt>
      <trkpt lat="47.57933" lon="-2.23205">
        <ele>9.75</ele>
        <time>2014-09-21T08:03:42Z</time>
      </trkpt>
      <trkpt lat="47.57922" lon="-2.23206">
        <ele>9.75</ele>
        <time>2014-09-21T08:03:44Z</time>
      </trkpt>
      <trkpt lat="47.57911" lon="-2.23207">
        <ele>9.27</ele>
        <time>2014-09-21T08:03:46Z</time>
      </trkpt>
      <trkpt lat="47.579" lon="-2.23207">
        <ele>9.27</ele>
        <time>2014-09-21T08:03:48Z</time>
      </trkpt>
      <trkpt lat="47.5789" lon="-2.23208">
        <ele>9.27</ele>
        <time>2014-09-21T08:03:50Z</time>
      </trkpt>
      <trkpt lat="47.57881" lon="-2.23208">
        <ele>9.75</ele>
        <time>2014-09-21T08:03:52Z</time>
      </trkpt>
      <trkpt lat="47.57867" lon="-2.23209">
        <ele>10.23</ele>
        <time>2014-09-21T08:03:55Z</time>
      </trkpt>
      <trkpt lat="47.57856" lon="-2.23209">
        <ele>10.23</ele>
        <time>2014-09-21T08:03:57Z</time>
      </trkpt>
      <trkpt lat="47.57845" lon="-2.2321">
        <ele>10.23</ele>
        <time>2014-09-21T08:03:59Z</time>
      </trkpt>
      <trkpt lat="47.57833" lon="-2.2321">
        <ele>10.23</ele>
        <time>2014-09-21T08:04:01Z</time>
      </trkpt>
      <trkpt lat="47.57822" lon="-2.2321">
        <ele>9.75</ele>
        <time>2014-09-21T08:04:03Z</time>
      </trkpt>
      <trkpt lat="47.57811" lon="-2.2321">
        <ele>9.75</ele>
        <time>2014-09-21T08:04:05Z</time>
      </trkpt>
      <trkpt lat="47.57799" lon="-2.23212">
        <ele>9.27</ele>
        <time>2014-09-21T08:04:07Z</time>
      </trkpt>
      <trkpt lat="47.57787" lon="-2.23217">
        <ele>8.79</ele>
        <time>2014-09-21T08:04:09Z</time>
      </trkpt>
      <trkpt lat="47.57777" lon="-2.23224">
        <ele>8.31</ele>
        <time>2014-09-21T08:04:11Z</time>
      </trkpt>
      <trkpt lat="47.57767" lon="-2.23233">
        <ele>8.31</ele>
        <time>2014-09-21T08:04:13Z</time>
      </trkpt>
      <trkpt lat="47.57756" lon="-2.23242">
        <ele>7.83</ele>
        <time>2014-09-21T08:04:15Z</time>
      </trkpt>
      <trkpt lat="47.57746" lon="-2.23251">
        <ele>7.83</ele>
        <time>2014-09-21T08:04:17Z</time>
      </trkpt>
      <trkpt lat="47.57737" lon="-2.2326">
        <ele>7.83</ele>
        <time>2014-09-21T08:04:19Z</time>
      </trkpt>
      <trkpt lat="47.57727" lon="-2.23269">
        <ele>7.83</ele>
        <time>2014-09-21T08:04:21Z</time>
      </trkpt>
      <trkpt lat="47.57718" lon="-2.23278">
        <ele>7.83</ele>
        <time>2014-09-21T08:04:23Z</time>
      </trkpt>
      <trkpt lat="47.57708" lon="-2.23288">
        <ele>7.83</ele>
        <time>2014-09-21T08:04:25Z</time>
      </trkpt>
      <trkpt lat="47.57699" lon="-2.23297">
        <ele>7.83</ele>
        <time>2014-09-21T08:04:27Z</time>
      </trkpt>
      <trkpt lat="47.5769" lon="-2.23305">
        <ele>7.83</ele>
        <time>2014-09-21T08:04:29Z</time>
      </trkpt>
      <trkpt lat="47.57681" lon="-2.23313">
        <ele>7.83</ele>
        <time>2014-09-21T08:04:31Z</time>
      </trkpt>
      <trkpt lat="47.57672" lon="-2.23321">
        <ele>7.83</ele>
        <time>2014-09-21T08:04:33Z</time>
      </trkpt>
      <trkpt lat="47.57664" lon="-2.23328">
        <ele>7.83</ele>
        <time>2014-09-21T08:04:35Z</time>
      </trkpt>
      <trkpt lat="47.57656" lon="-2.23335">
        <ele>8.31</ele>
        <time>2014-09-21T08:04:37Z</time>
      </trkpt>
      <trkpt lat="47.57648" lon="-2.23341">
        <ele>7.83</ele>
        <time>2014-09-21T08:04:39Z</time>
      </trkpt>
      <trkpt lat="47.5764" lon="-2.23348">
        <ele>8.31</ele>
        <time>2014-09-21T08:04:41Z</time>
      </trkpt>
      <trkpt lat="47.57632" lon="-2.23355">
        <ele>8.31</ele>
        <time>2014-09-21T08:04:43Z</time>
      </trkpt>
      <trkpt lat="47.57624" lon="-2.23362">
        <ele>8.31</ele>
        <time>2014-09-21T08:04:45Z</time>
      </trkpt>
      <trkpt lat="47.57616" lon="-2.2337">
        <ele>8.31</ele>
        <time>2014-09-21T08:04:47Z</time>
      </trkpt>
      <trkpt lat="47.57607" lon="-2.23378">
        <ele>7.83</ele>
        <time>2014-09-21T08:04:49Z</time>
      </trkpt>
      <trkpt lat="47.57598" lon="-2.23386">
        <ele>7.83</ele>
        <time>2014-09-21T08:04:51Z</time>
      </trkpt>
      <trkpt lat="47.57589" lon="-2.23394">
        <ele>7.83</ele>
        <time>2014-09-21T08:04:53Z</time>
      </trkpt>
      <trkpt lat="47.57581" lon="-2.23403">
        <ele>7.83</ele>
        <time>2014-09-21T08:04:55Z</time>
      </trkpt>
      <trkpt lat="47.57572" lon="-2.23411">
        <ele>7.83</ele>
        <time>2014-09-21T08:04:57Z</time>
      </trkpt>
      <trkpt lat="47.57563" lon="-2.23419">
        <ele>7.83</ele>
        <time>2014-09-21T08:04:59Z</time>
      </trkpt>
      <trkpt lat="47.57554" lon="-2.23426">
        <ele>8.31</ele>
        <time>2014-09-21T08:05:01Z</time>
      </trkpt>
      <trkpt lat="47.57545" lon="-2.23434">
        <ele>7.83</ele>
        <time>2014-09-21T08:05:03Z</time>
      </trkpt>
      <trkpt lat="47.57535" lon="-2.23441">
        <ele>7.83</ele>
        <time>2014-09-21T08:05:05Z</time>
      </trkpt>
      <trkpt lat="47.57525" lon="-2.23447">
        <ele>8.31</ele>
        <time>2014-09-21T08:05:07Z</time>
      </trkpt>
      <trkpt lat="47.57516" lon="-2.23452">
        <ele>8.31</ele>
        <time>2014-09-21T08:05:09Z</time>
      </trkpt>
      <trkpt lat="47.57507" lon="-2.23457">
        <ele>8.31</ele>
        <time>2014-09-21T08:05:11Z</time>
      </trkpt>
      <trkpt lat="47.57498" lon="-2.23461">
        <ele>8.79</ele>
        <time>2014-09-21T08:05:13Z</time>
      </trkpt>
      <trkpt lat="47.5749" lon="-2.23466">
        <ele>9.27</ele>
        <time>2014-09-21T08:05:15Z</time>
      </trkpt>
      <trkpt lat="47.57478" lon="-2.23471">
        <ele>10.23</ele>
        <time>2014-09-21T08:05:18Z</time>
      </trkpt>
      <trkpt lat="47.57467" lon="-2.23477">
        <ele>11.19</ele>
        <time>2014-09-21T08:05:21Z</time>
      </trkpt>
      <trkpt lat="47.57457" lon="-2.23484">
        <ele>12.15</ele>
        <time>2014-09-21T08:05:24Z</time>
      </trkpt>
      <trkpt lat="47.57448" lon="-2.23492">
        <ele>12.63</ele>
        <time>2014-09-21T08:05:27Z</time>
      </trkpt>
      <trkpt lat="47.57439" lon="-2.23502">
        <ele>13.12</ele>
        <time>2014-09-21T08:05:30Z</time>
      </trkpt>
      <trkpt lat="47.57431" lon="-2.23517">
        <ele>13.6</ele>
        <time>2014-09-21T08:05:33Z</time>
      </trkpt>
      <trkpt lat="47.57425" lon="-2.23532">
        <ele>14.56</ele>
        <time>2014-09-21T08:05:36Z</time>
      </trkpt>
      <trkpt lat="47.5742" lon="-2.23545">
        <ele>16</ele>
        <time>2014-09-21T08:05:39Z</time>
      </trkpt>
      <trkpt lat="47.57417" lon="-2.23558">
        <ele>16.96</ele>
        <time>2014-09-21T08:05:42Z</time>
      </trkpt>
      <trkpt lat="47.57414" lon="-2.23572">
        <ele>18.4</ele>
        <time>2014-09-21T08:05:45Z</time>
      </trkpt>
      <trkpt lat="47.5741" lon="-2.23587">
        <ele>19.36</ele>
        <time>2014-09-21T08:05:49Z</time>
      </trkpt>
      <trkpt lat="47.57406" lon="-2.23601">
        <ele>21.29</ele>
        <time>2014-09-21T08:05:53Z</time>
      </trkpt>
      <trkpt lat="47.574" lon="-2.23613">
        <ele>23.21</ele>
        <time>2014-09-21T08:05:57Z</time>
      </trkpt>
      <trkpt lat="47.57394" lon="-2.23625">
        <ele>25.13</ele>
        <time>2014-09-21T08:06:01Z</time>
      </trkpt>
      <trkpt lat="47.57384" lon="-2.23634">
        <ele>26.09</ele>
        <time>2014-09-21T08:06:05Z</time>
      </trkpt>
      <trkpt lat="47.57374" lon="-2.23642">
        <ele>26.57</ele>
        <time>2014-09-21T08:06:09Z</time>
      </trkpt>
      <trkpt lat="47.57363" lon="-2.23648">
        <ele>27.53</ele>
        <time>2014-09-21T08:06:13Z</time>
      </trkpt>
      <trkpt lat="47.57354" lon="-2.23652">
        <ele>28.5</ele>
        <time>2014-09-21T08:06:17Z</time>
      </trkpt>
      <trkpt lat="47.57343" lon="-2.23657">
        <ele>28.5</ele>
        <time>2014-09-21T08:06:21Z</time>
      </trkpt>
      <trkpt lat="47.57331" lon="-2.23664">
        <ele>28.5</ele>
        <time>2014-09-21T08:06:25Z</time>
      </trkpt>
      <trkpt lat="47.57319" lon="-2.2367">
        <ele>28.5</ele>
        <time>2014-09-21T08:06:29Z</time>
      </trkpt>
      <trkpt lat="47.57307" lon="-2.23675">
        <ele>28.98</ele>
        <time>2014-09-21T08:06:33Z</time>
      </trkpt>
      <trkpt lat="47.57296" lon="-2.2368">
        <ele>29.94</ele>
        <time>2014-09-21T08:06:37Z</time>
      </trkpt>
      <trkpt lat="47.57284" lon="-2.23685">
        <ele>30.42</ele>
        <time>2014-09-21T08:06:41Z</time>
      </trkpt>
      <trkpt lat="47.57273" lon="-2.23691">
        <ele>30.9</ele>
        <time>2014-09-21T08:06:45Z</time>
      </trkpt>
      <trkpt lat="47.57262" lon="-2.23696">
        <ele>31.86</ele>
        <time>2014-09-21T08:06:49Z</time>
      </trkpt>
      <trkpt lat="47.57251" lon="-2.23701">
        <ele>32.34</ele>
        <time>2014-09-21T08:06:53Z</time>
      </trkpt>
      <trkpt lat="47.57241" lon="-2.23705">
        <ele>33.3</ele>
        <time>2014-09-21T08:06:56Z</time>
      </trkpt>
      <trkpt lat="47.57232" lon="-2.23709">
        <ele>33.3</ele>
        <time>2014-09-21T08:06:59Z</time>
      </trkpt>
      <trkpt lat="47.57222" lon="-2.23714">
        <ele>33.78</ele>
        <time>2014-09-21T08:07:02Z</time>
      </trkpt>
      <trkpt lat="47.57212" lon="-2.23719">
        <ele>34.26</ele>
        <time>2014-09-21T08:07:05Z</time>
      </trkpt>
      <trkpt lat="47.57202" lon="-2.23724">
        <ele>34.74</ele>
        <time>2014-09-21T08:07:08Z</time>
      </trkpt>
      <trkpt lat="47.57193" lon="-2.23728">
        <ele>35.71</ele>
        <time>2014-09-21T08:07:11Z</time>
      </trkpt>
      <trkpt lat="47.57184" lon="-2.23732">
        <ele>36.19</ele>
        <time>2014-09-21T08:07:14Z</time>
      </trkpt>
      <trkpt lat="47.57174" lon="-2.23736">
        <ele>36.67</ele>
        <time>2014-09-21T08:07:17Z</time>
      </trkpt>
      <trkpt lat="47.57164" lon="-2.23741">
        <ele>36.67</ele>
        <time>2014-09-21T08:07:20Z</time>
      </trkpt>
      <trkpt lat="47.57154" lon="-2.23746">
        <ele>36.67</ele>
        <time>2014-09-21T08:07:23Z</time>
      </trkpt>
      <trkpt lat="47.57144" lon="-2.23751">
        <ele>37.15</ele>
        <time>2014-09-21T08:07:26Z</time>
      </trkpt>
      <trkpt lat="47.57133" lon="-2.23757">
        <ele>37.63</ele>
        <time>2014-09-21T08:07:29Z</time>
      </trkpt>
      <trkpt lat="47.57122" lon="-2.23762">
        <ele>38.11</ele>
        <time>2014-09-21T08:07:32Z</time>
      </trkpt>
      <trkpt lat="47.57111" lon="-2.23767">
        <ele>38.11</ele>
        <time>2014-09-21T08:07:35Z</time>
      </trkpt>
      <trkpt lat="47.571" lon="-2.23772">
        <ele>39.07</ele>
        <time>2014-09-21T08:07:38Z</time>
      </trkpt>
      <trkpt lat="47.5709" lon="-2.23779">
        <ele>39.55</ele>
        <time>2014-09-21T08:07:41Z</time>
      </trkpt>
      <trkpt lat="47.57079" lon="-2.23786">
        <ele>40.03</ele>
        <time>2014-09-21T08:07:44Z</time>
      </trkpt>
      <trkpt lat="47.57069" lon="-2.23796">
        <ele>40.51</ele>
        <time>2014-09-21T08:07:47Z</time>
      </trkpt>
      <trkpt lat="47.5706" lon="-2.23805">
        <ele>40.99</ele>
        <time>2014-09-21T08:07:50Z</time>
      </trkpt>
      <trkpt lat="47.5705" lon="-2.23815">
        <ele>41.47</ele>
        <time>2014-09-21T08:07:53Z</time>
      </trkpt>
      <trkpt lat="47.57043" lon="-2.23827">
        <ele>42.44</ele>
        <time>2014-09-21T08:07:56Z</time>
      </trkpt>
      <trkpt lat="47.57039" lon="-2.23842">
        <ele>42.44</ele>
        <time>2014-09-21T08:07:59Z</time>
      </trkpt>
      <trkpt lat="47.57035" lon="-2.23856">
        <ele>43.4</ele>
        <time>2014-09-21T08:08:02Z</time>
      </trkpt>
      <trkpt lat="47.57034" lon="-2.23871">
        <ele>43.88</ele>
        <time>2014-09-21T08:08:05Z</time>
      </trkpt>
      <trkpt lat="47.57032" lon="-2.23886">
        <ele>44.36</ele>
        <time>2014-09-21T08:08:08Z</time>
      </trkpt>
      <trkpt lat="47.57031" lon="-2.23901">
        <ele>44.84</ele>
        <time>2014-09-21T08:08:11Z</time>
      </trkpt>
      <trkpt lat="47.5703" lon="-2.23917">
        <ele>45.32</ele>
        <time>2014-09-21T08:08:14Z</time>
      </trkpt>
      <trkpt lat="47.57028" lon="-2.23933">
        <ele>45.8</ele>
        <time>2014-09-21T08:08:17Z</time>
      </trkpt>
      <trkpt lat="47.57027" lon="-2.23948">
        <ele>46.28</ele>
        <time>2014-09-21T08:08:20Z</time>
      </trkpt>
      <trkpt lat="47.57025" lon="-2.23963">
        <ele>46.76</ele>
        <time>2014-09-21T08:08:23Z</time>
      </trkpt>
      <trkpt lat="47.57024" lon="-2.23978">
        <ele>47.24</ele>
        <time>2014-09-21T08:08:26Z</time>
      </trkpt>
      <trkpt lat="47.57023" lon="-2.23994">
        <ele>47.72</ele>
        <time>2014-09-21T08:08:29Z</time>
      </trkpt>
      <trkpt lat="47.57022" lon="-2.24009">
        <ele>47.72</ele>
        <time>2014-09-21T08:08:32Z</time>
      </trkpt>
      <trkpt lat="47.57022" lon="-2.24023">
        <ele>49.65</ele>
        <time>2014-09-21T08:08:35Z</time>
      </trkpt>
      <trkpt lat="47.57021" lon="-2.24037">
        <ele>51.09</ele>
        <time>2014-09-21T08:08:38Z</time>
      </trkpt>
      <trkpt lat="47.57019" lon="-2.24052">
        <ele>51.57</ele>
        <time>2014-09-21T08:08:41Z</time>
      </trkpt>
      <trkpt lat="47.57018" lon="-2.24067">
        <ele>52.05</ele>
        <time>2014-09-21T08:08:44Z</time>
      </trkpt>
      <trkpt lat="47.57016" lon="-2.24081">
        <ele>52.53</ele>
        <time>2014-09-21T08:08:47Z</time>
      </trkpt>
      <trkpt lat="47.57014" lon="-2.24096">
        <ele>53.01</ele>
        <time>2014-09-21T08:08:50Z</time>
      </trkpt>
      <trkpt lat="47.57013" lon="-2.24114">
        <ele>53.49</ele>
        <time>2014-09-21T08:08:54Z</time>
      </trkpt>
      <trkpt lat="47.57012" lon="-2.24132">
        <ele>53.01</ele>
        <time>2014-09-21T08:08:58Z</time>
      </trkpt>
      <trkpt lat="47.57009" lon="-2.24153">
        <ele>53.97</ele>
        <time>2014-09-21T08:09:02Z</time>
      </trkpt>
      <trkpt lat="47.57003" lon="-2.24167">
        <ele>54.93</ele>
        <time>2014-09-21T08:09:05Z</time>
      </trkpt>
      <trkpt lat="47.56995" lon="-2.24178">
        <ele>55.89</ele>
        <time>2014-09-21T08:09:08Z</time>
      </trkpt>
      <trkpt lat="47.56986" lon="-2.24186">
        <ele>56.86</ele>
        <time>2014-09-21T08:09:11Z</time>
      </trkpt>
      <trkpt lat="47.56975" lon="-2.24192">
        <ele>57.34</ele>
        <time>2014-09-21T08:09:14Z</time>
      </trkpt>
      <trkpt lat="47.56965" lon="-2.24197">
        <ele>57.82</ele>
        <time>2014-09-21T08:09:17Z</time>
      </trkpt>
      <trkpt lat="47.56955" lon="-2.24201">
        <ele>58.3</ele>
        <time>2014-09-21T08:09:20Z</time>
      </trkpt>
      <trkpt lat="47.56945" lon="-2.24207">
        <ele>58.3</ele>
        <time>2014-09-21T08:09:23Z</time>
      </trkpt>
      <trkpt lat="47.56936" lon="-2.24212">
        <ele>58.3</ele>
        <time>2014-09-21T08:09:26Z</time>
      </trkpt>
      <trkpt lat="47.56925" lon="-2.24218">
        <ele>58.78</ele>
        <time>2014-09-21T08:09:30Z</time>
      </trkpt>
      <trkpt lat="47.56916" lon="-2.24222">
        <ele>58.78</ele>
        <time>2014-09-21T08:09:34Z</time>
      </trkpt>
      <trkpt lat="47.56906" lon="-2.24227">
        <ele>58.78</ele>
        <time>2014-09-21T08:09:38Z</time>
      </trkpt>
      <trkpt lat="47.56898" lon="-2.24232">
        <ele>58.3</ele>
        <time>2014-09-21T08:09:41Z</time>
      </trkpt>
      <trkpt lat="47.56888" lon="-2.24237">
        <ele>57.82</ele>
        <time>2014-09-21T08:09:44Z</time>
      </trkpt>
      <trkpt lat="47.56877" lon="-2.24242">
        <ele>56.86</ele>
        <time>2014-09-21T08:09:47Z</time>
      </trkpt>
      <trkpt lat="47.56867" lon="-2.24248">
        <ele>55.89</ele>
        <time>2014-09-21T08:09:50Z</time>
      </trkpt>
      <trkpt lat="47.56858" lon="-2.24254">
        <ele>55.41</ele>
        <time>2014-09-21T08:09:53Z</time>
      </trkpt>
      <trkpt lat="47.56847" lon="-2.2426">
        <ele>54.93</ele>
        <time>2014-09-21T08:09:56Z</time>
      </trkpt>
      <trkpt lat="47.56838" lon="-2.24264">
        <ele>53.97</ele>
        <time>2014-09-21T08:09:58Z</time>
      </trkpt>
      <trkpt lat="47.56829" lon="-2.2427">
        <ele>53.49</ele>
        <time>2014-09-21T08:10:00Z</time>
      </trkpt>
      <trkpt lat="47.56818" lon="-2.24276">
        <ele>53.01</ele>
        <time>2014-09-21T08:10:02Z</time>
      </trkpt>
      <trkpt lat="47.56807" lon="-2.24282">
        <ele>52.05</ele>
        <time>2014-09-21T08:10:04Z</time>
      </trkpt>
      <trkpt lat="47.56795" lon="-2.24288">
        <ele>51.57</ele>
        <time>2014-09-21T08:10:06Z</time>
      </trkpt>
      <trkpt lat="47.56783" lon="-2.24294">
        <ele>51.57</ele>
        <time>2014-09-21T08:10:08Z</time>
      </trkpt>
      <trkpt lat="47.56771" lon="-2.24298">
        <ele>51.57</ele>
        <time>2014-09-21T08:10:10Z</time>
      </trkpt>
      <trkpt lat="47.56759" lon="-2.24301">
        <ele>51.09</ele>
        <time>2014-09-21T08:10:12Z</time>
      </trkpt>
      <trkpt lat="47.56748" lon="-2.24305">
        <ele>51.57</ele>
        <time>2014-09-21T08:10:14Z</time>
      </trkpt>
      <trkpt lat="47.56738" lon="-2.24309">
        <ele>51.57</ele>
        <time>2014-09-21T08:10:16Z</time>
      </trkpt>
      <trkpt lat="47.56729" lon="-2.24314">
        <ele>51.09</ele>
        <time>2014-09-21T08:10:18Z</time>
      </trkpt>
      <trkpt lat="47.56721" lon="-2.24321">
        <ele>51.09</ele>
        <time>2014-09-21T08:10:20Z</time>
      </trkpt>
      <trkpt lat="47.56713" lon="-2.24328">
        <ele>51.09</ele>
        <time>2014-09-21T08:10:22Z</time>
      </trkpt>
      <trkpt lat="47.56701" lon="-2.24335">
        <ele>51.09</ele>
        <time>2014-09-21T08:10:25Z</time>
      </trkpt>
      <trkpt lat="47.56692" lon="-2.24338">
        <ele>51.57</ele>
        <time>2014-09-21T08:10:28Z</time>
      </trkpt>
      <trkpt lat="47.5668" lon="-2.24339">
        <ele>51.57</ele>
        <time>2014-09-21T08:10:32Z</time>
      </trkpt>
      <trkpt lat="47.56671" lon="-2.2434">
        <ele>51.57</ele>
        <time>2014-09-21T08:10:35Z</time>
      </trkpt>
      <trkpt lat="47.56659" lon="-2.24341">
        <ele>51.09</ele>
        <time>2014-09-21T08:10:38Z</time>
      </trkpt>
      <trkpt lat="47.56647" lon="-2.24341">
        <ele>50.61</ele>
        <time>2014-09-21T08:10:41Z</time>
      </trkpt>
      <trkpt lat="47.56633" lon="-2.2434">
        <ele>50.61</ele>
        <time>2014-09-21T08:10:44Z</time>
      </trkpt>
      <trkpt lat="47.5662" lon="-2.24337">
        <ele>50.61</ele>
        <time>2014-09-21T08:10:47Z</time>
      </trkpt>
      <trkpt lat="47.56607" lon="-2.24333">
        <ele>50.61</ele>
        <time>2014-09-21T08:10:50Z</time>
      </trkpt>
      <trkpt lat="47.56595" lon="-2.2433">
        <ele>51.09</ele>
        <time>2014-09-21T08:10:53Z</time>
      </trkpt>
      <trkpt lat="47.56584" lon="-2.24328">
        <ele>51.57</ele>
        <time>2014-09-21T08:10:56Z</time>
      </trkpt>
      <trkpt lat="47.56574" lon="-2.24328">
        <ele>52.05</ele>
        <time>2014-09-21T08:10:59Z</time>
      </trkpt>
      <trkpt lat="47.56563" lon="-2.2433">
        <ele>52.53</ele>
        <time>2014-09-21T08:11:02Z</time>
      </trkpt>
      <trkpt lat="47.56552" lon="-2.24332">
        <ele>53.01</ele>
        <time>2014-09-21T08:11:05Z</time>
      </trkpt>
      <trkpt lat="47.5654" lon="-2.24334">
        <ele>54.45</ele>
        <time>2014-09-21T08:11:08Z</time>
      </trkpt>
      <trkpt lat="47.5653" lon="-2.24334">
        <ele>54.93</ele>
        <time>2014-09-21T08:11:11Z</time>
      </trkpt>
      <trkpt lat="47.5652" lon="-2.2434">
        <ele>55.41</ele>
        <time>2014-09-21T08:11:15Z</time>
      </trkpt>
      <trkpt lat="47.56517" lon="-2.24355">
        <ele>55.41</ele>
        <time>2014-09-21T08:11:18Z</time>
      </trkpt>
      <trkpt lat="47.56519" lon="-2.24371">
        <ele>54.93</ele>
        <time>2014-09-21T08:11:21Z</time>
      </trkpt>
      <trkpt lat="47.56523" lon="-2.24387">
        <ele>54.93</ele>
        <time>2014-09-21T08:11:24Z</time>
      </trkpt>
      <trkpt lat="47.56527" lon="-2.24404">
        <ele>55.89</ele>
        <time>2014-09-21T08:11:27Z</time>
      </trkpt>
      <trkpt lat="47.56531" lon="-2.2442">
        <ele>55.89</ele>
        <time>2014-09-21T08:11:30Z</time>
      </trkpt>
      <trkpt lat="47.56535" lon="-2.24437">
        <ele>55.89</ele>
        <time>2014-09-21T08:11:33Z</time>
      </trkpt>
      <trkpt lat="47.56539" lon="-2.24457">
        <ele>55.41</ele>
        <time>2014-09-21T08:11:36Z</time>
      </trkpt>
      <trkpt lat="47.56542" lon="-2.24471">
        <ele>54.93</ele>
        <time>2014-09-21T08:11:38Z</time>
      </trkpt>
      <trkpt lat="47.56542" lon="-2.24486">
        <ele>54.45</ele>
        <time>2014-09-21T08:11:40Z</time>
      </trkpt>
      <trkpt lat="47.56541" lon="-2.24499">
        <ele>53.97</ele>
        <time>2014-09-21T08:11:42Z</time>
      </trkpt>
      <trkpt lat="47.56545" lon="-2.24513">
        <ele>53.97</ele>
        <time>2014-09-21T08:11:45Z</time>
      </trkpt>
      <trkpt lat="47.56553" lon="-2.24529">
        <ele>54.45</ele>
        <time>2014-09-21T08:11:48Z</time>
      </trkpt>
      <trkpt lat="47.5656" lon="-2.2454">
        <ele>54.93</ele>
        <time>2014-09-21T08:11:50Z</time>
      </trkpt>
      <trkpt lat="47.56566" lon="-2.24551">
        <ele>55.41</ele>
        <time>2014-09-21T08:11:52Z</time>
      </trkpt>
      <trkpt lat="47.56573" lon="-2.24561">
        <ele>55.89</ele>
        <time>2014-09-21T08:11:54Z</time>
      </trkpt>
      <trkpt lat="47.56579" lon="-2.24571">
        <ele>56.37</ele>
        <time>2014-09-21T08:11:56Z</time>
      </trkpt>
      <trkpt lat="47.56586" lon="-2.24582">
        <ele>56.37</ele>
        <time>2014-09-21T08:11:58Z</time>
      </trkpt>
      <trkpt lat="47.56593" lon="-2.24594">
        <ele>56.86</ele>
        <time>2014-09-21T08:12:00Z</time>
      </trkpt>
      <trkpt lat="47.566" lon="-2.24605">
        <ele>56.86</ele>
        <time>2014-09-21T08:12:02Z</time>
      </trkpt>
      <trkpt lat="47.56607" lon="-2.24617">
        <ele>56.37</ele>
        <time>2014-09-21T08:12:04Z</time>
      </trkpt>
      <trkpt lat="47.56615" lon="-2.24629">
        <ele>56.86</ele>
        <time>2014-09-21T08:12:06Z</time>
      </trkpt>
      <trkpt lat="47.56623" lon="-2.24641">
        <ele>56.37</ele>
        <time>2014-09-21T08:12:08Z</time>
      </trkpt>
      <trkpt lat="47.56631" lon="-2.24654">
        <ele>56.37</ele>
        <time>2014-09-21T08:12:10Z</time>
      </trkpt>
      <trkpt lat="47.56638" lon="-2.24668">
        <ele>56.37</ele>
        <time>2014-09-21T08:12:12Z</time>
      </trkpt>
      <trkpt lat="47.56646" lon="-2.2468">
        <ele>55.89</ele>
        <time>2014-09-21T08:12:14Z</time>
      </trkpt>
      <trkpt lat="47.56654" lon="-2.24693">
        <ele>55.41</ele>
        <time>2014-09-21T08:12:16Z</time>
      </trkpt>
      <trkpt lat="47.56662" lon="-2.24707">
        <ele>54.93</ele>
        <time>2014-09-21T08:12:18Z</time>
      </trkpt>
      <trkpt lat="47.5667" lon="-2.24721">
        <ele>54.45</ele>
        <time>2014-09-21T08:12:20Z</time>
      </trkpt>
      <trkpt lat="47.56679" lon="-2.24735">
        <ele>53.49</ele>
        <time>2014-09-21T08:12:22Z</time>
      </trkpt>
      <trkpt lat="47.56688" lon="-2.2475">
        <ele>52.53</ele>
        <time>2014-09-21T08:12:24Z</time>
      </trkpt>
      <trkpt lat="47.56698" lon="-2.24766">
        <ele>51.57</ele>
        <time>2014-09-21T08:12:26Z</time>
      </trkpt>
      <trkpt lat="47.56705" lon="-2.2478">
        <ele>50.61</ele>
        <time>2014-09-21T08:12:28Z</time>
      </trkpt>
      <trkpt lat="47.56712" lon="-2.24796">
        <ele>50.13</ele>
        <time>2014-09-21T08:12:30Z</time>
      </trkpt>
      <trkpt lat="47.56719" lon="-2.24816">
        <ele>48.68</ele>
        <time>2014-09-21T08:12:32Z</time>
      </trkpt>
      <trkpt lat="47.56727" lon="-2.24839">
        <ele>47.24</ele>
        <time>2014-09-21T08:12:34Z</time>
      </trkpt>
      <trkpt lat="47.56732" lon="-2.24852">
        <ele>46.28</ele>
        <time>2014-09-21T08:12:35Z</time>
      </trkpt>
      <trkpt lat="47.56736" lon="-2.24866">
        <ele>45.32</ele>
        <time>2014-09-21T08:12:36Z</time>
      </trkpt>
      <trkpt lat="47.56741" lon="-2.24881">
        <ele>44.36</ele>
        <time>2014-09-21T08:12:37Z</time>
      </trkpt>
      <trkpt lat="47.56746" lon="-2.24896">
        <ele>42.92</ele>
        <time>2014-09-21T08:12:38Z</time>
      </trkpt>
      <trkpt lat="47.56751" lon="-2.24912">
        <ele>41.95</ele>
        <time>2014-09-21T08:12:39Z</time>
      </trkpt>
      <trkpt lat="47.56756" lon="-2.24927">
        <ele>40.99</ele>
        <time>2014-09-21T08:12:40Z</time>
      </trkpt>
      <trkpt lat="47.56761" lon="-2.24942">
        <ele>40.03</ele>
        <time>2014-09-21T08:12:41Z</time>
      </trkpt>
      <trkpt lat="47.56766" lon="-2.24958">
        <ele>39.07</ele>
        <time>2014-09-21T08:12:42Z</time>
      </trkpt>
      <trkpt lat="47.56771" lon="-2.24973">
        <ele>38.11</ele>
        <time>2014-09-21T08:12:43Z</time>
      </trkpt>
      <trkpt lat="47.56776" lon="-2.24987">
        <ele>37.63</ele>
        <time>2014-09-21T08:12:44Z</time>
      </trkpt>
      <trkpt lat="47.56782" lon="-2.25002">
        <ele>36.67</ele>
        <time>2014-09-21T08:12:45Z</time>
      </trkpt>
      <trkpt lat="47.56787" lon="-2.25017">
        <ele>35.71</ele>
        <time>2014-09-21T08:12:46Z</time>
      </trkpt>
      <trkpt lat="47.56791" lon="-2.2503">
        <ele>34.26</ele>
        <time>2014-09-21T08:12:47Z</time>
      </trkpt>
      <trkpt lat="47.56793" lon="-2.25048">
        <ele>32.82</ele>
        <time>2014-09-21T08:12:49Z</time>
      </trkpt>
      <trkpt lat="47.56786" lon="-2.25058">
        <ele>31.86</ele>
        <time>2014-09-21T08:12:51Z</time>
      </trkpt>
      <trkpt lat="47.56777" lon="-2.25062">
        <ele>31.38</ele>
        <time>2014-09-21T08:12:53Z</time>
      </trkpt>
      <trkpt lat="47.56767" lon="-2.25063">
        <ele>31.86</ele>
        <time>2014-09-21T08:12:57Z</time>
      </trkpt>
      <trkpt lat="47.56755" lon="-2.25066">
        <ele>32.34</ele>
        <time>2014-09-21T08:13:02Z</time>
      </trkpt>
      <trkpt lat="47.56745" lon="-2.25068">
        <ele>33.3</ele>
        <time>2014-09-21T08:13:05Z</time>
      </trkpt>
      <trkpt lat="47.56733" lon="-2.2507">
        <ele>34.74</ele>
        <time>2014-09-21T08:13:08Z</time>
      </trkpt>
      <trkpt lat="47.56722" lon="-2.25072">
        <ele>36.19</ele>
        <time>2014-09-21T08:13:11Z</time>
      </trkpt>
      <trkpt lat="47.56711" lon="-2.25074">
        <ele>37.15</ele>
        <time>2014-09-21T08:13:14Z</time>
      </trkpt>
      <trkpt lat="47.56701" lon="-2.25076">
        <ele>38.59</ele>
        <time>2014-09-21T08:13:17Z</time>
      </trkpt>
      <trkpt lat="47.56691" lon="-2.25085">
        <ele>38.59</ele>
        <time>2014-09-21T08:13:21Z</time>
      </trkpt>
      <trkpt lat="47.56687" lon="-2.25101">
        <ele>40.03</ele>
        <time>2014-09-21T08:13:26Z</time>
      </trkpt>
      <trkpt lat="47.56694" lon="-2.25114">
        <ele>40.03</ele>
        <time>2014-09-21T08:13:30Z</time>
      </trkpt>
      <trkpt lat="47.56704" lon="-2.25121">
        <ele>40.03</ele>
        <time>2014-09-21T08:13:34Z</time>
      </trkpt>
      <trkpt lat="47.56709" lon="-2.25135">
        <ele>40.03</ele>
        <time>2014-09-21T08:13:37Z</time>
      </trkpt>
      <trkpt lat="47.56706" lon="-2.2515">
        <ele>39.07</ele>
        <time>2014-09-21T08:13:41Z</time>
      </trkpt>
      <trkpt lat="47.56694" lon="-2.25151">
        <ele>38.11</ele>
        <time>2014-09-21T08:13:50Z</time>
      </trkpt>
      <trkpt lat="47.56684" lon="-2.25147">
        <ele>38.59</ele>
        <time>2014-09-21T08:13:55Z</time>
      </trkpt>
      <trkpt lat="47.56672" lon="-2.2514">
        <ele>40.03</ele>
        <time>2014-09-21T08:14:00Z</time>
      </trkpt>
      <trkpt lat="47.56659" lon="-2.25138">
        <ele>43.4</ele>
        <time>2014-09-21T08:14:11Z</time>
      </trkpt>
      <trkpt lat="47.56647" lon="-2.25142">
        <ele>45.8</ele>
        <time>2014-09-21T08:14:18Z</time>
      </trkpt>
      <trkpt lat="47.56644" lon="-2.25158">
        <ele>48.2</ele>
        <time>2014-09-21T08:14:23Z</time>
      </trkpt>
      <trkpt lat="47.56649" lon="-2.25176">
        <ele>48.2</ele>
        <time>2014-09-21T08:14:26Z</time>
      </trkpt>
      <trkpt lat="47.56644" lon="-2.25188">
        <ele>48.68</ele>
        <time>2014-09-21T08:14:32Z</time>
      </trkpt>
      <trkpt lat="47.56632" lon="-2.25194">
        <ele>51.09</ele>
        <time>2014-09-21T08:14:37Z</time>
      </trkpt>
      <trkpt lat="47.56619" lon="-2.25203">
        <ele>53.01</ele>
        <time>2014-09-21T08:14:43Z</time>
      </trkpt>
      <trkpt lat="47.56598" lon="-2.25211">
        <ele>55.89</ele>
        <time>2014-09-21T08:14:50Z</time>
      </trkpt>
      <trkpt lat="47.56586" lon="-2.25216">
        <ele>59.26</ele>
        <time>2014-09-21T08:14:56Z</time>
      </trkpt>
      <trkpt lat="47.56572" lon="-2.2522">
        <ele>59.26</ele>
        <time>2014-09-21T08:15:02Z</time>
      </trkpt>
      <trkpt lat="47.56559" lon="-2.2522">
        <ele>59.26</ele>
        <time>2014-09-21T08:15:08Z</time>
      </trkpt>
      <trkpt lat="47.56547" lon="-2.25216">
        <ele>59.74</ele>
        <time>2014-09-21T08:15:14Z</time>
      </trkpt>
      <trkpt lat="47.5653" lon="-2.25211">
        <ele>60.22</ele>
        <time>2014-09-21T08:15:23Z</time>
      </trkpt>
      <trkpt lat="47.56506" lon="-2.25207">
        <ele>58.78</ele>
        <time>2014-09-21T08:15:34Z</time>
      </trkpt>
      <trkpt lat="47.56477" lon="-2.25206">
        <ele>57.82</ele>
        <time>2014-09-21T08:15:41Z</time>
      </trkpt>
      <trkpt lat="47.56458" lon="-2.25202">
        <ele>57.34</ele>
        <time>2014-09-21T08:15:50Z</time>
      </trkpt>
      <trkpt lat="47.56441" lon="-2.25193">
        <ele>59.26</ele>
        <time>2014-09-21T08:15:58Z</time>
      </trkpt>
      <trkpt lat="47.5643" lon="-2.2518">
        <ele>62.62</ele>
        <time>2014-09-21T08:16:05Z</time>
      </trkpt>
      <trkpt lat="47.56413" lon="-2.25161">
        <ele>67.43</ele>
        <time>2014-09-21T08:16:19Z</time>
      </trkpt>
      <trkpt lat="47.56393" lon="-2.25159">
        <ele>71.27</ele>
        <time>2014-09-21T08:16:30Z</time>
      </trkpt>
      <trkpt lat="47.56378" lon="-2.2516">
        <ele>75.12</ele>
        <time>2014-09-21T08:16:38Z</time>
      </trkpt>
      <trkpt lat="47.56367" lon="-2.25165">
        <ele>77.52</ele>
        <time>2014-09-21T08:16:42Z</time>
      </trkpt>
      <trkpt lat="47.56357" lon="-2.25155">
        <ele>78.48</ele>
        <time>2014-09-21T08:16:46Z</time>
      </trkpt>
      <trkpt lat="47.56352" lon="-2.25143">
        <ele>77.52</ele>
        <time>2014-09-21T08:16:51Z</time>
      </trkpt>
      <trkpt lat="47.56336" lon="-2.25142">
        <ele>74.16</ele>
        <time>2014-09-21T08:16:59Z</time>
      </trkpt>
      <trkpt lat="47.56319" lon="-2.25137">
        <ele>72.72</ele>
        <time>2014-09-21T08:17:04Z</time>
      </trkpt>
      <trkpt lat="47.56303" lon="-2.25133">
        <ele>71.27</ele>
        <time>2014-09-21T08:17:08Z</time>
      </trkpt>
      <trkpt lat="47.56292" lon="-2.25136">
        <ele>69.83</ele>
        <time>2014-09-21T08:17:11Z</time>
      </trkpt>
      <trkpt lat="47.56291" lon="-2.25151">
        <ele>67.43</ele>
        <time>2014-09-21T08:17:15Z</time>
      </trkpt>
      <trkpt lat="47.56298" lon="-2.25161">
        <ele>65.51</ele>
        <time>2014-09-21T08:17:18Z</time>
      </trkpt>
      <trkpt lat="47.56306" lon="-2.25167">
        <ele>64.55</ele>
        <time>2014-09-21T08:17:21Z</time>
      </trkpt>
      <trkpt lat="47.56316" lon="-2.25176">
        <ele>63.58</ele>
        <time>2014-09-21T08:17:24Z</time>
      </trkpt>
      <trkpt lat="47.56324" lon="-2.25188">
        <ele>63.1</ele>
        <time>2014-09-21T08:17:27Z</time>
      </trkpt>
      <trkpt lat="47.56336" lon="-2.25202">
        <ele>62.62</ele>
        <time>2014-09-21T08:17:30Z</time>
      </trkpt>
      <trkpt lat="47.56345" lon="-2.25211">
        <ele>62.62</ele>
        <time>2014-09-21T08:17:32Z</time>
      </trkpt>
      <trkpt lat="47.56353" lon="-2.2522">
        <ele>62.14</ele>
        <time>2014-09-21T08:17:34Z</time>
      </trkpt>
      <trkpt lat="47.56363" lon="-2.25223">
        <ele>61.66</ele>
        <time>2014-09-21T08:17:37Z</time>
      </trkpt>
      <trkpt lat="47.5637" lon="-2.25229">
        <ele>61.66</ele>
        <time>2014-09-21T08:17:43Z</time>
      </trkpt>
      <trkpt lat="47.56381" lon="-2.25242">
        <ele>61.18</ele>
        <time>2014-09-21T08:17:54Z</time>
      </trkpt>
      <trkpt lat="47.56406" lon="-2.25243">
        <ele>58.78</ele>
        <time>2014-09-21T08:20:23Z</time>
      </trkpt>
      <trkpt lat="47.56416" lon="-2.25255">
        <ele>56.37</ele>
        <time>2014-09-21T08:20:28Z</time>
      </trkpt>
      <trkpt lat="47.56429" lon="-2.25267">
        <ele>53.97</ele>
        <time>2014-09-21T08:20:34Z</time>
      </trkpt>
      <trkpt lat="47.56442" lon="-2.25262">
        <ele>51.57</ele>
        <time>2014-09-21T08:20:38Z</time>
      </trkpt>
      <trkpt lat="47.56457" lon="-2.25267">
        <ele>49.65</ele>
        <time>2014-09-21T08:20:41Z</time>
      </trkpt>
      <trkpt lat="47.5647" lon="-2.25273">
        <ele>48.2</ele>
        <time>2014-09-21T08:20:44Z</time>
      </trkpt>
      <trkpt lat="47.56485" lon="-2.25278">
        <ele>46.76</ele>
        <time>2014-09-21T08:20:47Z</time>
      </trkpt>
      <trkpt lat="47.56504" lon="-2.25282">
        <ele>49.16</ele>
        <time>2014-09-21T08:20:50Z</time>
      </trkpt>
      <trkpt lat="47.56521" lon="-2.25284">
        <ele>48.2</ele>
        <time>2014-09-21T08:20:53Z</time>
      </trkpt>
      <trkpt lat="47.56536" lon="-2.2528">
        <ele>46.28</ele>
        <time>2014-09-21T08:20:56Z</time>
      </trkpt>
      <trkpt lat="47.56552" lon="-2.25284">
        <ele>45.32</ele>
        <time>2014-09-21T08:20:59Z</time>
      </trkpt>
      <trkpt lat="47.56565" lon="-2.25285">
        <ele>45.32</ele>
        <time>2014-09-21T08:21:02Z</time>
      </trkpt>
      <trkpt lat="47.56577" lon="-2.25288">
        <ele>46.28</ele>
        <time>2014-09-21T08:21:05Z</time>
      </trkpt>
      <trkpt lat="47.56586" lon="-2.25294">
        <ele>48.2</ele>
        <time>2014-09-21T08:21:08Z</time>
      </trkpt>
      <trkpt lat="47.56599" lon="-2.25307">
        <ele>49.16</ele>
        <time>2014-09-21T08:21:12Z</time>
      </trkpt>
      <trkpt lat="47.56612" lon="-2.2532">
        <ele>49.65</ele>
        <time>2014-09-21T08:21:16Z</time>
      </trkpt>
      <trkpt lat="47.5662" lon="-2.25335">
        <ele>49.65</ele>
        <time>2014-09-21T08:21:20Z</time>
      </trkpt>
      <trkpt lat="47.56632" lon="-2.25327">
        <ele>48.2</ele>
        <time>2014-09-21T08:21:24Z</time>
      </trkpt>
      <trkpt lat="47.56643" lon="-2.25322">
        <ele>47.24</ele>
        <time>2014-09-21T08:21:27Z</time>
      </trkpt>
      <trkpt lat="47.56657" lon="-2.25312">
        <ele>46.76</ele>
        <time>2014-09-21T08:21:30Z</time>
      </trkpt>
      <trkpt lat="47.56667" lon="-2.25311">
        <ele>46.28</ele>
        <time>2014-09-21T08:21:32Z</time>
      </trkpt>
      <trkpt lat="47.56676" lon="-2.25322">
        <ele>46.28</ele>
        <time>2014-09-21T08:21:34Z</time>
      </trkpt>
      <trkpt lat="47.56684" lon="-2.25332">
        <ele>46.28</ele>
        <time>2014-09-21T08:21:36Z</time>
      </trkpt>
      <trkpt lat="47.56694" lon="-2.25343">
        <ele>46.28</ele>
        <time>2014-09-21T08:21:38Z</time>
      </trkpt>
      <trkpt lat="47.56704" lon="-2.25355">
        <ele>45.8</ele>
        <time>2014-09-21T08:21:40Z</time>
      </trkpt>
      <trkpt lat="47.56715" lon="-2.25364">
        <ele>45.8</ele>
        <time>2014-09-21T08:21:42Z</time>
      </trkpt>
      <trkpt lat="47.56725" lon="-2.25373">
        <ele>45.8</ele>
        <time>2014-09-21T08:21:44Z</time>
      </trkpt>
      <trkpt lat="47.56733" lon="-2.25381">
        <ele>45.8</ele>
        <time>2014-09-21T08:21:46Z</time>
      </trkpt>
      <trkpt lat="47.56649" lon="-2.25419">
        <ele>49.65</ele>
        <time>2014-09-21T08:21:49Z</time>
      </trkpt>
      <trkpt lat="47.56648" lon="-2.25436">
        <ele>45.8</ele>
        <time>2014-09-21T08:21:52Z</time>
      </trkpt>
      <trkpt lat="47.56644" lon="-2.2545">
        <ele>40.99</ele>
        <time>2014-09-21T08:21:55Z</time>
      </trkpt>
      <trkpt lat="47.56641" lon="-2.25466">
        <ele>40.03</ele>
        <time>2014-09-21T08:21:59Z</time>
      </trkpt>
      <trkpt lat="47.5664" lon="-2.25484">
        <ele>40.03</ele>
        <time>2014-09-21T08:22:04Z</time>
      </trkpt>
      <trkpt lat="47.56629" lon="-2.25492">
        <ele>40.51</ele>
        <time>2014-09-21T08:22:09Z</time>
      </trkpt>
      <trkpt lat="47.56618" lon="-2.25499">
        <ele>40.99</ele>
        <time>2014-09-21T08:22:13Z</time>
      </trkpt>
      <trkpt lat="47.56606" lon="-2.25503">
        <ele>40.99</ele>
        <time>2014-09-21T08:22:17Z</time>
      </trkpt>
      <trkpt lat="47.56594" lon="-2.25509">
        <ele>40.99</ele>
        <time>2014-09-21T08:22:21Z</time>
      </trkpt>
      <trkpt lat="47.56585" lon="-2.25517">
        <ele>40.51</ele>
        <time>2014-09-21T08:22:25Z</time>
      </trkpt>
      <trkpt lat="47.56572" lon="-2.25523">
        <ele>39.55</ele>
        <time>2014-09-21T08:22:30Z</time>
      </trkpt>
      <trkpt lat="47.56559" lon="-2.25537">
        <ele>40.03</ele>
        <time>2014-09-21T08:22:37Z</time>
      </trkpt>
      <trkpt lat="47.5654" lon="-2.25552">
        <ele>41.95</ele>
        <time>2014-09-21T08:22:46Z</time>
      </trkpt>
      <trkpt lat="47.56521" lon="-2.25578">
        <ele>44.36</ele>
        <time>2014-09-21T08:22:51Z</time>
      </trkpt>
      <trkpt lat="47.56508" lon="-2.25595">
        <ele>45.32</ele>
        <time>2014-09-21T08:22:58Z</time>
      </trkpt>
      <trkpt lat="47.56492" lon="-2.25608">
        <ele>45.8</ele>
        <time>2014-09-21T08:23:05Z</time>
      </trkpt>
      <trkpt lat="47.56481" lon="-2.25624">
        <ele>45.8</ele>
        <time>2014-09-21T08:23:11Z</time>
      </trkpt>
      <trkpt lat="47.56472" lon="-2.2564">
        <ele>46.28</ele>
        <time>2014-09-21T08:23:16Z</time>
      </trkpt>
      <trkpt lat="47.56466" lon="-2.25655">
        <ele>45.8</ele>
        <time>2014-09-21T08:23:20Z</time>
      </trkpt>
      <trkpt lat="47.56461" lon="-2.25673">
        <ele>45.8</ele>
        <time>2014-09-21T08:23:24Z</time>
      </trkpt>
      <trkpt lat="47.56456" lon="-2.25691">
        <ele>45.8</ele>
        <time>2014-09-21T08:23:27Z</time>
      </trkpt>
      <trkpt lat="47.56452" lon="-2.2571">
        <ele>46.28</ele>
        <time>2014-09-21T08:23:30Z</time>
      </trkpt>
      <trkpt lat="47.56452" lon="-2.25729">
        <ele>45.32</ele>
        <time>2014-09-21T08:23:33Z</time>
      </trkpt>
      <trkpt lat="47.56452" lon="-2.25746">
        <ele>45.32</ele>
        <time>2014-09-21T08:23:36Z</time>
      </trkpt>
      <trkpt lat="47.56452" lon="-2.25765">
        <ele>44.36</ele>
        <time>2014-09-21T08:23:39Z</time>
      </trkpt>
      <trkpt lat="47.5645" lon="-2.25782">
        <ele>45.32</ele>
        <time>2014-09-21T08:23:42Z</time>
      </trkpt>
      <trkpt lat="47.56449" lon="-2.25798">
        <ele>45.8</ele>
        <time>2014-09-21T08:23:45Z</time>
      </trkpt>
      <trkpt lat="47.56445" lon="-2.2581">
        <ele>48.68</ele>
        <time>2014-09-21T08:23:51Z</time>
      </trkpt>
      <trkpt lat="47.56433" lon="-2.25806">
        <ele>50.13</ele>
        <time>2014-09-21T08:23:56Z</time>
      </trkpt>
      <trkpt lat="47.56419" lon="-2.25805">
        <ele>49.65</ele>
        <time>2014-09-21T08:24:00Z</time>
      </trkpt>
      <trkpt lat="47.56407" lon="-2.25805">
        <ele>49.65</ele>
        <time>2014-09-21T08:24:03Z</time>
      </trkpt>
      <trkpt lat="47.56395" lon="-2.25807">
        <ele>49.65</ele>
        <time>2014-09-21T08:24:06Z</time>
      </trkpt>
      <trkpt lat="47.56384" lon="-2.25808">
        <ele>50.13</ele>
        <time>2014-09-21T08:24:09Z</time>
      </trkpt>
      <trkpt lat="47.56374" lon="-2.25809">
        <ele>50.61</ele>
        <time>2014-09-21T08:24:12Z</time>
      </trkpt>
      <trkpt lat="47.56364" lon="-2.2581">
        <ele>51.09</ele>
        <time>2014-09-21T08:24:15Z</time>
      </trkpt>
      <trkpt lat="47.56354" lon="-2.25812">
        <ele>52.05</ele>
        <time>2014-09-21T08:24:18Z</time>
      </trkpt>
      <trkpt lat="47.56344" lon="-2.25813">
        <ele>53.01</ele>
        <time>2014-09-21T08:24:21Z</time>
      </trkpt>
      <trkpt lat="47.56331" lon="-2.25815">
        <ele>53.49</ele>
        <time>2014-09-21T08:24:25Z</time>
      </trkpt>
      <trkpt lat="47.56322" lon="-2.25817">
        <ele>54.45</ele>
        <time>2014-09-21T08:24:28Z</time>
      </trkpt>
      <trkpt lat="47.56312" lon="-2.25818">
        <ele>54.93</ele>
        <time>2014-09-21T08:24:31Z</time>
      </trkpt>
      <trkpt lat="47.56299" lon="-2.25819">
        <ele>55.89</ele>
        <time>2014-09-21T08:24:35Z</time>
      </trkpt>
      <trkpt lat="47.5629" lon="-2.25821">
        <ele>55.89</ele>
        <time>2014-09-21T08:24:38Z</time>
      </trkpt>
      <trkpt lat="47.56278" lon="-2.25821">
        <ele>55.89</ele>
        <time>2014-09-21T08:24:42Z</time>
      </trkpt>
      <trkpt lat="47.56268" lon="-2.25823">
        <ele>55.89</ele>
        <time>2014-09-21T08:24:45Z</time>
      </trkpt>
      <trkpt lat="47.56257" lon="-2.25824">
        <ele>55.89</ele>
        <time>2014-09-21T08:24:48Z</time>
      </trkpt>
      <trkpt lat="47.56247" lon="-2.25827">
        <ele>55.41</ele>
        <time>2014-09-21T08:24:51Z</time>
      </trkpt>
      <trkpt lat="47.56237" lon="-2.25829">
        <ele>55.41</ele>
        <time>2014-09-21T08:24:54Z</time>
      </trkpt>
      <trkpt lat="47.56226" lon="-2.25831">
        <ele>55.41</ele>
        <time>2014-09-21T08:24:58Z</time>
      </trkpt>
      <trkpt lat="47.56217" lon="-2.25834">
        <ele>55.89</ele>
        <time>2014-09-21T08:25:01Z</time>
      </trkpt>
      <trkpt lat="47.56207" lon="-2.25839">
        <ele>55.89</ele>
        <time>2014-09-21T08:25:04Z</time>
      </trkpt>
      <trkpt lat="47.56197" lon="-2.25845">
        <ele>56.37</ele>
        <time>2014-09-21T08:25:08Z</time>
      </trkpt>
      <trkpt lat="47.56187" lon="-2.25849">
        <ele>57.34</ele>
        <time>2014-09-21T08:25:11Z</time>
      </trkpt>
      <trkpt lat="47.56177" lon="-2.25854">
        <ele>57.82</ele>
        <time>2014-09-21T08:25:14Z</time>
      </trkpt>
      <trkpt lat="47.56165" lon="-2.25859">
        <ele>58.3</ele>
        <time>2014-09-21T08:25:18Z</time>
      </trkpt>
      <trkpt lat="47.56153" lon="-2.25863">
        <ele>59.26</ele>
        <time>2014-09-21T08:25:22Z</time>
      </trkpt>
      <trkpt lat="47.56141" lon="-2.25864">
        <ele>60.7</ele>
        <time>2014-09-21T08:25:26Z</time>
      </trkpt>
      <trkpt lat="47.56129" lon="-2.25865">
        <ele>61.18</ele>
        <time>2014-09-21T08:25:30Z</time>
      </trkpt>
      <trkpt lat="47.56118" lon="-2.25865">
        <ele>62.14</ele>
        <time>2014-09-21T08:25:34Z</time>
      </trkpt>
      <trkpt lat="47.56108" lon="-2.25868">
        <ele>62.62</ele>
        <time>2014-09-21T08:25:38Z</time>
      </trkpt>
      <trkpt lat="47.56106" lon="-2.25881">
        <ele>63.1</ele>
        <time>2014-09-21T08:25:42Z</time>
      </trkpt>
      <trkpt lat="47.56108" lon="-2.25896">
        <ele>63.58</ele>
        <time>2014-09-21T08:25:45Z</time>
      </trkpt>
      <trkpt lat="47.56109" lon="-2.25912">
        <ele>64.07</ele>
        <time>2014-09-21T08:25:48Z</time>
      </trkpt>
      <trkpt lat="47.56112" lon="-2.2593">
        <ele>64.07</ele>
        <time>2014-09-21T08:26:00Z</time>
      </trkpt>
      <trkpt lat="47.56112" lon="-2.25948">
        <ele>64.55</ele>
        <time>2014-09-21T08:26:05Z</time>
      </trkpt>
      <trkpt lat="47.56115" lon="-2.25961">
        <ele>65.03</ele>
        <time>2014-09-21T08:26:09Z</time>
      </trkpt>
      <trkpt lat="47.56109" lon="-2.25973">
        <ele>65.99</ele>
        <time>2014-09-21T08:26:14Z</time>
      </trkpt>
      <trkpt lat="47.56099" lon="-2.25976">
        <ele>66.47</ele>
        <time>2014-09-21T08:26:17Z</time>
      </trkpt>
      <trkpt lat="47.56087" lon="-2.2598">
        <ele>66.95</ele>
        <time>2014-09-21T08:26:20Z</time>
      </trkpt>
      <trkpt lat="47.56075" lon="-2.25983">
        <ele>67.91</ele>
        <time>2014-09-21T08:26:23Z</time>
      </trkpt>
      <trkpt lat="47.56064" lon="-2.25986">
        <ele>68.39</ele>
        <time>2014-09-21T08:26:26Z</time>
      </trkpt>
      <trkpt lat="47.56053" lon="-2.25989">
        <ele>68.87</ele>
        <time>2014-09-21T08:26:29Z</time>
      </trkpt>
      <trkpt lat="47.56044" lon="-2.25996">
        <ele>69.35</ele>
        <time>2014-09-21T08:26:32Z</time>
      </trkpt>
      <trkpt lat="47.56032" lon="-2.26004">
        <ele>69.83</ele>
        <time>2014-09-21T08:26:36Z</time>
      </trkpt>
      <trkpt lat="47.56022" lon="-2.26009">
        <ele>69.83</ele>
        <time>2014-09-21T08:26:39Z</time>
      </trkpt>
      <trkpt lat="47.56012" lon="-2.26016">
        <ele>70.31</ele>
        <time>2014-09-21T08:26:42Z</time>
      </trkpt>
      <trkpt lat="47.56001" lon="-2.26026">
        <ele>71.27</ele>
        <time>2014-09-21T08:26:46Z</time>
      </trkpt>
      <trkpt lat="47.56001" lon="-2.26042">
        <ele>72.24</ele>
        <time>2014-09-21T08:26:50Z</time>
      </trkpt>
      <trkpt lat="47.56005" lon="-2.26057">
        <ele>72.24</ele>
        <time>2014-09-21T08:26:53Z</time>
      </trkpt>
      <trkpt lat="47.56007" lon="-2.26076">
        <ele>72.24</ele>
        <time>2014-09-21T08:26:56Z</time>
      </trkpt>
      <trkpt lat="47.5601" lon="-2.26093">
        <ele>72.72</ele>
        <time>2014-09-21T08:26:59Z</time>
      </trkpt>
      <trkpt lat="47.56012" lon="-2.26112">
        <ele>72.72</ele>
        <time>2014-09-21T08:27:02Z</time>
      </trkpt>
      <trkpt lat="47.56016" lon="-2.26128">
        <ele>72.24</ele>
        <time>2014-09-21T08:27:05Z</time>
      </trkpt>
      <trkpt lat="47.56019" lon="-2.26144">
        <ele>72.24</ele>
        <time>2014-09-21T08:27:08Z</time>
      </trkpt>
      <trkpt lat="47.56022" lon="-2.26161">
        <ele>71.76</ele>
        <time>2014-09-21T08:27:11Z</time>
      </trkpt>
      <trkpt lat="47.56015" lon="-2.2617">
        <ele>71.76</ele>
        <time>2014-09-21T08:27:14Z</time>
      </trkpt>
      <trkpt lat="47.56005" lon="-2.26184">
        <ele>71.76</ele>
        <time>2014-09-21T08:27:17Z</time>
      </trkpt>
      <trkpt lat="47.55995" lon="-2.26197">
        <ele>71.76</ele>
        <time>2014-09-21T08:27:20Z</time>
      </trkpt>
      <trkpt lat="47.55989" lon="-2.26208">
        <ele>72.24</ele>
        <time>2014-09-21T08:27:22Z</time>
      </trkpt>
      <trkpt lat="47.55985" lon="-2.26222">
        <ele>71.76</ele>
        <time>2014-09-21T08:27:24Z</time>
      </trkpt>
      <trkpt lat="47.55983" lon="-2.26235">
        <ele>71.76</ele>
        <time>2014-09-21T08:27:26Z</time>
      </trkpt>
      <trkpt lat="47.5598" lon="-2.26254">
        <ele>71.27</ele>
        <time>2014-09-21T08:27:29Z</time>
      </trkpt>
      <trkpt lat="47.55975" lon="-2.26271">
        <ele>71.27</ele>
        <time>2014-09-21T08:27:32Z</time>
      </trkpt>
      <trkpt lat="47.5597" lon="-2.26282">
        <ele>71.76</ele>
        <time>2014-09-21T08:27:34Z</time>
      </trkpt>
      <trkpt lat="47.55964" lon="-2.26293">
        <ele>71.76</ele>
        <time>2014-09-21T08:27:36Z</time>
      </trkpt>
      <trkpt lat="47.55958" lon="-2.26304">
        <ele>71.76</ele>
        <time>2014-09-21T08:27:38Z</time>
      </trkpt>
      <trkpt lat="47.55952" lon="-2.26315">
        <ele>72.24</ele>
        <time>2014-09-21T08:27:40Z</time>
      </trkpt>
      <trkpt lat="47.55944" lon="-2.26326">
        <ele>73.2</ele>
        <time>2014-09-21T08:27:42Z</time>
      </trkpt>
      <trkpt lat="47.55937" lon="-2.26338">
        <ele>74.16</ele>
        <time>2014-09-21T08:27:44Z</time>
      </trkpt>
      <trkpt lat="47.55935" lon="-2.26354">
        <ele>75.12</ele>
        <time>2014-09-21T08:27:47Z</time>
      </trkpt>
      <trkpt lat="47.55942" lon="-2.26367">
        <ele>74.64</ele>
        <time>2014-09-21T08:27:50Z</time>
      </trkpt>
      <trkpt lat="47.55949" lon="-2.26382">
        <ele>73.68</ele>
        <time>2014-09-21T08:27:53Z</time>
      </trkpt>
      <trkpt lat="47.55954" lon="-2.26395">
        <ele>73.68</ele>
        <time>2014-09-21T08:27:55Z</time>
      </trkpt>
      <trkpt lat="47.5596" lon="-2.26407">
        <ele>73.68</ele>
        <time>2014-09-21T08:27:57Z</time>
      </trkpt>
      <trkpt lat="47.55967" lon="-2.2642">
        <ele>73.2</ele>
        <time>2014-09-21T08:27:59Z</time>
      </trkpt>
      <trkpt lat="47.55972" lon="-2.26434">
        <ele>73.2</ele>
        <time>2014-09-21T08:28:01Z</time>
      </trkpt>
      <trkpt lat="47.55978" lon="-2.26446">
        <ele>72.72</ele>
        <time>2014-09-21T08:28:03Z</time>
      </trkpt>
      <trkpt lat="47.55983" lon="-2.26459">
        <ele>72.24</ele>
        <time>2014-09-21T08:28:05Z</time>
      </trkpt>
      <trkpt lat="47.55989" lon="-2.2647">
        <ele>72.24</ele>
        <time>2014-09-21T08:28:08Z</time>
      </trkpt>
      <trkpt lat="47.55983" lon="-2.26483">
        <ele>73.2</ele>
        <time>2014-09-21T08:28:12Z</time>
      </trkpt>
      <trkpt lat="47.55978" lon="-2.26499">
        <ele>73.68</ele>
        <time>2014-09-21T08:28:15Z</time>
      </trkpt>
      <trkpt lat="47.55978" lon="-2.26517">
        <ele>73.68</ele>
        <time>2014-09-21T08:28:19Z</time>
      </trkpt>
      <trkpt lat="47.55983" lon="-2.26531">
        <ele>73.68</ele>
        <time>2014-09-21T08:28:23Z</time>
      </trkpt>
      <trkpt lat="47.55992" lon="-2.26543">
        <ele>73.68</ele>
        <time>2014-09-21T08:28:27Z</time>
      </trkpt>
      <trkpt lat="47.55998" lon="-2.26556">
        <ele>73.2</ele>
        <time>2014-09-21T08:28:30Z</time>
      </trkpt>
      <trkpt lat="47.56002" lon="-2.2657">
        <ele>72.24</ele>
        <time>2014-09-21T08:28:35Z</time>
      </trkpt>
      <trkpt lat="47.56007" lon="-2.26584">
        <ele>71.27</ele>
        <time>2014-09-21T08:28:39Z</time>
      </trkpt>
      <trkpt lat="47.56008" lon="-2.26602">
        <ele>70.31</ele>
        <time>2014-09-21T08:28:43Z</time>
      </trkpt>
      <trkpt lat="47.55999" lon="-2.26613">
        <ele>70.31</ele>
        <time>2014-09-21T08:28:47Z</time>
      </trkpt>
      <trkpt lat="47.5599" lon="-2.26624">
        <ele>69.35</ele>
        <time>2014-09-21T08:28:52Z</time>
      </trkpt>
      <trkpt lat="47.55978" lon="-2.26632">
        <ele>68.39</ele>
        <time>2014-09-21T08:28:55Z</time>
      </trkpt>
      <trkpt lat="47.55969" lon="-2.2664">
        <ele>68.39</ele>
        <time>2014-09-21T08:28:58Z</time>
      </trkpt>
      <trkpt lat="47.55957" lon="-2.26641">
        <ele>68.87</ele>
        <time>2014-09-21T08:29:02Z</time>
      </trkpt>
      <trkpt lat="47.55941" lon="-2.26645">
        <ele>68.87</ele>
        <time>2014-09-21T08:29:06Z</time>
      </trkpt>
      <trkpt lat="47.55932" lon="-2.26654">
        <ele>67.91</ele>
        <time>2014-09-21T08:29:09Z</time>
      </trkpt>
      <trkpt lat="47.55922" lon="-2.26661">
        <ele>66.47</ele>
        <time>2014-09-21T08:29:11Z</time>
      </trkpt>
      <trkpt lat="47.55913" lon="-2.2667">
        <ele>65.51</ele>
        <time>2014-09-21T08:29:13Z</time>
      </trkpt>
      <trkpt lat="47.55905" lon="-2.2668">
        <ele>65.03</ele>
        <time>2014-09-21T08:29:16Z</time>
      </trkpt>
      <trkpt lat="47.55896" lon="-2.26676">
        <ele>65.51</ele>
        <time>2014-09-21T08:29:28Z</time>
      </trkpt>
      <trkpt lat="47.55892" lon="-2.26664">
        <ele>65.03</ele>
        <time>2014-09-21T08:29:34Z</time>
      </trkpt>
      <trkpt lat="47.55892" lon="-2.26656">
        <ele>63.1</ele>
        <time>2014-09-21T08:35:09Z</time>
      </trkpt>
      <trkpt lat="47.55887" lon="-2.26645">
        <ele>62.62</ele>
        <time>2014-09-21T08:35:15Z</time>
      </trkpt>
      <trkpt lat="47.55882" lon="-2.26632">
        <ele>62.14</ele>
        <time>2014-09-21T08:35:19Z</time>
      </trkpt>
      <trkpt lat="47.55876" lon="-2.26617">
        <ele>62.14</ele>
        <time>2014-09-21T08:35:22Z</time>
      </trkpt>
      <trkpt lat="47.55871" lon="-2.266">
        <ele>61.66</ele>
        <time>2014-09-21T08:35:25Z</time>
      </trkpt>
      <trkpt lat="47.55864" lon="-2.26583">
        <ele>61.18</ele>
        <time>2014-09-21T08:35:28Z</time>
      </trkpt>
      <trkpt lat="47.55853" lon="-2.26584">
        <ele>60.7</ele>
        <time>2014-09-21T08:35:31Z</time>
      </trkpt>
      <trkpt lat="47.55844" lon="-2.26594">
        <ele>59.74</ele>
        <time>2014-09-21T08:35:34Z</time>
      </trkpt>
      <trkpt lat="47.55835" lon="-2.26603">
        <ele>59.26</ele>
        <time>2014-09-21T08:35:36Z</time>
      </trkpt>
      <trkpt lat="47.55827" lon="-2.26613">
        <ele>58.78</ele>
        <time>2014-09-21T08:35:38Z</time>
      </trkpt>
      <trkpt lat="47.55818" lon="-2.2662">
        <ele>58.3</ele>
        <time>2014-09-21T08:35:40Z</time>
      </trkpt>
      <trkpt lat="47.55808" lon="-2.26627">
        <ele>58.3</ele>
        <time>2014-09-21T08:35:42Z</time>
      </trkpt>
      <trkpt lat="47.55799" lon="-2.26633">
        <ele>58.3</ele>
        <time>2014-09-21T08:35:44Z</time>
      </trkpt>
      <trkpt lat="47.55791" lon="-2.26639">
        <ele>57.82</ele>
        <time>2014-09-21T08:35:46Z</time>
      </trkpt>
      <trkpt lat="47.55782" lon="-2.26646">
        <ele>57.82</ele>
        <time>2014-09-21T08:35:48Z</time>
      </trkpt>
      <trkpt lat="47.55769" lon="-2.26655">
        <ele>57.82</ele>
        <time>2014-09-21T08:35:51Z</time>
      </trkpt>
      <trkpt lat="47.55756" lon="-2.26657">
        <ele>57.34</ele>
        <time>2014-09-21T08:35:54Z</time>
      </trkpt>
      <trkpt lat="47.55747" lon="-2.26645">
        <ele>56.86</ele>
        <time>2014-09-21T08:35:57Z</time>
      </trkpt>
      <trkpt lat="47.55739" lon="-2.2664">
        <ele>56.37</ele>
        <time>2014-09-21T08:36:00Z</time>
      </trkpt>
      <trkpt lat="47.55729" lon="-2.2664">
        <ele>56.37</ele>
        <time>2014-09-21T08:36:03Z</time>
      </trkpt>
      <trkpt lat="47.55719" lon="-2.26644">
        <ele>56.37</ele>
        <time>2014-09-21T08:36:07Z</time>
      </trkpt>
      <trkpt lat="47.55703" lon="-2.26656">
        <ele>55.89</ele>
        <time>2014-09-21T08:36:31Z</time>
      </trkpt>
      <trkpt lat="47.55691" lon="-2.26665">
        <ele>54.93</ele>
        <time>2014-09-21T08:36:35Z</time>
      </trkpt>
      <trkpt lat="47.55678" lon="-2.26669">
        <ele>54.93</ele>
        <time>2014-09-21T08:36:38Z</time>
      </trkpt>
      <trkpt lat="47.55664" lon="-2.26664">
        <ele>55.41</ele>
        <time>2014-09-21T08:36:41Z</time>
      </trkpt>
      <trkpt lat="47.55649" lon="-2.2666">
        <ele>55.41</ele>
        <time>2014-09-21T08:36:44Z</time>
      </trkpt>
      <trkpt lat="47.55641" lon="-2.26645">
        <ele>56.37</ele>
        <time>2014-09-21T08:36:48Z</time>
      </trkpt>
      <trkpt lat="47.55634" lon="-2.26632">
        <ele>57.82</ele>
        <time>2014-09-21T08:36:52Z</time>
      </trkpt>
      <trkpt lat="47.55623" lon="-2.26629">
        <ele>59.74</ele>
        <time>2014-09-21T08:36:56Z</time>
      </trkpt>
      <trkpt lat="47.5561" lon="-2.26632">
        <ele>61.18</ele>
        <time>2014-09-21T08:37:00Z</time>
      </trkpt>
      <trkpt lat="47.55598" lon="-2.26639">
        <ele>61.66</ele>
        <time>2014-09-21T08:37:03Z</time>
      </trkpt>
      <trkpt lat="47.55587" lon="-2.26652">
        <ele>61.66</ele>
        <time>2014-09-21T08:37:06Z</time>
      </trkpt>
      <trkpt lat="47.55577" lon="-2.26659">
        <ele>61.18</ele>
        <time>2014-09-21T08:37:08Z</time>
      </trkpt>
      <trkpt lat="47.55566" lon="-2.26664">
        <ele>60.22</ele>
        <time>2014-09-21T08:37:10Z</time>
      </trkpt>
      <trkpt lat="47.55555" lon="-2.26669">
        <ele>58.78</ele>
        <time>2014-09-21T08:37:12Z</time>
      </trkpt>
      <trkpt lat="47.55543" lon="-2.26673">
        <ele>57.34</ele>
        <time>2014-09-21T08:37:14Z</time>
      </trkpt>
      <trkpt lat="47.55533" lon="-2.26679">
        <ele>56.37</ele>
        <time>2014-09-21T08:37:16Z</time>
      </trkpt>
      <trkpt lat="47.55522" lon="-2.26685">
        <ele>55.89</ele>
        <time>2014-09-21T08:37:18Z</time>
      </trkpt>
      <trkpt lat="47.55512" lon="-2.26692">
        <ele>54.93</ele>
        <time>2014-09-21T08:37:20Z</time>
      </trkpt>
      <trkpt lat="47.555" lon="-2.26699">
        <ele>54.45</ele>
        <time>2014-09-21T08:37:22Z</time>
      </trkpt>
      <trkpt lat="47.55489" lon="-2.26705">
        <ele>53.97</ele>
        <time>2014-09-21T08:37:24Z</time>
      </trkpt>
      <trkpt lat="47.55479" lon="-2.26712">
        <ele>53.97</ele>
        <time>2014-09-21T08:37:26Z</time>
      </trkpt>
      <trkpt lat="47.55469" lon="-2.26718">
        <ele>53.97</ele>
        <time>2014-09-21T08:37:28Z</time>
      </trkpt>
      <trkpt lat="47.55459" lon="-2.26723">
        <ele>53.97</ele>
        <time>2014-09-21T08:37:30Z</time>
      </trkpt>
      <trkpt lat="47.55447" lon="-2.26729">
        <ele>53.49</ele>
        <time>2014-09-21T08:37:32Z</time>
      </trkpt>
      <trkpt lat="47.55437" lon="-2.26734">
        <ele>53.49</ele>
        <time>2014-09-21T08:37:34Z</time>
      </trkpt>
      <trkpt lat="47.55426" lon="-2.26737">
        <ele>53.49</ele>
        <time>2014-09-21T08:37:36Z</time>
      </trkpt>
      <trkpt lat="47.55416" lon="-2.26741">
        <ele>53.49</ele>
        <time>2014-09-21T08:37:38Z</time>
      </trkpt>
      <trkpt lat="47.55406" lon="-2.26747">
        <ele>53.49</ele>
        <time>2014-09-21T08:37:40Z</time>
      </trkpt>
      <trkpt lat="47.55391" lon="-2.26755">
        <ele>53.49</ele>
        <time>2014-09-21T08:37:43Z</time>
      </trkpt>
      <trkpt lat="47.55381" lon="-2.26761">
        <ele>53.01</ele>
        <time>2014-09-21T08:37:45Z</time>
      </trkpt>
      <trkpt lat="47.5537" lon="-2.26767">
        <ele>52.53</ele>
        <time>2014-09-21T08:37:47Z</time>
      </trkpt>
      <trkpt lat="47.5536" lon="-2.26774">
        <ele>52.05</ele>
        <time>2014-09-21T08:37:49Z</time>
      </trkpt>
      <trkpt lat="47.55349" lon="-2.2678">
        <ele>52.05</ele>
        <time>2014-09-21T08:37:51Z</time>
      </trkpt>
      <trkpt lat="47.55338" lon="-2.26786">
        <ele>51.57</ele>
        <time>2014-09-21T08:37:53Z</time>
      </trkpt>
      <trkpt lat="47.55327" lon="-2.26793">
        <ele>51.09</ele>
        <time>2014-09-21T08:37:55Z</time>
      </trkpt>
      <trkpt lat="47.55317" lon="-2.26799">
        <ele>50.13</ele>
        <time>2014-09-21T08:37:57Z</time>
      </trkpt>
      <trkpt lat="47.55307" lon="-2.26805">
        <ele>49.65</ele>
        <time>2014-09-21T08:37:59Z</time>
      </trkpt>
      <trkpt lat="47.55299" lon="-2.26815">
        <ele>49.16</ele>
        <time>2014-09-21T08:38:02Z</time>
      </trkpt>
      <trkpt lat="47.55298" lon="-2.26831">
        <ele>48.2</ele>
        <time>2014-09-21T08:38:05Z</time>
      </trkpt>
      <trkpt lat="47.55301" lon="-2.26851">
        <ele>47.72</ele>
        <time>2014-09-21T08:38:08Z</time>
      </trkpt>
      <trkpt lat="47.55304" lon="-2.26866">
        <ele>47.24</ele>
        <time>2014-09-21T08:38:10Z</time>
      </trkpt>
      <trkpt lat="47.55306" lon="-2.26882">
        <ele>46.76</ele>
        <time>2014-09-21T08:38:12Z</time>
      </trkpt>
      <trkpt lat="47.55308" lon="-2.269">
        <ele>46.28</ele>
        <time>2014-09-21T08:38:14Z</time>
      </trkpt>
      <trkpt lat="47.55311" lon="-2.26919">
        <ele>45.32</ele>
        <time>2014-09-21T08:38:16Z</time>
      </trkpt>
      <trkpt lat="47.55313" lon="-2.26939">
        <ele>44.36</ele>
        <time>2014-09-21T08:38:18Z</time>
      </trkpt>
      <trkpt lat="47.55315" lon="-2.26962">
        <ele>43.4</ele>
        <time>2014-09-21T08:38:20Z</time>
      </trkpt>
      <trkpt lat="47.55315" lon="-2.26986">
        <ele>41.95</ele>
        <time>2014-09-21T08:38:22Z</time>
      </trkpt>
      <trkpt lat="47.55315" lon="-2.27011">
        <ele>41.47</ele>
        <time>2014-09-21T08:38:24Z</time>
      </trkpt>
      <trkpt lat="47.55314" lon="-2.27034">
        <ele>40.99</ele>
        <time>2014-09-21T08:38:26Z</time>
      </trkpt>
      <trkpt lat="47.55312" lon="-2.27055">
        <ele>41.47</ele>
        <time>2014-09-21T08:38:28Z</time>
      </trkpt>
      <trkpt lat="47.55311" lon="-2.27075">
        <ele>41.95</ele>
        <time>2014-09-21T08:38:30Z</time>
      </trkpt>
      <trkpt lat="47.55311" lon="-2.27094">
        <ele>42.44</ele>
        <time>2014-09-21T08:38:32Z</time>
      </trkpt>
      <trkpt lat="47.5531" lon="-2.27111">
        <ele>42.92</ele>
        <time>2014-09-21T08:38:34Z</time>
      </trkpt>
      <trkpt lat="47.55308" lon="-2.27127">
        <ele>43.4</ele>
        <time>2014-09-21T08:38:36Z</time>
      </trkpt>
      <trkpt lat="47.55305" lon="-2.27142">
        <ele>43.88</ele>
        <time>2014-09-21T08:38:38Z</time>
      </trkpt>
      <trkpt lat="47.553" lon="-2.27158">
        <ele>43.88</ele>
        <time>2014-09-21T08:38:40Z</time>
      </trkpt>
      <trkpt lat="47.55297" lon="-2.27174">
        <ele>44.36</ele>
        <time>2014-09-21T08:38:42Z</time>
      </trkpt>
      <trkpt lat="47.55293" lon="-2.2719">
        <ele>44.36</ele>
        <time>2014-09-21T08:38:44Z</time>
      </trkpt>
      <trkpt lat="47.55289" lon="-2.27206">
        <ele>43.88</ele>
        <time>2014-09-21T08:38:46Z</time>
      </trkpt>
      <trkpt lat="47.55286" lon="-2.27221">
        <ele>43.88</ele>
        <time>2014-09-21T08:38:48Z</time>
      </trkpt>
      <trkpt lat="47.55283" lon="-2.27236">
        <ele>43.4</ele>
        <time>2014-09-21T08:38:50Z</time>
      </trkpt>
      <trkpt lat="47.5528" lon="-2.27252">
        <ele>43.4</ele>
        <time>2014-09-21T08:38:52Z</time>
      </trkpt>
      <trkpt lat="47.55277" lon="-2.27268">
        <ele>43.4</ele>
        <time>2014-09-21T08:38:54Z</time>
      </trkpt>
      <trkpt lat="47.55274" lon="-2.27284">
        <ele>43.4</ele>
        <time>2014-09-21T08:38:56Z</time>
      </trkpt>
      <trkpt lat="47.55272" lon="-2.27301">
        <ele>43.4</ele>
        <time>2014-09-21T08:38:58Z</time>
      </trkpt>
      <trkpt lat="47.5527" lon="-2.27318">
        <ele>43.4</ele>
        <time>2014-09-21T08:39:00Z</time>
      </trkpt>
      <trkpt lat="47.55269" lon="-2.27333">
        <ele>43.88</ele>
        <time>2014-09-21T08:39:02Z</time>
      </trkpt>
      <trkpt lat="47.55267" lon="-2.27349">
        <ele>43.88</ele>
        <time>2014-09-21T08:39:04Z</time>
      </trkpt>
      <trkpt lat="47.55265" lon="-2.27364">
        <ele>44.36</ele>
        <time>2014-09-21T08:39:06Z</time>
      </trkpt>
      <trkpt lat="47.55264" lon="-2.27381">
        <ele>44.36</ele>
        <time>2014-09-21T08:39:08Z</time>
      </trkpt>
      <trkpt lat="47.55263" lon="-2.27397">
        <ele>44.84</ele>
        <time>2014-09-21T08:39:10Z</time>
      </trkpt>
      <trkpt lat="47.55263" lon="-2.27411">
        <ele>44.84</ele>
        <time>2014-09-21T08:39:12Z</time>
      </trkpt>
      <trkpt lat="47.5526" lon="-2.27428">
        <ele>45.32</ele>
        <time>2014-09-21T08:39:15Z</time>
      </trkpt>
      <trkpt lat="47.55247" lon="-2.27432">
        <ele>44.36</ele>
        <time>2014-09-21T08:39:18Z</time>
      </trkpt>
      <trkpt lat="47.55235" lon="-2.2743">
        <ele>43.88</ele>
        <time>2014-09-21T08:39:20Z</time>
      </trkpt>
      <trkpt lat="47.55221" lon="-2.27429">
        <ele>43.4</ele>
        <time>2014-09-21T08:39:22Z</time>
      </trkpt>
      <trkpt lat="47.55207" lon="-2.27428">
        <ele>42.92</ele>
        <time>2014-09-21T08:39:24Z</time>
      </trkpt>
      <trkpt lat="47.55193" lon="-2.27427">
        <ele>42.44</ele>
        <time>2014-09-21T08:39:26Z</time>
      </trkpt>
      <trkpt lat="47.55178" lon="-2.27426">
        <ele>41.95</ele>
        <time>2014-09-21T08:39:28Z</time>
      </trkpt>
      <trkpt lat="47.55163" lon="-2.27425">
        <ele>41.47</ele>
        <time>2014-09-21T08:39:30Z</time>
      </trkpt>
      <trkpt lat="47.55149" lon="-2.27424">
        <ele>41.47</ele>
        <time>2014-09-21T08:39:32Z</time>
      </trkpt>
      <trkpt lat="47.55134" lon="-2.27423">
        <ele>41.47</ele>
        <time>2014-09-21T08:39:34Z</time>
      </trkpt>
      <trkpt lat="47.5512" lon="-2.27422">
        <ele>41.95</ele>
        <time>2014-09-21T08:39:36Z</time>
      </trkpt>
      <trkpt lat="47.55107" lon="-2.27421">
        <ele>41.95</ele>
        <time>2014-09-21T08:39:38Z</time>
      </trkpt>
      <trkpt lat="47.55094" lon="-2.2742">
        <ele>41.95</ele>
        <time>2014-09-21T08:39:40Z</time>
      </trkpt>
      <trkpt lat="47.55081" lon="-2.27419">
        <ele>41.47</ele>
        <time>2014-09-21T08:39:42Z</time>
      </trkpt>
      <trkpt lat="47.55068" lon="-2.27418">
        <ele>41.47</ele>
        <time>2014-09-21T08:39:44Z</time>
      </trkpt>
      <trkpt lat="47.55055" lon="-2.27417">
        <ele>40.99</ele>
        <time>2014-09-21T08:39:46Z</time>
      </trkpt>
      <trkpt lat="47.55042" lon="-2.27416">
        <ele>40.99</ele>
        <time>2014-09-21T08:39:48Z</time>
      </trkpt>
      <trkpt lat="47.55028" lon="-2.27413">
        <ele>40.03</ele>
        <time>2014-09-21T08:39:50Z</time>
      </trkpt>
      <trkpt lat="47.55013" lon="-2.27411">
        <ele>38.59</ele>
        <time>2014-09-21T08:39:52Z</time>
      </trkpt>
      <trkpt lat="47.54995" lon="-2.27408">
        <ele>36.67</ele>
        <time>2014-09-21T08:39:54Z</time>
      </trkpt>
      <trkpt lat="47.54984" lon="-2.27407">
        <ele>35.71</ele>
        <time>2014-09-21T08:39:55Z</time>
      </trkpt>
      <trkpt lat="47.54974" lon="-2.27407">
        <ele>34.74</ele>
        <time>2014-09-21T08:39:56Z</time>
      </trkpt>
      <trkpt lat="47.54964" lon="-2.27406">
        <ele>33.78</ele>
        <time>2014-09-21T08:39:57Z</time>
      </trkpt>
      <trkpt lat="47.54956" lon="-2.27404">
        <ele>32.82</ele>
        <time>2014-09-21T08:39:58Z</time>
      </trkpt>
      <trkpt lat="47.5494" lon="-2.27397">
        <ele>30.9</ele>
        <time>2014-09-21T08:40:00Z</time>
      </trkpt>
      <trkpt lat="47.5493" lon="-2.27394">
        <ele>28.98</ele>
        <time>2014-09-21T08:40:02Z</time>
      </trkpt>
      <trkpt lat="47.54921" lon="-2.27392">
        <ele>26.57</ele>
        <time>2014-09-21T08:40:05Z</time>
      </trkpt>
      <trkpt lat="47.54912" lon="-2.27391">
        <ele>23.21</ele>
        <time>2014-09-21T08:40:10Z</time>
      </trkpt>
      <trkpt lat="47.54908" lon="-2.27393">
        <ele>22.73</ele>
        <time>2014-09-21T08:40:16Z</time>
      </trkpt>
      <trkpt lat="47.54902" lon="-2.27396">
        <ele>23.21</ele>
        <time>2014-09-21T08:40:20Z</time>
      </trkpt>
      <trkpt lat="47.54892" lon="-2.27403">
        <ele>25.13</ele>
        <time>2014-09-21T08:40:25Z</time>
      </trkpt>
      <trkpt lat="47.54892" lon="-2.2742">
        <ele>27.05</ele>
        <time>2014-09-21T08:40:29Z</time>
      </trkpt>
      <trkpt lat="47.54898" lon="-2.27435">
        <ele>28.02</ele>
        <time>2014-09-21T08:40:32Z</time>
      </trkpt>
      <trkpt lat="47.549" lon="-2.27449">
        <ele>28.5</ele>
        <time>2014-09-21T08:40:34Z</time>
      </trkpt>
      <trkpt lat="47.54901" lon="-2.27463">
        <ele>28.5</ele>
        <time>2014-09-21T08:40:36Z</time>
      </trkpt>
      <trkpt lat="47.54904" lon="-2.27477">
        <ele>29.46</ele>
        <time>2014-09-21T08:40:40Z</time>
      </trkpt>
      <trkpt lat="47.54892" lon="-2.27489">
        <ele>29.94</ele>
        <time>2014-09-21T08:40:45Z</time>
      </trkpt>
      <trkpt lat="47.54883" lon="-2.27504">
        <ele>30.42</ele>
        <time>2014-09-21T08:40:48Z</time>
      </trkpt>
      <trkpt lat="47.54882" lon="-2.27519">
        <ele>30.42</ele>
        <time>2014-09-21T08:40:50Z</time>
      </trkpt>
      <trkpt lat="47.54874" lon="-2.27521">
        <ele>31.38</ele>
        <time>2014-09-21T08:40:56Z</time>
      </trkpt>
      <trkpt lat="47.5486" lon="-2.27515">
        <ele>32.34</ele>
        <time>2014-09-21T08:40:59Z</time>
      </trkpt>
      <trkpt lat="47.54846" lon="-2.27512">
        <ele>33.78</ele>
        <time>2014-09-21T08:41:02Z</time>
      </trkpt>
      <trkpt lat="47.54838" lon="-2.27522">
        <ele>34.26</ele>
        <time>2014-09-21T08:41:05Z</time>
      </trkpt>
      <trkpt lat="47.54828" lon="-2.27521">
        <ele>35.23</ele>
        <time>2014-09-21T08:41:09Z</time>
      </trkpt>
      <trkpt lat="47.54812" lon="-2.27511">
        <ele>40.03</ele>
        <time>2014-09-21T08:41:24Z</time>
      </trkpt>
      <trkpt lat="47.54801" lon="-2.27509">
        <ele>41.95</ele>
        <time>2014-09-21T08:41:28Z</time>
      </trkpt>
      <trkpt lat="47.54789" lon="-2.27513">
        <ele>42.92</ele>
        <time>2014-09-21T08:41:31Z</time>
      </trkpt>
      <trkpt lat="47.54777" lon="-2.27506">
        <ele>43.88</ele>
        <time>2014-09-21T08:41:34Z</time>
      </trkpt>
      <trkpt lat="47.5477" lon="-2.27493">
        <ele>44.84</ele>
        <time>2014-09-21T08:41:38Z</time>
      </trkpt>
      <trkpt lat="47.54762" lon="-2.27481">
        <ele>45.8</ele>
        <time>2014-09-21T08:41:43Z</time>
      </trkpt>
      <trkpt lat="47.54749" lon="-2.27477">
        <ele>46.28</ele>
        <time>2014-09-21T08:41:47Z</time>
      </trkpt>
      <trkpt lat="47.54736" lon="-2.27469">
        <ele>47.24</ele>
        <time>2014-09-21T08:41:51Z</time>
      </trkpt>
      <trkpt lat="47.54725" lon="-2.27463">
        <ele>48.2</ele>
        <time>2014-09-21T08:41:54Z</time>
      </trkpt>
      <trkpt lat="47.54716" lon="-2.27452">
        <ele>48.68</ele>
        <time>2014-09-21T08:41:57Z</time>
      </trkpt>
      <trkpt lat="47.54703" lon="-2.27438">
        <ele>49.16</ele>
        <time>2014-09-21T08:42:01Z</time>
      </trkpt>
      <trkpt lat="47.54696" lon="-2.27422">
        <ele>50.13</ele>
        <time>2014-09-21T08:42:05Z</time>
      </trkpt>
      <trkpt lat="47.54695" lon="-2.27402">
        <ele>51.09</ele>
        <time>2014-09-21T08:42:09Z</time>
      </trkpt>
      <trkpt lat="47.54685" lon="-2.27361">
        <ele>53.49</ele>
        <time>2014-09-21T08:42:31Z</time>
      </trkpt>
      <trkpt lat="47.54685" lon="-2.27346">
        <ele>54.45</ele>
        <time>2014-09-21T08:42:37Z</time>
      </trkpt>
      <trkpt lat="47.54684" lon="-2.27329">
        <ele>54.93</ele>
        <time>2014-09-21T08:42:42Z</time>
      </trkpt>
      <trkpt lat="47.54684" lon="-2.27314">
        <ele>54.45</ele>
        <time>2014-09-21T08:42:47Z</time>
      </trkpt>
      <trkpt lat="47.54675" lon="-2.27314">
        <ele>54.45</ele>
        <time>2014-09-21T08:42:52Z</time>
      </trkpt>
      <trkpt lat="47.54661" lon="-2.27325">
        <ele>53.49</ele>
        <time>2014-09-21T08:42:55Z</time>
      </trkpt>
      <trkpt lat="47.54648" lon="-2.27335">
        <ele>52.53</ele>
        <time>2014-09-21T08:42:57Z</time>
      </trkpt>
      <trkpt lat="47.54631" lon="-2.27347">
        <ele>51.09</ele>
        <time>2014-09-21T08:42:59Z</time>
      </trkpt>
      <trkpt lat="47.54621" lon="-2.27352">
        <ele>50.13</ele>
        <time>2014-09-21T08:43:00Z</time>
      </trkpt>
      <trkpt lat="47.54612" lon="-2.27357">
        <ele>48.68</ele>
        <time>2014-09-21T08:43:01Z</time>
      </trkpt>
      <trkpt lat="47.54594" lon="-2.27365">
        <ele>45.32</ele>
        <time>2014-09-21T08:43:03Z</time>
      </trkpt>
      <trkpt lat="47.54581" lon="-2.27372">
        <ele>43.88</ele>
        <time>2014-09-21T08:43:05Z</time>
      </trkpt>
      <trkpt lat="47.5457" lon="-2.27378">
        <ele>42.44</ele>
        <time>2014-09-21T08:43:07Z</time>
      </trkpt>
      <trkpt lat="47.54557" lon="-2.27385">
        <ele>41.95</ele>
        <time>2014-09-21T08:43:10Z</time>
      </trkpt>
      <trkpt lat="47.54545" lon="-2.27392">
        <ele>41.47</ele>
        <time>2014-09-21T08:43:13Z</time>
      </trkpt>
      <trkpt lat="47.54533" lon="-2.274">
        <ele>40.99</ele>
        <time>2014-09-21T08:43:16Z</time>
      </trkpt>
      <trkpt lat="47.54524" lon="-2.27405">
        <ele>40.99</ele>
        <time>2014-09-21T08:43:18Z</time>
      </trkpt>
      <trkpt lat="47.54512" lon="-2.27413">
        <ele>40.51</ele>
        <time>2014-09-21T08:43:21Z</time>
      </trkpt>
      <trkpt lat="47.54499" lon="-2.2742">
        <ele>40.51</ele>
        <time>2014-09-21T08:43:24Z</time>
      </trkpt>
      <trkpt lat="47.54487" lon="-2.27428">
        <ele>40.51</ele>
        <time>2014-09-21T08:43:27Z</time>
      </trkpt>
      <trkpt lat="47.54476" lon="-2.27436">
        <ele>40.51</ele>
        <time>2014-09-21T08:43:30Z</time>
      </trkpt>
      <trkpt lat="47.54464" lon="-2.27443">
        <ele>40.51</ele>
        <time>2014-09-21T08:43:33Z</time>
      </trkpt>
      <trkpt lat="47.54453" lon="-2.2745">
        <ele>40.51</ele>
        <time>2014-09-21T08:43:36Z</time>
      </trkpt>
      <trkpt lat="47.54442" lon="-2.27457">
        <ele>40.99</ele>
        <time>2014-09-21T08:43:39Z</time>
      </trkpt>
      <trkpt lat="47.54431" lon="-2.27463">
        <ele>40.99</ele>
        <time>2014-09-21T08:43:42Z</time>
      </trkpt>
      <trkpt lat="47.5442" lon="-2.2747">
        <ele>41.47</ele>
        <time>2014-09-21T08:43:45Z</time>
      </trkpt>
      <trkpt lat="47.5441" lon="-2.27477">
        <ele>41.47</ele>
        <time>2014-09-21T08:43:48Z</time>
      </trkpt>
      <trkpt lat="47.544" lon="-2.27483">
        <ele>41.95</ele>
        <time>2014-09-21T08:43:51Z</time>
      </trkpt>
      <trkpt lat="47.54389" lon="-2.27491">
        <ele>41.95</ele>
        <time>2014-09-21T08:43:54Z</time>
      </trkpt>
      <trkpt lat="47.54378" lon="-2.27498">
        <ele>41.95</ele>
        <time>2014-09-21T08:43:57Z</time>
      </trkpt>
      <trkpt lat="47.54366" lon="-2.27506">
        <ele>41.95</ele>
        <time>2014-09-21T08:44:00Z</time>
      </trkpt>
      <trkpt lat="47.54354" lon="-2.27513">
        <ele>42.44</ele>
        <time>2014-09-21T08:44:03Z</time>
      </trkpt>
      <trkpt lat="47.54342" lon="-2.27521">
        <ele>42.44</ele>
        <time>2014-09-21T08:44:06Z</time>
      </trkpt>
      <trkpt lat="47.5433" lon="-2.27529">
        <ele>42.44</ele>
        <time>2014-09-21T08:44:09Z</time>
      </trkpt>
      <trkpt lat="47.54319" lon="-2.27537">
        <ele>42.92</ele>
        <time>2014-09-21T08:44:12Z</time>
      </trkpt>
      <trkpt lat="47.54308" lon="-2.27544">
        <ele>42.92</ele>
        <time>2014-09-21T08:44:15Z</time>
      </trkpt>
      <trkpt lat="47.54298" lon="-2.2755">
        <ele>42.92</ele>
        <time>2014-09-21T08:44:18Z</time>
      </trkpt>
      <trkpt lat="47.54289" lon="-2.27556">
        <ele>43.4</ele>
        <time>2014-09-21T08:44:21Z</time>
      </trkpt>
      <trkpt lat="47.54278" lon="-2.27562">
        <ele>43.88</ele>
        <time>2014-09-21T08:44:24Z</time>
      </trkpt>
      <trkpt lat="47.54267" lon="-2.27569">
        <ele>43.88</ele>
        <time>2014-09-21T08:44:27Z</time>
      </trkpt>
      <trkpt lat="47.54256" lon="-2.27576">
        <ele>43.88</ele>
        <time>2014-09-21T08:44:30Z</time>
      </trkpt>
      <trkpt lat="47.54245" lon="-2.27584">
        <ele>44.36</ele>
        <time>2014-09-21T08:44:33Z</time>
      </trkpt>
      <trkpt lat="47.54235" lon="-2.27591">
        <ele>44.84</ele>
        <time>2014-09-21T08:44:36Z</time>
      </trkpt>
      <trkpt lat="47.54223" lon="-2.27598">
        <ele>44.84</ele>
        <time>2014-09-21T08:44:39Z</time>
      </trkpt>
      <trkpt lat="47.54211" lon="-2.27606">
        <ele>45.32</ele>
        <time>2014-09-21T08:44:42Z</time>
      </trkpt>
      <trkpt lat="47.542" lon="-2.27614">
        <ele>45.8</ele>
        <time>2014-09-21T08:44:45Z</time>
      </trkpt>
      <trkpt lat="47.54189" lon="-2.27621">
        <ele>46.28</ele>
        <time>2014-09-21T08:44:48Z</time>
      </trkpt>
      <trkpt lat="47.54177" lon="-2.27628">
        <ele>46.76</ele>
        <time>2014-09-21T08:44:51Z</time>
      </trkpt>
      <trkpt lat="47.54166" lon="-2.27636">
        <ele>47.24</ele>
        <time>2014-09-21T08:44:54Z</time>
      </trkpt>
      <trkpt lat="47.54154" lon="-2.27643">
        <ele>47.72</ele>
        <time>2014-09-21T08:44:57Z</time>
      </trkpt>
      <trkpt lat="47.54143" lon="-2.2765">
        <ele>48.2</ele>
        <time>2014-09-21T08:45:00Z</time>
      </trkpt>
      <trkpt lat="47.54134" lon="-2.27657">
        <ele>48.68</ele>
        <time>2014-09-21T08:45:03Z</time>
      </trkpt>
      <trkpt lat="47.54125" lon="-2.27665">
        <ele>49.65</ele>
        <time>2014-09-21T08:45:06Z</time>
      </trkpt>
      <trkpt lat="47.54117" lon="-2.27671">
        <ele>50.61</ele>
        <time>2014-09-21T08:45:11Z</time>
      </trkpt>
      <trkpt lat="47.54108" lon="-2.27673">
        <ele>51.57</ele>
        <time>2014-09-21T08:45:40Z</time>
      </trkpt>
      <trkpt lat="47.54098" lon="-2.27674">
        <ele>51.09</ele>
        <time>2014-09-21T08:45:47Z</time>
      </trkpt>
      <trkpt lat="47.54089" lon="-2.27675">
        <ele>50.61</ele>
        <time>2014-09-21T08:45:52Z</time>
      </trkpt>
      <trkpt lat="47.54078" lon="-2.27671">
        <ele>49.16</ele>
        <time>2014-09-21T08:45:57Z</time>
      </trkpt>
      <trkpt lat="47.54067" lon="-2.27669">
        <ele>49.65</ele>
        <time>2014-09-21T08:46:02Z</time>
      </trkpt>
      <trkpt lat="47.54058" lon="-2.27666">
        <ele>49.65</ele>
        <time>2014-09-21T08:46:07Z</time>
      </trkpt>
      <trkpt lat="47.5405" lon="-2.27658">
        <ele>50.13</ele>
        <time>2014-09-21T08:46:12Z</time>
      </trkpt>
      <trkpt lat="47.54041" lon="-2.2765">
        <ele>50.61</ele>
        <time>2014-09-21T08:46:16Z</time>
      </trkpt>
      <trkpt lat="47.54029" lon="-2.27643">
        <ele>51.09</ele>
        <time>2014-09-21T08:46:20Z</time>
      </trkpt>
      <trkpt lat="47.54019" lon="-2.27637">
        <ele>51.09</ele>
        <time>2014-09-21T08:46:23Z</time>
      </trkpt>
      <trkpt lat="47.54007" lon="-2.2763">
        <ele>50.61</ele>
        <time>2014-09-21T08:46:26Z</time>
      </trkpt>
      <trkpt lat="47.53997" lon="-2.27622">
        <ele>50.13</ele>
        <time>2014-09-21T08:46:29Z</time>
      </trkpt>
      <trkpt lat="47.5399" lon="-2.27626">
        <ele>49.65</ele>
        <time>2014-09-21T08:46:32Z</time>
      </trkpt>
      <trkpt lat="47.53985" lon="-2.27644">
        <ele>49.65</ele>
        <time>2014-09-21T08:46:35Z</time>
      </trkpt>
      <trkpt lat="47.53982" lon="-2.27657">
        <ele>49.65</ele>
        <time>2014-09-21T08:46:37Z</time>
      </trkpt>
      <trkpt lat="47.5398" lon="-2.27673">
        <ele>50.61</ele>
        <time>2014-09-21T08:46:40Z</time>
      </trkpt>
      <trkpt lat="47.53978" lon="-2.27686">
        <ele>51.09</ele>
        <time>2014-09-21T08:46:42Z</time>
      </trkpt>
      <trkpt lat="47.53976" lon="-2.27706">
        <ele>52.05</ele>
        <time>2014-09-21T08:46:45Z</time>
      </trkpt>
      <trkpt lat="47.53974" lon="-2.2772">
        <ele>52.53</ele>
        <time>2014-09-21T08:46:47Z</time>
      </trkpt>
      <trkpt lat="47.53969" lon="-2.27735">
        <ele>53.97</ele>
        <time>2014-09-21T08:46:50Z</time>
      </trkpt>
      <trkpt lat="47.53957" lon="-2.27747">
        <ele>54.93</ele>
        <time>2014-09-21T08:46:53Z</time>
      </trkpt>
      <trkpt lat="47.53944" lon="-2.27749">
        <ele>55.41</ele>
        <time>2014-09-21T08:46:56Z</time>
      </trkpt>
      <trkpt lat="47.53935" lon="-2.27754">
        <ele>55.89</ele>
        <time>2014-09-21T08:46:58Z</time>
      </trkpt>
      <trkpt lat="47.53926" lon="-2.27756">
        <ele>56.37</ele>
        <time>2014-09-21T08:47:00Z</time>
      </trkpt>
      <trkpt lat="47.53915" lon="-2.27766">
        <ele>55.89</ele>
        <time>2014-09-21T08:47:03Z</time>
      </trkpt>
      <trkpt lat="47.53904" lon="-2.27775">
        <ele>55.89</ele>
        <time>2014-09-21T08:47:06Z</time>
      </trkpt>
      <trkpt lat="47.53892" lon="-2.27779">
        <ele>55.41</ele>
        <time>2014-09-21T08:47:09Z</time>
      </trkpt>
      <trkpt lat="47.53878" lon="-2.27786">
        <ele>55.41</ele>
        <time>2014-09-21T08:47:12Z</time>
      </trkpt>
      <trkpt lat="47.53869" lon="-2.27797">
        <ele>55.41</ele>
        <time>2014-09-21T08:47:14Z</time>
      </trkpt>
      <trkpt lat="47.53861" lon="-2.27804">
        <ele>55.41</ele>
        <time>2014-09-21T08:47:16Z</time>
      </trkpt>
      <trkpt lat="47.53848" lon="-2.27805">
        <ele>54.93</ele>
        <time>2014-09-21T08:47:19Z</time>
      </trkpt>
      <trkpt lat="47.53837" lon="-2.27806">
        <ele>54.93</ele>
        <time>2014-09-21T08:47:21Z</time>
      </trkpt>
      <trkpt lat="47.53826" lon="-2.2781">
        <ele>54.45</ele>
        <time>2014-09-21T08:47:23Z</time>
      </trkpt>
      <trkpt lat="47.53815" lon="-2.27814">
        <ele>53.97</ele>
        <time>2014-09-21T08:47:26Z</time>
      </trkpt>
      <trkpt lat="47.53803" lon="-2.27823">
        <ele>53.97</ele>
        <time>2014-09-21T08:47:29Z</time>
      </trkpt>
      <trkpt lat="47.53796" lon="-2.27837">
        <ele>53.97</ele>
        <time>2014-09-21T08:47:32Z</time>
      </trkpt>
      <trkpt lat="47.53796" lon="-2.2785">
        <ele>54.45</ele>
        <time>2014-09-21T08:47:36Z</time>
      </trkpt>
      <trkpt lat="47.53799" lon="-2.27864">
        <ele>55.89</ele>
        <time>2014-09-21T08:47:42Z</time>
      </trkpt>
      <trkpt lat="47.53801" lon="-2.27883">
        <ele>56.86</ele>
        <time>2014-09-21T08:47:46Z</time>
      </trkpt>
      <trkpt lat="47.53794" lon="-2.27896">
        <ele>57.82</ele>
        <time>2014-09-21T08:47:49Z</time>
      </trkpt>
      <trkpt lat="47.53789" lon="-2.27911">
        <ele>58.3</ele>
        <time>2014-09-21T08:47:52Z</time>
      </trkpt>
      <trkpt lat="47.53791" lon="-2.27927">
        <ele>58.3</ele>
        <time>2014-09-21T08:47:55Z</time>
      </trkpt>
      <trkpt lat="47.53791" lon="-2.27945">
        <ele>58.3</ele>
        <time>2014-09-21T08:47:58Z</time>
      </trkpt>
      <trkpt lat="47.53791" lon="-2.27961">
        <ele>57.82</ele>
        <time>2014-09-21T08:48:01Z</time>
      </trkpt>
      <trkpt lat="47.53789" lon="-2.27977">
        <ele>57.34</ele>
        <time>2014-09-21T08:48:05Z</time>
      </trkpt>
      <trkpt lat="47.53778" lon="-2.27982">
        <ele>56.86</ele>
        <time>2014-09-21T08:48:09Z</time>
      </trkpt>
      <trkpt lat="47.53769" lon="-2.27984">
        <ele>55.41</ele>
        <time>2014-09-21T08:48:11Z</time>
      </trkpt>
      <trkpt lat="47.5376" lon="-2.27987">
        <ele>53.97</ele>
        <time>2014-09-21T08:48:13Z</time>
      </trkpt>
      <trkpt lat="47.5375" lon="-2.2799">
        <ele>52.53</ele>
        <time>2014-09-21T08:48:15Z</time>
      </trkpt>
      <trkpt lat="47.53739" lon="-2.27993">
        <ele>51.09</ele>
        <time>2014-09-21T08:48:17Z</time>
      </trkpt>
      <trkpt lat="47.53729" lon="-2.27996">
        <ele>50.13</ele>
        <time>2014-09-21T08:48:19Z</time>
      </trkpt>
      <trkpt lat="47.53718" lon="-2.27999">
        <ele>49.16</ele>
        <time>2014-09-21T08:48:21Z</time>
      </trkpt>
      <trkpt lat="47.53708" lon="-2.28002">
        <ele>48.2</ele>
        <time>2014-09-21T08:48:23Z</time>
      </trkpt>
      <trkpt lat="47.53698" lon="-2.28004">
        <ele>47.72</ele>
        <time>2014-09-21T08:48:25Z</time>
      </trkpt>
      <trkpt lat="47.53688" lon="-2.28006">
        <ele>47.24</ele>
        <time>2014-09-21T08:48:27Z</time>
      </trkpt>
      <trkpt lat="47.53678" lon="-2.28009">
        <ele>46.76</ele>
        <time>2014-09-21T08:48:29Z</time>
      </trkpt>
      <trkpt lat="47.53668" lon="-2.28011">
        <ele>46.28</ele>
        <time>2014-09-21T08:48:31Z</time>
      </trkpt>
      <trkpt lat="47.53658" lon="-2.28013">
        <ele>45.32</ele>
        <time>2014-09-21T08:48:33Z</time>
      </trkpt>
      <trkpt lat="47.53646" lon="-2.28015">
        <ele>44.84</ele>
        <time>2014-09-21T08:48:35Z</time>
      </trkpt>
      <trkpt lat="47.53635" lon="-2.28019">
        <ele>43.88</ele>
        <time>2014-09-21T08:48:37Z</time>
      </trkpt>
      <trkpt lat="47.53625" lon="-2.2803">
        <ele>43.4</ele>
        <time>2014-09-21T08:48:39Z</time>
      </trkpt>
      <trkpt lat="47.53622" lon="-2.28047">
        <ele>42.92</ele>
        <time>2014-09-21T08:48:41Z</time>
      </trkpt>
      <trkpt lat="47.53619" lon="-2.28065">
        <ele>41.95</ele>
        <time>2014-09-21T08:48:43Z</time>
      </trkpt>
      <trkpt lat="47.53615" lon="-2.28082">
        <ele>41.47</ele>
        <time>2014-09-21T08:48:45Z</time>
      </trkpt>
      <trkpt lat="47.53613" lon="-2.28099">
        <ele>40.51</ele>
        <time>2014-09-21T08:48:47Z</time>
      </trkpt>
      <trkpt lat="47.53614" lon="-2.28117">
        <ele>40.03</ele>
        <time>2014-09-21T08:48:49Z</time>
      </trkpt>
      <trkpt lat="47.53616" lon="-2.28136">
        <ele>39.07</ele>
        <time>2014-09-21T08:48:51Z</time>
      </trkpt>
      <trkpt lat="47.53618" lon="-2.28153">
        <ele>38.59</ele>
        <time>2014-09-21T08:48:53Z</time>
      </trkpt>
      <trkpt lat="47.53617" lon="-2.28167">
        <ele>38.11</ele>
        <time>2014-09-21T08:48:55Z</time>
      </trkpt>
      <trkpt lat="47.53611" lon="-2.28183">
        <ele>37.63</ele>
        <time>2014-09-21T08:48:58Z</time>
      </trkpt>
      <trkpt lat="47.53608" lon="-2.28201">
        <ele>36.19</ele>
        <time>2014-09-21T08:49:01Z</time>
      </trkpt>
      <trkpt lat="47.53597" lon="-2.28205">
        <ele>35.71</ele>
        <time>2014-09-21T08:49:04Z</time>
      </trkpt>
      <trkpt lat="47.53585" lon="-2.28199">
        <ele>35.23</ele>
        <time>2014-09-21T08:49:07Z</time>
      </trkpt>
      <trkpt lat="47.53577" lon="-2.28204">
        <ele>35.23</ele>
        <time>2014-09-21T08:49:09Z</time>
      </trkpt>
      <trkpt lat="47.53568" lon="-2.28211">
        <ele>35.23</ele>
        <time>2014-09-21T08:49:11Z</time>
      </trkpt>
      <trkpt lat="47.5356" lon="-2.28218">
        <ele>35.23</ele>
        <time>2014-09-21T08:49:13Z</time>
      </trkpt>
      <trkpt lat="47.53552" lon="-2.28225">
        <ele>35.23</ele>
        <time>2014-09-21T08:49:15Z</time>
      </trkpt>
      <trkpt lat="47.53544" lon="-2.28231">
        <ele>35.23</ele>
        <time>2014-09-21T08:49:17Z</time>
      </trkpt>
      <trkpt lat="47.53532" lon="-2.2824">
        <ele>35.23</ele>
        <time>2014-09-21T08:49:20Z</time>
      </trkpt>
      <trkpt lat="47.53523" lon="-2.28247">
        <ele>34.74</ele>
        <time>2014-09-21T08:49:23Z</time>
      </trkpt>
    </trkseg>
  </trk>
</gpx>